<?xml version="1.0" encoding="UTF-8" standalone="no" ?>
<gpx xmlns="http://www.topografix.com/GPX/1/1" xmlns:xsi="http://www.w3.org/2001/XMLSchema-instance" xsi:schemaLocation="http://www.topografix.com/GPX/1/1 http://www.topografix.com/GPX/1/1/gpx.xsd" version="1.1" creator="VisuGPX - https://www.visugpx.com">
  <metadata>
    <name>GR120 du Touquet à Berck-sur-mer</name>
    <desc><![CDATA[sentier littoral]]></desc>
  </metadata>
  <trk>
    <name><![CDATA[2014-09-19-PM]]></name>
    <trkseg>
      <trkpt lat="50.51645" lon="1.57803">
        <ele>12.3</ele>
        <time>2014-09-19T12:48:19Z</time>
      </trkpt>
      <trkpt lat="50.51645" lon="1.57803">
        <ele>12.4</ele>
        <time>2014-09-19T12:48:20Z</time>
      </trkpt>
      <trkpt lat="50.51631" lon="1.57788">
        <ele>13.5</ele>
        <time>2014-09-19T12:48:39Z</time>
      </trkpt>
      <trkpt lat="50.51627" lon="1.57777">
        <ele>13.8</ele>
        <time>2014-09-19T12:48:46Z</time>
      </trkpt>
      <trkpt lat="50.51627" lon="1.57764">
        <ele>14</ele>
        <time>2014-09-19T12:48:53Z</time>
      </trkpt>
      <trkpt lat="50.51628" lon="1.57752">
        <ele>14</ele>
        <time>2014-09-19T12:49:00Z</time>
      </trkpt>
      <trkpt lat="50.51624" lon="1.57741">
        <ele>14.1</ele>
        <time>2014-09-19T12:49:07Z</time>
      </trkpt>
      <trkpt lat="50.51618" lon="1.57731">
        <ele>14.1</ele>
        <time>2014-09-19T12:49:15Z</time>
      </trkpt>
      <trkpt lat="50.51611" lon="1.57725">
        <ele>13.9</ele>
        <time>2014-09-19T12:49:22Z</time>
      </trkpt>
      <trkpt lat="50.5161" lon="1.57724">
        <ele>13.9</ele>
        <time>2014-09-19T12:49:23Z</time>
      </trkpt>
      <trkpt lat="50.51597" lon="1.57715">
        <ele>13.6</ele>
        <time>2014-09-19T12:49:34Z</time>
      </trkpt>
      <trkpt lat="50.51589" lon="1.57712">
        <ele>13.4</ele>
        <time>2014-09-19T12:49:40Z</time>
      </trkpt>
      <trkpt lat="50.51581" lon="1.57708">
        <ele>13.2</ele>
        <time>2014-09-19T12:49:47Z</time>
      </trkpt>
      <trkpt lat="50.51572" lon="1.57703">
        <ele>12.9</ele>
        <time>2014-09-19T12:49:54Z</time>
      </trkpt>
      <trkpt lat="50.51564" lon="1.57699">
        <ele>12.6</ele>
        <time>2014-09-19T12:50:01Z</time>
      </trkpt>
      <trkpt lat="50.51556" lon="1.57698">
        <ele>12.4</ele>
        <time>2014-09-19T12:50:08Z</time>
      </trkpt>
      <trkpt lat="50.51547" lon="1.57694">
        <ele>12.3</ele>
        <time>2014-09-19T12:50:15Z</time>
      </trkpt>
      <trkpt lat="50.51539" lon="1.57691">
        <ele>12.1</ele>
        <time>2014-09-19T12:50:22Z</time>
      </trkpt>
      <trkpt lat="50.51532" lon="1.57685">
        <ele>12</ele>
        <time>2014-09-19T12:50:29Z</time>
      </trkpt>
      <trkpt lat="50.51531" lon="1.57684">
        <ele>11.9</ele>
        <time>2014-09-19T12:50:30Z</time>
      </trkpt>
      <trkpt lat="50.51521" lon="1.57666">
        <ele>11.7</ele>
        <time>2014-09-19T12:50:43Z</time>
      </trkpt>
      <trkpt lat="50.51516" lon="1.57657">
        <ele>11.6</ele>
        <time>2014-09-19T12:50:50Z</time>
      </trkpt>
      <trkpt lat="50.5151" lon="1.57647">
        <ele>11.6</ele>
        <time>2014-09-19T12:50:58Z</time>
      </trkpt>
      <trkpt lat="50.51504" lon="1.57638">
        <ele>11.6</ele>
        <time>2014-09-19T12:51:06Z</time>
      </trkpt>
      <trkpt lat="50.51498" lon="1.57628">
        <ele>11.5</ele>
        <time>2014-09-19T12:51:14Z</time>
      </trkpt>
      <trkpt lat="50.51492" lon="1.57619">
        <ele>11.3</ele>
        <time>2014-09-19T12:51:22Z</time>
      </trkpt>
      <trkpt lat="50.51485" lon="1.57611">
        <ele>11.2</ele>
        <time>2014-09-19T12:51:29Z</time>
      </trkpt>
      <trkpt lat="50.51478" lon="1.57605">
        <ele>11</ele>
        <time>2014-09-19T12:51:35Z</time>
      </trkpt>
      <trkpt lat="50.51477" lon="1.57604">
        <ele>11</ele>
        <time>2014-09-19T12:51:36Z</time>
      </trkpt>
      <trkpt lat="50.51463" lon="1.57603">
        <ele>10.7</ele>
        <time>2014-09-19T12:51:47Z</time>
      </trkpt>
      <trkpt lat="50.51454" lon="1.57603">
        <ele>10.6</ele>
        <time>2014-09-19T12:51:53Z</time>
      </trkpt>
      <trkpt lat="50.51445" lon="1.57603">
        <ele>10.3</ele>
        <time>2014-09-19T12:51:59Z</time>
      </trkpt>
      <trkpt lat="50.51437" lon="1.57603">
        <ele>10</ele>
        <time>2014-09-19T12:52:05Z</time>
      </trkpt>
      <trkpt lat="50.51428" lon="1.57602">
        <ele>9.7</ele>
        <time>2014-09-19T12:52:11Z</time>
      </trkpt>
      <trkpt lat="50.5142" lon="1.57602">
        <ele>9.4</ele>
        <time>2014-09-19T12:52:17Z</time>
      </trkpt>
      <trkpt lat="50.51412" lon="1.57602">
        <ele>9.1</ele>
        <time>2014-09-19T12:52:23Z</time>
      </trkpt>
      <trkpt lat="50.51403" lon="1.57601">
        <ele>8.8</ele>
        <time>2014-09-19T12:52:29Z</time>
      </trkpt>
      <trkpt lat="50.51395" lon="1.57601">
        <ele>8.5</ele>
        <time>2014-09-19T12:52:35Z</time>
      </trkpt>
      <trkpt lat="50.51387" lon="1.57602">
        <ele>8.3</ele>
        <time>2014-09-19T12:52:41Z</time>
      </trkpt>
      <trkpt lat="50.51386" lon="1.57602">
        <ele>8.2</ele>
        <time>2014-09-19T12:52:42Z</time>
      </trkpt>
      <trkpt lat="50.51371" lon="1.57602">
        <ele>7.7</ele>
        <time>2014-09-19T12:52:53Z</time>
      </trkpt>
      <trkpt lat="50.51363" lon="1.57602">
        <ele>7.5</ele>
        <time>2014-09-19T12:52:59Z</time>
      </trkpt>
      <trkpt lat="50.51354" lon="1.57603">
        <ele>7.3</ele>
        <time>2014-09-19T12:53:05Z</time>
      </trkpt>
      <trkpt lat="50.51346" lon="1.57603">
        <ele>7.2</ele>
        <time>2014-09-19T12:53:11Z</time>
      </trkpt>
      <trkpt lat="50.51338" lon="1.57602">
        <ele>7.1</ele>
        <time>2014-09-19T12:53:17Z</time>
      </trkpt>
      <trkpt lat="50.5133" lon="1.57602">
        <ele>7.1</ele>
        <time>2014-09-19T12:53:23Z</time>
      </trkpt>
      <trkpt lat="50.51321" lon="1.57603">
        <ele>7</ele>
        <time>2014-09-19T12:53:29Z</time>
      </trkpt>
      <trkpt lat="50.51313" lon="1.57604">
        <ele>6.8</ele>
        <time>2014-09-19T12:53:35Z</time>
      </trkpt>
      <trkpt lat="50.51306" lon="1.57605">
        <ele>6.8</ele>
        <time>2014-09-19T12:53:41Z</time>
      </trkpt>
      <trkpt lat="50.51298" lon="1.57605">
        <ele>6.7</ele>
        <time>2014-09-19T12:53:47Z</time>
      </trkpt>
      <trkpt lat="50.51296" lon="1.57605">
        <ele>6.7</ele>
        <time>2014-09-19T12:53:48Z</time>
      </trkpt>
      <trkpt lat="50.51282" lon="1.57604">
        <ele>6.7</ele>
        <time>2014-09-19T12:53:59Z</time>
      </trkpt>
      <trkpt lat="50.51274" lon="1.57604">
        <ele>6.7</ele>
        <time>2014-09-19T12:54:05Z</time>
      </trkpt>
      <trkpt lat="50.51265" lon="1.57604">
        <ele>6.6</ele>
        <time>2014-09-19T12:54:11Z</time>
      </trkpt>
      <trkpt lat="50.51257" lon="1.57603">
        <ele>6.6</ele>
        <time>2014-09-19T12:54:17Z</time>
      </trkpt>
      <trkpt lat="50.51248" lon="1.57602">
        <ele>6.5</ele>
        <time>2014-09-19T12:54:23Z</time>
      </trkpt>
      <trkpt lat="50.5124" lon="1.57601">
        <ele>6.4</ele>
        <time>2014-09-19T12:54:29Z</time>
      </trkpt>
      <trkpt lat="50.51232" lon="1.57599">
        <ele>6.3</ele>
        <time>2014-09-19T12:54:35Z</time>
      </trkpt>
      <trkpt lat="50.51224" lon="1.576">
        <ele>6.2</ele>
        <time>2014-09-19T12:54:41Z</time>
      </trkpt>
      <trkpt lat="50.51216" lon="1.57599">
        <ele>6.2</ele>
        <time>2014-09-19T12:54:47Z</time>
      </trkpt>
      <trkpt lat="50.51208" lon="1.576">
        <ele>6.2</ele>
        <time>2014-09-19T12:54:53Z</time>
      </trkpt>
      <trkpt lat="50.51206" lon="1.576">
        <ele>6.2</ele>
        <time>2014-09-19T12:54:54Z</time>
      </trkpt>
      <trkpt lat="50.51191" lon="1.57599">
        <ele>6.1</ele>
        <time>2014-09-19T12:55:05Z</time>
      </trkpt>
      <trkpt lat="50.51183" lon="1.57598">
        <ele>6</ele>
        <time>2014-09-19T12:55:11Z</time>
      </trkpt>
      <trkpt lat="50.51175" lon="1.57597">
        <ele>6</ele>
        <time>2014-09-19T12:55:17Z</time>
      </trkpt>
      <trkpt lat="50.51167" lon="1.57596">
        <ele>6</ele>
        <time>2014-09-19T12:55:23Z</time>
      </trkpt>
      <trkpt lat="50.51159" lon="1.57595">
        <ele>6</ele>
        <time>2014-09-19T12:55:29Z</time>
      </trkpt>
      <trkpt lat="50.51151" lon="1.57595">
        <ele>6</ele>
        <time>2014-09-19T12:55:35Z</time>
      </trkpt>
      <trkpt lat="50.51143" lon="1.57596">
        <ele>5.9</ele>
        <time>2014-09-19T12:55:41Z</time>
      </trkpt>
      <trkpt lat="50.51136" lon="1.57595">
        <ele>5.9</ele>
        <time>2014-09-19T12:55:47Z</time>
      </trkpt>
      <trkpt lat="50.51128" lon="1.57595">
        <ele>5.9</ele>
        <time>2014-09-19T12:55:53Z</time>
      </trkpt>
      <trkpt lat="50.5112" lon="1.57595">
        <ele>5.9</ele>
        <time>2014-09-19T12:55:59Z</time>
      </trkpt>
      <trkpt lat="50.51119" lon="1.57595">
        <ele>5.9</ele>
        <time>2014-09-19T12:56:00Z</time>
      </trkpt>
      <trkpt lat="50.51103" lon="1.57596">
        <ele>3.8</ele>
        <time>2014-09-19T12:56:12Z</time>
      </trkpt>
      <trkpt lat="50.51095" lon="1.57596">
        <ele>2.7</ele>
        <time>2014-09-19T12:56:18Z</time>
      </trkpt>
      <trkpt lat="50.51087" lon="1.57596">
        <ele>2.8</ele>
        <time>2014-09-19T12:56:24Z</time>
      </trkpt>
      <trkpt lat="50.51079" lon="1.57596">
        <ele>2.8</ele>
        <time>2014-09-19T12:56:30Z</time>
      </trkpt>
      <trkpt lat="50.5107" lon="1.57597">
        <ele>2.6</ele>
        <time>2014-09-19T12:56:36Z</time>
      </trkpt>
      <trkpt lat="50.51062" lon="1.57598">
        <ele>2.5</ele>
        <time>2014-09-19T12:56:42Z</time>
      </trkpt>
      <trkpt lat="50.51054" lon="1.57597">
        <ele>2.2</ele>
        <time>2014-09-19T12:56:48Z</time>
      </trkpt>
      <trkpt lat="50.51046" lon="1.57596">
        <ele>2.1</ele>
        <time>2014-09-19T12:56:54Z</time>
      </trkpt>
      <trkpt lat="50.51038" lon="1.57596">
        <ele>3.3</ele>
        <time>2014-09-19T12:57:00Z</time>
      </trkpt>
      <trkpt lat="50.51037" lon="1.57596">
        <ele>3.4</ele>
        <time>2014-09-19T12:57:01Z</time>
      </trkpt>
      <trkpt lat="50.51022" lon="1.57595">
        <ele>2.9</ele>
        <time>2014-09-19T12:57:12Z</time>
      </trkpt>
      <trkpt lat="50.51014" lon="1.57595">
        <ele>2.4</ele>
        <time>2014-09-19T12:57:18Z</time>
      </trkpt>
      <trkpt lat="50.51006" lon="1.57594">
        <ele>2</ele>
        <time>2014-09-19T12:57:24Z</time>
      </trkpt>
      <trkpt lat="50.50998" lon="1.57593">
        <ele>1.9</ele>
        <time>2014-09-19T12:57:30Z</time>
      </trkpt>
      <trkpt lat="50.5099" lon="1.57592">
        <ele>2.5</ele>
        <time>2014-09-19T12:57:36Z</time>
      </trkpt>
      <trkpt lat="50.50982" lon="1.57593">
        <ele>2.7</ele>
        <time>2014-09-19T12:57:42Z</time>
      </trkpt>
      <trkpt lat="50.50974" lon="1.57593">
        <ele>2.8</ele>
        <time>2014-09-19T12:57:48Z</time>
      </trkpt>
      <trkpt lat="50.50966" lon="1.57594">
        <ele>2.4</ele>
        <time>2014-09-19T12:57:54Z</time>
      </trkpt>
      <trkpt lat="50.50958" lon="1.57593">
        <ele>3</ele>
        <time>2014-09-19T12:58:00Z</time>
      </trkpt>
      <trkpt lat="50.5095" lon="1.57591">
        <ele>2.9</ele>
        <time>2014-09-19T12:58:06Z</time>
      </trkpt>
      <trkpt lat="50.50948" lon="1.5759">
        <ele>2.8</ele>
        <time>2014-09-19T12:58:07Z</time>
      </trkpt>
      <trkpt lat="50.50933" lon="1.57588">
        <ele>3.5</ele>
        <time>2014-09-19T12:58:19Z</time>
      </trkpt>
      <trkpt lat="50.50926" lon="1.57582">
        <ele>3.3</ele>
        <time>2014-09-19T12:58:26Z</time>
      </trkpt>
      <trkpt lat="50.50917" lon="1.57581">
        <ele>3.2</ele>
        <time>2014-09-19T12:58:32Z</time>
      </trkpt>
      <trkpt lat="50.50909" lon="1.57582">
        <ele>3.3</ele>
        <time>2014-09-19T12:58:38Z</time>
      </trkpt>
      <trkpt lat="50.50901" lon="1.57583">
        <ele>2.9</ele>
        <time>2014-09-19T12:58:44Z</time>
      </trkpt>
      <trkpt lat="50.50893" lon="1.57583">
        <ele>2.4</ele>
        <time>2014-09-19T12:58:50Z</time>
      </trkpt>
      <trkpt lat="50.50885" lon="1.57584">
        <ele>2.6</ele>
        <time>2014-09-19T12:58:56Z</time>
      </trkpt>
      <trkpt lat="50.50877" lon="1.57586">
        <ele>2.4</ele>
        <time>2014-09-19T12:59:02Z</time>
      </trkpt>
      <trkpt lat="50.50868" lon="1.57588">
        <ele>3.5</ele>
        <time>2014-09-19T12:59:09Z</time>
      </trkpt>
      <trkpt lat="50.50867" lon="1.57588">
        <ele>3.6</ele>
        <time>2014-09-19T12:59:10Z</time>
      </trkpt>
      <trkpt lat="50.50852" lon="1.57592">
        <ele>2.8</ele>
        <time>2014-09-19T12:59:22Z</time>
      </trkpt>
      <trkpt lat="50.50844" lon="1.57595">
        <ele>2.8</ele>
        <time>2014-09-19T12:59:28Z</time>
      </trkpt>
      <trkpt lat="50.50835" lon="1.57597">
        <ele>2.4</ele>
        <time>2014-09-19T12:59:35Z</time>
      </trkpt>
      <trkpt lat="50.50828" lon="1.57596">
        <ele>2.7</ele>
        <time>2014-09-19T12:59:41Z</time>
      </trkpt>
      <trkpt lat="50.5082" lon="1.57595">
        <ele>2.1</ele>
        <time>2014-09-19T12:59:47Z</time>
      </trkpt>
      <trkpt lat="50.50812" lon="1.57594">
        <ele>2.5</ele>
        <time>2014-09-19T12:59:53Z</time>
      </trkpt>
      <trkpt lat="50.50804" lon="1.57593">
        <ele>2.5</ele>
        <time>2014-09-19T12:59:59Z</time>
      </trkpt>
      <trkpt lat="50.50796" lon="1.57592">
        <ele>2.6</ele>
        <time>2014-09-19T13:00:05Z</time>
      </trkpt>
      <trkpt lat="50.50788" lon="1.5759">
        <ele>2.7</ele>
        <time>2014-09-19T13:00:10Z</time>
      </trkpt>
      <trkpt lat="50.50787" lon="1.5759">
        <ele>2.7</ele>
        <time>2014-09-19T13:00:11Z</time>
      </trkpt>
      <trkpt lat="50.50772" lon="1.57589">
        <ele>3.3</ele>
        <time>2014-09-19T13:00:21Z</time>
      </trkpt>
      <trkpt lat="50.50763" lon="1.57589">
        <ele>2.6</ele>
        <time>2014-09-19T13:00:27Z</time>
      </trkpt>
      <trkpt lat="50.50755" lon="1.57589">
        <ele>2.7</ele>
        <time>2014-09-19T13:00:33Z</time>
      </trkpt>
      <trkpt lat="50.50747" lon="1.57589">
        <ele>3.5</ele>
        <time>2014-09-19T13:00:39Z</time>
      </trkpt>
      <trkpt lat="50.50739" lon="1.57589">
        <ele>3.2</ele>
        <time>2014-09-19T13:00:45Z</time>
      </trkpt>
      <trkpt lat="50.50731" lon="1.57589">
        <ele>2.4</ele>
        <time>2014-09-19T13:00:51Z</time>
      </trkpt>
      <trkpt lat="50.50722" lon="1.5759">
        <ele>2</ele>
        <time>2014-09-19T13:00:57Z</time>
      </trkpt>
      <trkpt lat="50.50715" lon="1.57592">
        <ele>3</ele>
        <time>2014-09-19T13:01:03Z</time>
      </trkpt>
      <trkpt lat="50.50706" lon="1.57592">
        <ele>2.9</ele>
        <time>2014-09-19T13:01:09Z</time>
      </trkpt>
      <trkpt lat="50.50698" lon="1.57592">
        <ele>2.8</ele>
        <time>2014-09-19T13:01:15Z</time>
      </trkpt>
      <trkpt lat="50.50697" lon="1.57593">
        <ele>2.8</ele>
        <time>2014-09-19T13:01:16Z</time>
      </trkpt>
      <trkpt lat="50.50682" lon="1.57591">
        <ele>2.5</ele>
        <time>2014-09-19T13:01:27Z</time>
      </trkpt>
      <trkpt lat="50.50674" lon="1.57588">
        <ele>2.4</ele>
        <time>2014-09-19T13:01:33Z</time>
      </trkpt>
      <trkpt lat="50.50665" lon="1.57589">
        <ele>3.1</ele>
        <time>2014-09-19T13:02:03Z</time>
      </trkpt>
      <trkpt lat="50.50658" lon="1.57587">
        <ele>2.5</ele>
        <time>2014-09-19T13:02:09Z</time>
      </trkpt>
      <trkpt lat="50.5065" lon="1.57586">
        <ele>2.4</ele>
        <time>2014-09-19T13:02:15Z</time>
      </trkpt>
      <trkpt lat="50.50641" lon="1.57585">
        <ele>1.9</ele>
        <time>2014-09-19T13:02:21Z</time>
      </trkpt>
      <trkpt lat="50.5064" lon="1.57585">
        <ele>2.1</ele>
        <time>2014-09-19T13:02:22Z</time>
      </trkpt>
      <trkpt lat="50.50625" lon="1.57584">
        <ele>2.2</ele>
        <time>2014-09-19T13:02:33Z</time>
      </trkpt>
      <trkpt lat="50.50617" lon="1.57582">
        <ele>2</ele>
        <time>2014-09-19T13:02:39Z</time>
      </trkpt>
      <trkpt lat="50.50609" lon="1.57579">
        <ele>1.5</ele>
        <time>2014-09-19T13:02:45Z</time>
      </trkpt>
      <trkpt lat="50.50602" lon="1.57575">
        <ele>2.1</ele>
        <time>2014-09-19T13:02:51Z</time>
      </trkpt>
      <trkpt lat="50.50595" lon="1.5757">
        <ele>1.9</ele>
        <time>2014-09-19T13:02:57Z</time>
      </trkpt>
      <trkpt lat="50.50587" lon="1.57566">
        <ele>3.2</ele>
        <time>2014-09-19T13:03:03Z</time>
      </trkpt>
      <trkpt lat="50.50579" lon="1.57563">
        <ele>0.6</ele>
        <time>2014-09-19T13:03:09Z</time>
      </trkpt>
      <trkpt lat="50.50571" lon="1.5756">
        <ele>1.9</ele>
        <time>2014-09-19T13:03:16Z</time>
      </trkpt>
      <trkpt lat="50.50563" lon="1.57552">
        <ele>1.6</ele>
        <time>2014-09-19T13:03:23Z</time>
      </trkpt>
      <trkpt lat="50.50562" lon="1.57551">
        <ele>1.7</ele>
        <time>2014-09-19T13:03:24Z</time>
      </trkpt>
      <trkpt lat="50.50552" lon="1.57535">
        <ele>1</ele>
        <time>2014-09-19T13:03:35Z</time>
      </trkpt>
      <trkpt lat="50.50545" lon="1.57529">
        <ele>1.6</ele>
        <time>2014-09-19T13:03:41Z</time>
      </trkpt>
      <trkpt lat="50.50539" lon="1.57523">
        <ele>2</ele>
        <time>2014-09-19T13:03:47Z</time>
      </trkpt>
      <trkpt lat="50.50531" lon="1.57517">
        <ele>1.2</ele>
        <time>2014-09-19T13:03:53Z</time>
      </trkpt>
      <trkpt lat="50.50524" lon="1.5751">
        <ele>1.4</ele>
        <time>2014-09-19T13:03:59Z</time>
      </trkpt>
      <trkpt lat="50.50517" lon="1.57504">
        <ele>1.4</ele>
        <time>2014-09-19T13:04:05Z</time>
      </trkpt>
      <trkpt lat="50.50511" lon="1.57498">
        <ele>1.2</ele>
        <time>2014-09-19T13:04:11Z</time>
      </trkpt>
      <trkpt lat="50.50503" lon="1.57492">
        <ele>1.6</ele>
        <time>2014-09-19T13:04:17Z</time>
      </trkpt>
      <trkpt lat="50.50496" lon="1.57488">
        <ele>2.5</ele>
        <time>2014-09-19T13:04:23Z</time>
      </trkpt>
      <trkpt lat="50.50489" lon="1.57482">
        <ele>2.4</ele>
        <time>2014-09-19T13:04:29Z</time>
      </trkpt>
      <trkpt lat="50.50488" lon="1.57481">
        <ele>2.3</ele>
        <time>2014-09-19T13:04:30Z</time>
      </trkpt>
      <trkpt lat="50.50475" lon="1.57468">
        <ele>1.5</ele>
        <time>2014-09-19T13:04:41Z</time>
      </trkpt>
      <trkpt lat="50.50468" lon="1.57462">
        <ele>1.8</ele>
        <time>2014-09-19T13:04:47Z</time>
      </trkpt>
      <trkpt lat="50.50461" lon="1.57455">
        <ele>1.1</ele>
        <time>2014-09-19T13:04:53Z</time>
      </trkpt>
      <trkpt lat="50.50454" lon="1.57449">
        <ele>2.4</ele>
        <time>2014-09-19T13:04:59Z</time>
      </trkpt>
      <trkpt lat="50.50447" lon="1.57443">
        <ele>2.1</ele>
        <time>2014-09-19T13:05:05Z</time>
      </trkpt>
      <trkpt lat="50.50439" lon="1.57437">
        <ele>0.8</ele>
        <time>2014-09-19T13:05:11Z</time>
      </trkpt>
      <trkpt lat="50.50432" lon="1.57431">
        <ele>0.6</ele>
        <time>2014-09-19T13:05:17Z</time>
      </trkpt>
      <trkpt lat="50.50424" lon="1.57426">
        <ele>0.9</ele>
        <time>2014-09-19T13:05:23Z</time>
      </trkpt>
      <trkpt lat="50.50417" lon="1.5742">
        <ele>0.6</ele>
        <time>2014-09-19T13:05:29Z</time>
      </trkpt>
      <trkpt lat="50.5041" lon="1.57415">
        <ele>0.5</ele>
        <time>2014-09-19T13:05:35Z</time>
      </trkpt>
      <trkpt lat="50.50408" lon="1.57414">
        <ele>0.7</ele>
        <time>2014-09-19T13:05:36Z</time>
      </trkpt>
      <trkpt lat="50.50394" lon="1.57404">
        <ele>0.4</ele>
        <time>2014-09-19T13:05:47Z</time>
      </trkpt>
      <trkpt lat="50.50387" lon="1.57398">
        <ele>1.4</ele>
        <time>2014-09-19T13:05:53Z</time>
      </trkpt>
      <trkpt lat="50.50379" lon="1.5739">
        <ele>0.3</ele>
        <time>2014-09-19T13:06:00Z</time>
      </trkpt>
      <trkpt lat="50.50372" lon="1.57387">
        <ele>-0.3</ele>
        <time>2014-09-19T13:06:06Z</time>
      </trkpt>
      <trkpt lat="50.50363" lon="1.57382">
        <ele>-0.2</ele>
        <time>2014-09-19T13:06:13Z</time>
      </trkpt>
      <trkpt lat="50.50355" lon="1.57383">
        <ele>0.2</ele>
        <time>2014-09-19T13:06:19Z</time>
      </trkpt>
      <trkpt lat="50.50347" lon="1.57384">
        <ele>0.5</ele>
        <time>2014-09-19T13:06:25Z</time>
      </trkpt>
      <trkpt lat="50.50339" lon="1.57384">
        <ele>0.5</ele>
        <time>2014-09-19T13:06:31Z</time>
      </trkpt>
      <trkpt lat="50.50331" lon="1.57383">
        <ele>-0.5</ele>
        <time>2014-09-19T13:06:37Z</time>
      </trkpt>
      <trkpt lat="50.5033" lon="1.57383">
        <ele>-0.1</ele>
        <time>2014-09-19T13:06:38Z</time>
      </trkpt>
      <trkpt lat="50.50315" lon="1.57379">
        <ele>0.8</ele>
        <time>2014-09-19T13:06:50Z</time>
      </trkpt>
      <trkpt lat="50.50306" lon="1.57375">
        <ele>0.1</ele>
        <time>2014-09-19T13:06:57Z</time>
      </trkpt>
      <trkpt lat="50.50299" lon="1.5737">
        <ele>-0.1</ele>
        <time>2014-09-19T13:07:03Z</time>
      </trkpt>
      <trkpt lat="50.50293" lon="1.57364">
        <ele>0.2</ele>
        <time>2014-09-19T13:07:09Z</time>
      </trkpt>
      <trkpt lat="50.50285" lon="1.57358">
        <ele>-1</ele>
        <time>2014-09-19T13:07:16Z</time>
      </trkpt>
      <trkpt lat="50.50277" lon="1.57354">
        <ele>-0.2</ele>
        <time>2014-09-19T13:07:23Z</time>
      </trkpt>
      <trkpt lat="50.50271" lon="1.57347">
        <ele>-0.7</ele>
        <time>2014-09-19T13:07:33Z</time>
      </trkpt>
      <trkpt lat="50.50264" lon="1.57337">
        <ele>-1.1</ele>
        <time>2014-09-19T13:07:41Z</time>
      </trkpt>
      <trkpt lat="50.50263" lon="1.57336">
        <ele>-1.8</ele>
        <time>2014-09-19T13:07:42Z</time>
      </trkpt>
      <trkpt lat="50.50255" lon="1.57314">
        <ele>-0.1</ele>
        <time>2014-09-19T13:07:56Z</time>
      </trkpt>
      <trkpt lat="50.50251" lon="1.57303">
        <ele>-1.1</ele>
        <time>2014-09-19T13:08:03Z</time>
      </trkpt>
      <trkpt lat="50.50246" lon="1.57293">
        <ele>-0.4</ele>
        <time>2014-09-19T13:08:10Z</time>
      </trkpt>
      <trkpt lat="50.50239" lon="1.57286">
        <ele>0.4</ele>
        <time>2014-09-19T13:08:17Z</time>
      </trkpt>
      <trkpt lat="50.50231" lon="1.5728">
        <ele>1</ele>
        <time>2014-09-19T13:08:24Z</time>
      </trkpt>
      <trkpt lat="50.50224" lon="1.57276">
        <time>2014-09-19T13:08:31Z</time>
      </trkpt>
      <trkpt lat="50.50216" lon="1.57273">
        <ele>0.2</ele>
        <time>2014-09-19T13:08:38Z</time>
      </trkpt>
      <trkpt lat="50.50208" lon="1.57269">
        <ele>0.3</ele>
        <time>2014-09-19T13:08:45Z</time>
      </trkpt>
      <trkpt lat="50.50207" lon="1.57268">
        <ele>0.3</ele>
        <time>2014-09-19T13:08:46Z</time>
      </trkpt>
      <trkpt lat="50.50191" lon="1.57259">
        <ele>0.8</ele>
        <time>2014-09-19T13:08:59Z</time>
      </trkpt>
      <trkpt lat="50.50184" lon="1.57253">
        <ele>0.3</ele>
        <time>2014-09-19T13:09:06Z</time>
      </trkpt>
      <trkpt lat="50.50177" lon="1.57246">
        <time>2014-09-19T13:09:13Z</time>
      </trkpt>
      <trkpt lat="50.50169" lon="1.57239">
        <ele>0.8</ele>
        <time>2014-09-19T13:09:20Z</time>
      </trkpt>
      <trkpt lat="50.50162" lon="1.57233">
        <ele>0.3</ele>
        <time>2014-09-19T13:09:27Z</time>
      </trkpt>
      <trkpt lat="50.50154" lon="1.57228">
        <ele>-0.1</ele>
        <time>2014-09-19T13:09:34Z</time>
      </trkpt>
      <trkpt lat="50.50146" lon="1.57223">
        <ele>1</ele>
        <time>2014-09-19T13:09:41Z</time>
      </trkpt>
      <trkpt lat="50.50138" lon="1.57218">
        <ele>-0.4</ele>
        <time>2014-09-19T13:09:48Z</time>
      </trkpt>
      <trkpt lat="50.50137" lon="1.57217">
        <ele>-0.4</ele>
        <time>2014-09-19T13:09:49Z</time>
      </trkpt>
      <trkpt lat="50.50123" lon="1.57208">
        <ele>0.2</ele>
        <time>2014-09-19T13:10:00Z</time>
      </trkpt>
      <trkpt lat="50.50116" lon="1.57203">
        <ele>-0.4</ele>
        <time>2014-09-19T13:10:06Z</time>
      </trkpt>
      <trkpt lat="50.50109" lon="1.57198">
        <ele>0.1</ele>
        <time>2014-09-19T13:10:12Z</time>
      </trkpt>
      <trkpt lat="50.50101" lon="1.57193">
        <ele>-0.3</ele>
        <time>2014-09-19T13:10:18Z</time>
      </trkpt>
      <trkpt lat="50.50094" lon="1.57188">
        <ele>-0.5</ele>
        <time>2014-09-19T13:10:24Z</time>
      </trkpt>
      <trkpt lat="50.50087" lon="1.57182">
        <ele>-0.5</ele>
        <time>2014-09-19T13:10:30Z</time>
      </trkpt>
      <trkpt lat="50.5008" lon="1.57175">
        <ele>-0.4</ele>
        <time>2014-09-19T13:10:36Z</time>
      </trkpt>
      <trkpt lat="50.50073" lon="1.57169">
        <ele>-0.9</ele>
        <time>2014-09-19T13:10:42Z</time>
      </trkpt>
      <trkpt lat="50.50066" lon="1.57162">
        <ele>-1</ele>
        <time>2014-09-19T13:10:49Z</time>
      </trkpt>
      <trkpt lat="50.50064" lon="1.57161">
        <ele>-0.7</ele>
        <time>2014-09-19T13:10:50Z</time>
      </trkpt>
      <trkpt lat="50.5005" lon="1.57154">
        <ele>-0.4</ele>
        <time>2014-09-19T13:11:02Z</time>
      </trkpt>
      <trkpt lat="50.50042" lon="1.57151">
        <ele>-0.3</ele>
        <time>2014-09-19T13:11:08Z</time>
      </trkpt>
      <trkpt lat="50.50034" lon="1.57149">
        <ele>-1.1</ele>
        <time>2014-09-19T13:11:14Z</time>
      </trkpt>
      <trkpt lat="50.50026" lon="1.57148">
        <ele>-0.5</ele>
        <time>2014-09-19T13:11:20Z</time>
      </trkpt>
      <trkpt lat="50.50017" lon="1.57146">
        <ele>-1.5</ele>
        <time>2014-09-19T13:11:27Z</time>
      </trkpt>
      <trkpt lat="50.50008" lon="1.57145">
        <ele>-0.4</ele>
        <time>2014-09-19T13:11:34Z</time>
      </trkpt>
      <trkpt lat="50.5" lon="1.57144">
        <ele>-0.5</ele>
        <time>2014-09-19T13:11:41Z</time>
      </trkpt>
      <trkpt lat="50.49992" lon="1.57143">
        <ele>-0.4</ele>
        <time>2014-09-19T13:11:47Z</time>
      </trkpt>
      <trkpt lat="50.49984" lon="1.57143">
        <ele>-1.2</ele>
        <time>2014-09-19T13:11:53Z</time>
      </trkpt>
      <trkpt lat="50.49983" lon="1.57142">
        <ele>-1.4</ele>
        <time>2014-09-19T13:11:54Z</time>
      </trkpt>
      <trkpt lat="50.49968" lon="1.57142">
        <ele>-0.7</ele>
        <time>2014-09-19T13:12:06Z</time>
      </trkpt>
      <trkpt lat="50.4996" lon="1.57142">
        <ele>-0.5</ele>
        <time>2014-09-19T13:12:12Z</time>
      </trkpt>
      <trkpt lat="50.49951" lon="1.57144">
        <ele>-0.6</ele>
        <time>2014-09-19T13:12:19Z</time>
      </trkpt>
      <trkpt lat="50.49942" lon="1.57145">
        <ele>-0.9</ele>
        <time>2014-09-19T13:12:26Z</time>
      </trkpt>
      <trkpt lat="50.49934" lon="1.57147">
        <time>2014-09-19T13:12:33Z</time>
      </trkpt>
      <trkpt lat="50.49925" lon="1.57147">
        <ele>-0.6</ele>
        <time>2014-09-19T13:12:40Z</time>
      </trkpt>
      <trkpt lat="50.49917" lon="1.57147">
        <ele>-0.5</ele>
        <time>2014-09-19T13:12:46Z</time>
      </trkpt>
      <trkpt lat="50.49909" lon="1.57147">
        <ele>0.2</ele>
        <time>2014-09-19T13:12:52Z</time>
      </trkpt>
      <trkpt lat="50.49901" lon="1.57147">
        <ele>-1.2</ele>
        <time>2014-09-19T13:12:59Z</time>
      </trkpt>
      <trkpt lat="50.499" lon="1.57147">
        <ele>-1.2</ele>
        <time>2014-09-19T13:13:00Z</time>
      </trkpt>
      <trkpt lat="50.49884" lon="1.5715">
        <ele>-0.8</ele>
        <time>2014-09-19T13:13:13Z</time>
      </trkpt>
      <trkpt lat="50.49875" lon="1.57152">
        <ele>-0.8</ele>
        <time>2014-09-19T13:13:21Z</time>
      </trkpt>
      <trkpt lat="50.49867" lon="1.57154">
        <ele>-1.2</ele>
        <time>2014-09-19T13:13:29Z</time>
      </trkpt>
      <trkpt lat="50.49859" lon="1.57154">
        <ele>-0.4</ele>
        <time>2014-09-19T13:13:36Z</time>
      </trkpt>
      <trkpt lat="50.49851" lon="1.57152">
        <ele>-1.2</ele>
        <time>2014-09-19T13:13:43Z</time>
      </trkpt>
      <trkpt lat="50.49842" lon="1.57152">
        <ele>-1.3</ele>
        <time>2014-09-19T13:14:01Z</time>
      </trkpt>
      <trkpt lat="50.49841" lon="1.57152">
        <ele>-1.3</ele>
        <time>2014-09-19T13:14:02Z</time>
      </trkpt>
      <trkpt lat="50.49825" lon="1.57155">
        <ele>-1.6</ele>
        <time>2014-09-19T13:14:16Z</time>
      </trkpt>
      <trkpt lat="50.49816" lon="1.57155">
        <ele>-1.1</ele>
        <time>2014-09-19T13:14:23Z</time>
      </trkpt>
      <trkpt lat="50.49808" lon="1.57154">
        <ele>-1.1</ele>
        <time>2014-09-19T13:14:30Z</time>
      </trkpt>
      <trkpt lat="50.49799" lon="1.57155">
        <ele>-0.5</ele>
        <time>2014-09-19T13:14:37Z</time>
      </trkpt>
      <trkpt lat="50.4979" lon="1.57154">
        <ele>-1.1</ele>
        <time>2014-09-19T13:14:44Z</time>
      </trkpt>
      <trkpt lat="50.49781" lon="1.57154">
        <ele>-1.1</ele>
        <time>2014-09-19T13:14:51Z</time>
      </trkpt>
      <trkpt lat="50.49773" lon="1.57155">
        <ele>-0.7</ele>
        <time>2014-09-19T13:14:58Z</time>
      </trkpt>
      <trkpt lat="50.49764" lon="1.57156">
        <ele>-1.2</ele>
        <time>2014-09-19T13:15:05Z</time>
      </trkpt>
      <trkpt lat="50.49763" lon="1.57156">
        <ele>-1.2</ele>
        <time>2014-09-19T13:15:06Z</time>
      </trkpt>
      <trkpt lat="50.49746" lon="1.57158">
        <ele>-0.8</ele>
        <time>2014-09-19T13:15:19Z</time>
      </trkpt>
      <trkpt lat="50.49739" lon="1.57158">
        <ele>-1.2</ele>
        <time>2014-09-19T13:15:25Z</time>
      </trkpt>
      <trkpt lat="50.4973" lon="1.57158">
        <ele>-0.8</ele>
        <time>2014-09-19T13:15:32Z</time>
      </trkpt>
      <trkpt lat="50.49721" lon="1.57159">
        <ele>-1.2</ele>
        <time>2014-09-19T13:15:39Z</time>
      </trkpt>
      <trkpt lat="50.49712" lon="1.5716">
        <ele>-1.3</ele>
        <time>2014-09-19T13:15:46Z</time>
      </trkpt>
      <trkpt lat="50.49703" lon="1.57162">
        <ele>-1.1</ele>
        <time>2014-09-19T13:15:53Z</time>
      </trkpt>
      <trkpt lat="50.49695" lon="1.57163">
        <ele>-1.1</ele>
        <time>2014-09-19T13:16:00Z</time>
      </trkpt>
      <trkpt lat="50.49686" lon="1.57164">
        <ele>-0.8</ele>
        <time>2014-09-19T13:16:07Z</time>
      </trkpt>
      <trkpt lat="50.49685" lon="1.57164">
        <ele>-0.7</ele>
        <time>2014-09-19T13:16:08Z</time>
      </trkpt>
      <trkpt lat="50.4967" lon="1.57166">
        <ele>-1.2</ele>
        <time>2014-09-19T13:16:19Z</time>
      </trkpt>
      <trkpt lat="50.49662" lon="1.57166">
        <ele>-1</ele>
        <time>2014-09-19T13:16:25Z</time>
      </trkpt>
      <trkpt lat="50.49654" lon="1.57166">
        <ele>-1</ele>
        <time>2014-09-19T13:16:31Z</time>
      </trkpt>
      <trkpt lat="50.49646" lon="1.57165">
        <ele>-1.2</ele>
        <time>2014-09-19T13:16:37Z</time>
      </trkpt>
      <trkpt lat="50.49637" lon="1.57165">
        <ele>-1.3</ele>
        <time>2014-09-19T13:16:44Z</time>
      </trkpt>
      <trkpt lat="50.49628" lon="1.57165">
        <ele>-0.5</ele>
        <time>2014-09-19T13:16:52Z</time>
      </trkpt>
      <trkpt lat="50.4962" lon="1.57165">
        <ele>-1.1</ele>
        <time>2014-09-19T13:16:58Z</time>
      </trkpt>
      <trkpt lat="50.49612" lon="1.57165">
        <ele>-1.9</ele>
        <time>2014-09-19T13:17:04Z</time>
      </trkpt>
      <trkpt lat="50.49605" lon="1.57164">
        <ele>-1.7</ele>
        <time>2014-09-19T13:17:10Z</time>
      </trkpt>
      <trkpt lat="50.49603" lon="1.57164">
        <ele>-1.6</ele>
        <time>2014-09-19T13:17:11Z</time>
      </trkpt>
      <trkpt lat="50.49588" lon="1.57164">
        <ele>-1.9</ele>
        <time>2014-09-19T13:17:23Z</time>
      </trkpt>
      <trkpt lat="50.49579" lon="1.57163">
        <ele>-1.2</ele>
        <time>2014-09-19T13:17:30Z</time>
      </trkpt>
      <trkpt lat="50.49571" lon="1.5716">
        <ele>-1.5</ele>
        <time>2014-09-19T13:17:36Z</time>
      </trkpt>
      <trkpt lat="50.49563" lon="1.57158">
        <ele>-1.1</ele>
        <time>2014-09-19T13:18:24Z</time>
      </trkpt>
      <trkpt lat="50.49562" lon="1.57157">
        <ele>-1.1</ele>
        <time>2014-09-19T13:18:25Z</time>
      </trkpt>
      <trkpt lat="50.49546" lon="1.57153">
        <ele>-1.7</ele>
        <time>2014-09-19T13:18:37Z</time>
      </trkpt>
      <trkpt lat="50.49538" lon="1.57151">
        <ele>-1.7</ele>
        <time>2014-09-19T13:18:43Z</time>
      </trkpt>
      <trkpt lat="50.4953" lon="1.5715">
        <ele>-1.4</ele>
        <time>2014-09-19T13:18:49Z</time>
      </trkpt>
      <trkpt lat="50.49522" lon="1.57149">
        <ele>-2</ele>
        <time>2014-09-19T13:18:55Z</time>
      </trkpt>
      <trkpt lat="50.49514" lon="1.57148">
        <ele>-1.9</ele>
        <time>2014-09-19T13:19:01Z</time>
      </trkpt>
      <trkpt lat="50.49508" lon="1.57139">
        <ele>-1.8</ele>
        <time>2014-09-19T13:19:11Z</time>
      </trkpt>
      <trkpt lat="50.495" lon="1.57135">
        <ele>-1.3</ele>
        <time>2014-09-19T13:19:19Z</time>
      </trkpt>
      <trkpt lat="50.49492" lon="1.57135">
        <ele>-0.7</ele>
        <time>2014-09-19T13:19:25Z</time>
      </trkpt>
      <trkpt lat="50.4949" lon="1.57135">
        <ele>-0.9</ele>
        <time>2014-09-19T13:19:26Z</time>
      </trkpt>
      <trkpt lat="50.49475" lon="1.57136">
        <ele>-1.3</ele>
        <time>2014-09-19T13:19:37Z</time>
      </trkpt>
      <trkpt lat="50.49468" lon="1.57136">
        <ele>-3.2</ele>
        <time>2014-09-19T13:19:43Z</time>
      </trkpt>
      <trkpt lat="50.49459" lon="1.57136">
        <ele>-1.6</ele>
        <time>2014-09-19T13:19:50Z</time>
      </trkpt>
      <trkpt lat="50.49451" lon="1.57135">
        <ele>-0.5</ele>
        <time>2014-09-19T13:19:56Z</time>
      </trkpt>
      <trkpt lat="50.49443" lon="1.57134">
        <ele>-1.5</ele>
        <time>2014-09-19T13:20:02Z</time>
      </trkpt>
      <trkpt lat="50.49435" lon="1.57132">
        <ele>-1.3</ele>
        <time>2014-09-19T13:20:08Z</time>
      </trkpt>
      <trkpt lat="50.49426" lon="1.57131">
        <ele>-1.2</ele>
        <time>2014-09-19T13:20:14Z</time>
      </trkpt>
      <trkpt lat="50.49418" lon="1.5713">
        <ele>-1.3</ele>
        <time>2014-09-19T13:20:20Z</time>
      </trkpt>
      <trkpt lat="50.49409" lon="1.57129">
        <ele>-1.7</ele>
        <time>2014-09-19T13:20:26Z</time>
      </trkpt>
      <trkpt lat="50.49408" lon="1.57129">
        <ele>-1.8</ele>
        <time>2014-09-19T13:20:27Z</time>
      </trkpt>
      <trkpt lat="50.49393" lon="1.57126">
        <ele>-2.1</ele>
        <time>2014-09-19T13:20:38Z</time>
      </trkpt>
      <trkpt lat="50.49385" lon="1.57125">
        <ele>-1.6</ele>
        <time>2014-09-19T13:20:44Z</time>
      </trkpt>
      <trkpt lat="50.49376" lon="1.57123">
        <ele>-1.5</ele>
        <time>2014-09-19T13:20:50Z</time>
      </trkpt>
      <trkpt lat="50.49368" lon="1.57121">
        <ele>-1.9</ele>
        <time>2014-09-19T13:20:56Z</time>
      </trkpt>
      <trkpt lat="50.4936" lon="1.57119">
        <ele>-1.6</ele>
        <time>2014-09-19T13:21:02Z</time>
      </trkpt>
      <trkpt lat="50.49351" lon="1.57118">
        <ele>-0.7</ele>
        <time>2014-09-19T13:21:08Z</time>
      </trkpt>
      <trkpt lat="50.49343" lon="1.57118">
        <ele>-2</ele>
        <time>2014-09-19T13:21:14Z</time>
      </trkpt>
      <trkpt lat="50.49334" lon="1.57118">
        <ele>-2.4</ele>
        <time>2014-09-19T13:21:21Z</time>
      </trkpt>
      <trkpt lat="50.49326" lon="1.57117">
        <ele>-1.8</ele>
        <time>2014-09-19T13:21:27Z</time>
      </trkpt>
      <trkpt lat="50.49325" lon="1.57117">
        <ele>-1.9</ele>
        <time>2014-09-19T13:21:28Z</time>
      </trkpt>
      <trkpt lat="50.4931" lon="1.57117">
        <ele>-1.7</ele>
        <time>2014-09-19T13:21:39Z</time>
      </trkpt>
      <trkpt lat="50.49302" lon="1.57116">
        <ele>-1.8</ele>
        <time>2014-09-19T13:21:45Z</time>
      </trkpt>
      <trkpt lat="50.49294" lon="1.57116">
        <ele>-0.9</ele>
        <time>2014-09-19T13:21:51Z</time>
      </trkpt>
      <trkpt lat="50.49286" lon="1.57116">
        <ele>-1.3</ele>
        <time>2014-09-19T13:21:57Z</time>
      </trkpt>
      <trkpt lat="50.49278" lon="1.57116">
        <ele>-1.3</ele>
        <time>2014-09-19T13:22:03Z</time>
      </trkpt>
      <trkpt lat="50.49271" lon="1.57116">
        <ele>-1.7</ele>
        <time>2014-09-19T13:22:09Z</time>
      </trkpt>
      <trkpt lat="50.49263" lon="1.57114">
        <ele>-1.8</ele>
        <time>2014-09-19T13:22:15Z</time>
      </trkpt>
      <trkpt lat="50.49255" lon="1.57113">
        <ele>-2.1</ele>
        <time>2014-09-19T13:22:21Z</time>
      </trkpt>
      <trkpt lat="50.49247" lon="1.57111">
        <ele>-1.4</ele>
        <time>2014-09-19T13:22:27Z</time>
      </trkpt>
      <trkpt lat="50.49239" lon="1.5711">
        <ele>-1.3</ele>
        <time>2014-09-19T13:22:33Z</time>
      </trkpt>
      <trkpt lat="50.49238" lon="1.5711">
        <ele>-1.3</ele>
        <time>2014-09-19T13:22:34Z</time>
      </trkpt>
      <trkpt lat="50.49222" lon="1.57108">
        <ele>-1.3</ele>
        <time>2014-09-19T13:22:46Z</time>
      </trkpt>
      <trkpt lat="50.49213" lon="1.57109">
        <ele>-1.3</ele>
        <time>2014-09-19T13:22:53Z</time>
      </trkpt>
      <trkpt lat="50.49205" lon="1.57108">
        <ele>-1.3</ele>
        <time>2014-09-19T13:23:00Z</time>
      </trkpt>
      <trkpt lat="50.49196" lon="1.57105">
        <ele>-0.6</ele>
        <time>2014-09-19T13:23:07Z</time>
      </trkpt>
      <trkpt lat="50.49187" lon="1.57104">
        <ele>-1.7</ele>
        <time>2014-09-19T13:23:14Z</time>
      </trkpt>
      <trkpt lat="50.49179" lon="1.57103">
        <ele>-1.3</ele>
        <time>2014-09-19T13:23:21Z</time>
      </trkpt>
      <trkpt lat="50.4917" lon="1.57102">
        <ele>-1.3</ele>
        <time>2014-09-19T13:23:28Z</time>
      </trkpt>
      <trkpt lat="50.49162" lon="1.57102">
        <ele>-1.3</ele>
        <time>2014-09-19T13:23:34Z</time>
      </trkpt>
      <trkpt lat="50.49161" lon="1.57102">
        <ele>-1.3</ele>
        <time>2014-09-19T13:23:35Z</time>
      </trkpt>
      <trkpt lat="50.49147" lon="1.57107">
        <ele>-1.7</ele>
        <time>2014-09-19T13:23:47Z</time>
      </trkpt>
      <trkpt lat="50.49138" lon="1.57107">
        <ele>-1.3</ele>
        <time>2014-09-19T13:23:54Z</time>
      </trkpt>
      <trkpt lat="50.4913" lon="1.57107">
        <ele>-1.7</ele>
        <time>2014-09-19T13:24:00Z</time>
      </trkpt>
      <trkpt lat="50.49122" lon="1.57108">
        <ele>-1.3</ele>
        <time>2014-09-19T13:24:06Z</time>
      </trkpt>
      <trkpt lat="50.49114" lon="1.57107">
        <ele>-1.1</ele>
        <time>2014-09-19T13:24:12Z</time>
      </trkpt>
      <trkpt lat="50.49106" lon="1.57107">
        <ele>-1.4</ele>
        <time>2014-09-19T13:24:19Z</time>
      </trkpt>
      <trkpt lat="50.49097" lon="1.57108">
        <ele>-1.1</ele>
        <time>2014-09-19T13:24:26Z</time>
      </trkpt>
      <trkpt lat="50.49089" lon="1.57109">
        <ele>-0.7</ele>
        <time>2014-09-19T13:24:32Z</time>
      </trkpt>
      <trkpt lat="50.49081" lon="1.5711">
        <ele>-1.3</ele>
        <time>2014-09-19T13:24:38Z</time>
      </trkpt>
      <trkpt lat="50.4908" lon="1.5711">
        <ele>-1.3</ele>
        <time>2014-09-19T13:24:39Z</time>
      </trkpt>
      <trkpt lat="50.49066" lon="1.57113">
        <ele>-0.9</ele>
        <time>2014-09-19T13:24:50Z</time>
      </trkpt>
      <trkpt lat="50.49058" lon="1.57115">
        <ele>-1.3</ele>
        <time>2014-09-19T13:24:56Z</time>
      </trkpt>
      <trkpt lat="50.4905" lon="1.57116">
        <ele>-1.2</ele>
        <time>2014-09-19T13:25:02Z</time>
      </trkpt>
      <trkpt lat="50.49043" lon="1.57119">
        <ele>-0.9</ele>
        <time>2014-09-19T13:25:08Z</time>
      </trkpt>
      <trkpt lat="50.49035" lon="1.57122">
        <ele>-1.3</ele>
        <time>2014-09-19T13:25:14Z</time>
      </trkpt>
      <trkpt lat="50.49026" lon="1.57123">
        <ele>-1.3</ele>
        <time>2014-09-19T13:25:21Z</time>
      </trkpt>
      <trkpt lat="50.49018" lon="1.57125">
        <ele>-1.3</ele>
        <time>2014-09-19T13:25:28Z</time>
      </trkpt>
      <trkpt lat="50.49009" lon="1.57126">
        <ele>-1.3</ele>
        <time>2014-09-19T13:25:35Z</time>
      </trkpt>
      <trkpt lat="50.49" lon="1.57127">
        <ele>-1.5</ele>
        <time>2014-09-19T13:25:42Z</time>
      </trkpt>
      <trkpt lat="50.48999" lon="1.57127">
        <ele>-1.5</ele>
        <time>2014-09-19T13:25:43Z</time>
      </trkpt>
      <trkpt lat="50.48982" lon="1.5713">
        <ele>-1.7</ele>
        <time>2014-09-19T13:25:56Z</time>
      </trkpt>
      <trkpt lat="50.48975" lon="1.57131">
        <ele>-1</ele>
        <time>2014-09-19T13:26:02Z</time>
      </trkpt>
      <trkpt lat="50.48967" lon="1.57132">
        <ele>-1.2</ele>
        <time>2014-09-19T13:26:08Z</time>
      </trkpt>
      <trkpt lat="50.48959" lon="1.57133">
        <ele>-1.3</ele>
        <time>2014-09-19T13:26:14Z</time>
      </trkpt>
      <trkpt lat="50.48951" lon="1.57134">
        <ele>-1.3</ele>
        <time>2014-09-19T13:26:20Z</time>
      </trkpt>
      <trkpt lat="50.48942" lon="1.57136">
        <ele>-1.3</ele>
        <time>2014-09-19T13:26:27Z</time>
      </trkpt>
      <trkpt lat="50.48934" lon="1.57138">
        <ele>-1</ele>
        <time>2014-09-19T13:26:33Z</time>
      </trkpt>
      <trkpt lat="50.48926" lon="1.57139">
        <ele>-1.3</ele>
        <time>2014-09-19T13:26:40Z</time>
      </trkpt>
      <trkpt lat="50.48918" lon="1.57136">
        <ele>-1.1</ele>
        <time>2014-09-19T13:26:46Z</time>
      </trkpt>
      <trkpt lat="50.48916" lon="1.57135">
        <ele>-1.1</ele>
        <time>2014-09-19T13:26:47Z</time>
      </trkpt>
      <trkpt lat="50.48901" lon="1.57135">
        <ele>-1.3</ele>
        <time>2014-09-19T13:26:59Z</time>
      </trkpt>
      <trkpt lat="50.48892" lon="1.57135">
        <ele>-1.9</ele>
        <time>2014-09-19T13:27:06Z</time>
      </trkpt>
      <trkpt lat="50.48884" lon="1.57135">
        <ele>-1.5</ele>
        <time>2014-09-19T13:27:12Z</time>
      </trkpt>
      <trkpt lat="50.48877" lon="1.57135">
        <ele>-1.1</ele>
        <time>2014-09-19T13:27:18Z</time>
      </trkpt>
      <trkpt lat="50.48868" lon="1.57135">
        <ele>-0.6</ele>
        <time>2014-09-19T13:27:25Z</time>
      </trkpt>
      <trkpt lat="50.4886" lon="1.57135">
        <ele>-0.5</ele>
        <time>2014-09-19T13:27:31Z</time>
      </trkpt>
      <trkpt lat="50.48852" lon="1.57135">
        <ele>-1.2</ele>
        <time>2014-09-19T13:27:37Z</time>
      </trkpt>
      <trkpt lat="50.48843" lon="1.57136">
        <ele>-1.1</ele>
        <time>2014-09-19T13:27:44Z</time>
      </trkpt>
      <trkpt lat="50.48835" lon="1.57138">
        <ele>-1.5</ele>
        <time>2014-09-19T13:27:51Z</time>
      </trkpt>
      <trkpt lat="50.48833" lon="1.57138">
        <ele>-1.5</ele>
        <time>2014-09-19T13:27:52Z</time>
      </trkpt>
      <trkpt lat="50.48819" lon="1.57142">
        <ele>-1.3</ele>
        <time>2014-09-19T13:28:03Z</time>
      </trkpt>
      <trkpt lat="50.4881" lon="1.57145">
        <ele>-1.5</ele>
        <time>2014-09-19T13:28:10Z</time>
      </trkpt>
      <trkpt lat="50.48802" lon="1.57143">
        <ele>-1.2</ele>
        <time>2014-09-19T13:28:18Z</time>
      </trkpt>
      <trkpt lat="50.48794" lon="1.57137">
        <ele>-1.7</ele>
        <time>2014-09-19T13:28:26Z</time>
      </trkpt>
      <trkpt lat="50.48786" lon="1.57133">
        <ele>-1.5</ele>
        <time>2014-09-19T13:28:34Z</time>
      </trkpt>
      <trkpt lat="50.48777" lon="1.5713">
        <ele>-1.3</ele>
        <time>2014-09-19T13:28:41Z</time>
      </trkpt>
      <trkpt lat="50.48769" lon="1.5713">
        <ele>-1.3</ele>
        <time>2014-09-19T13:28:48Z</time>
      </trkpt>
      <trkpt lat="50.48761" lon="1.5713">
        <ele>-1.3</ele>
        <time>2014-09-19T13:28:54Z</time>
      </trkpt>
      <trkpt lat="50.4876" lon="1.5713">
        <ele>-1.3</ele>
        <time>2014-09-19T13:28:55Z</time>
      </trkpt>
      <trkpt lat="50.48745" lon="1.57128">
        <ele>-1.4</ele>
        <time>2014-09-19T13:29:06Z</time>
      </trkpt>
      <trkpt lat="50.48738" lon="1.57128">
        <ele>-1</ele>
        <time>2014-09-19T13:29:12Z</time>
      </trkpt>
      <trkpt lat="50.4873" lon="1.57129">
        <ele>-1.3</ele>
        <time>2014-09-19T13:29:18Z</time>
      </trkpt>
      <trkpt lat="50.48722" lon="1.5713">
        <ele>-1.9</ele>
        <time>2014-09-19T13:29:24Z</time>
      </trkpt>
      <trkpt lat="50.48714" lon="1.5713">
        <ele>-1.4</ele>
        <time>2014-09-19T13:29:30Z</time>
      </trkpt>
      <trkpt lat="50.48706" lon="1.5713">
        <ele>-1.4</ele>
        <time>2014-09-19T13:29:36Z</time>
      </trkpt>
      <trkpt lat="50.48698" lon="1.57131">
        <ele>-1.3</ele>
        <time>2014-09-19T13:29:42Z</time>
      </trkpt>
      <trkpt lat="50.4869" lon="1.57131">
        <ele>-2.2</ele>
        <time>2014-09-19T13:29:48Z</time>
      </trkpt>
      <trkpt lat="50.48682" lon="1.57132">
        <ele>-2.2</ele>
        <time>2014-09-19T13:29:54Z</time>
      </trkpt>
      <trkpt lat="50.48674" lon="1.57134">
        <ele>-2.1</ele>
        <time>2014-09-19T13:30:01Z</time>
      </trkpt>
      <trkpt lat="50.48673" lon="1.57134">
        <ele>-2.1</ele>
        <time>2014-09-19T13:30:02Z</time>
      </trkpt>
      <trkpt lat="50.48658" lon="1.57135">
        <ele>-1.4</ele>
        <time>2014-09-19T13:30:13Z</time>
      </trkpt>
      <trkpt lat="50.4865" lon="1.57136">
        <ele>-2</ele>
        <time>2014-09-19T13:30:19Z</time>
      </trkpt>
      <trkpt lat="50.48642" lon="1.57137">
        <ele>-1.4</ele>
        <time>2014-09-19T13:30:25Z</time>
      </trkpt>
      <trkpt lat="50.48633" lon="1.57138">
        <ele>-1.5</ele>
        <time>2014-09-19T13:30:31Z</time>
      </trkpt>
      <trkpt lat="50.48625" lon="1.57141">
        <ele>-2</ele>
        <time>2014-09-19T13:30:37Z</time>
      </trkpt>
      <trkpt lat="50.48617" lon="1.57143">
        <ele>-1.6</ele>
        <time>2014-09-19T13:30:43Z</time>
      </trkpt>
      <trkpt lat="50.48609" lon="1.57144">
        <ele>-1.8</ele>
        <time>2014-09-19T13:30:49Z</time>
      </trkpt>
      <trkpt lat="50.48601" lon="1.57146">
        <ele>-1.4</ele>
        <time>2014-09-19T13:30:55Z</time>
      </trkpt>
      <trkpt lat="50.48593" lon="1.57147">
        <ele>-1.5</ele>
        <time>2014-09-19T13:31:01Z</time>
      </trkpt>
      <trkpt lat="50.48585" lon="1.57148">
        <ele>-2.7</ele>
        <time>2014-09-19T13:31:07Z</time>
      </trkpt>
      <trkpt lat="50.48584" lon="1.57148">
        <ele>-2.4</ele>
        <time>2014-09-19T13:31:08Z</time>
      </trkpt>
      <trkpt lat="50.4857" lon="1.57154">
        <ele>-2.4</ele>
        <time>2014-09-19T13:31:19Z</time>
      </trkpt>
      <trkpt lat="50.48562" lon="1.57158">
        <ele>-1.7</ele>
        <time>2014-09-19T13:31:25Z</time>
      </trkpt>
      <trkpt lat="50.48555" lon="1.57162">
        <ele>-1.6</ele>
        <time>2014-09-19T13:31:31Z</time>
      </trkpt>
      <trkpt lat="50.48547" lon="1.57166">
        <ele>-1.3</ele>
        <time>2014-09-19T13:31:37Z</time>
      </trkpt>
      <trkpt lat="50.4854" lon="1.5717">
        <ele>-1.5</ele>
        <time>2014-09-19T13:31:43Z</time>
      </trkpt>
      <trkpt lat="50.48532" lon="1.57173">
        <ele>-1.5</ele>
        <time>2014-09-19T13:31:49Z</time>
      </trkpt>
      <trkpt lat="50.48524" lon="1.57176">
        <ele>-2</ele>
        <time>2014-09-19T13:31:55Z</time>
      </trkpt>
      <trkpt lat="50.48516" lon="1.57179">
        <ele>-0.9</ele>
        <time>2014-09-19T13:32:01Z</time>
      </trkpt>
      <trkpt lat="50.48509" lon="1.57182">
        <ele>-1.2</ele>
        <time>2014-09-19T13:32:07Z</time>
      </trkpt>
      <trkpt lat="50.48501" lon="1.57184">
        <ele>-1.3</ele>
        <time>2014-09-19T13:32:13Z</time>
      </trkpt>
      <trkpt lat="50.485" lon="1.57185">
        <ele>-1.5</ele>
        <time>2014-09-19T13:32:14Z</time>
      </trkpt>
      <trkpt lat="50.48485" lon="1.57189">
        <ele>-1.3</ele>
        <time>2014-09-19T13:32:25Z</time>
      </trkpt>
      <trkpt lat="50.48477" lon="1.57192">
        <ele>-2.3</ele>
        <time>2014-09-19T13:32:31Z</time>
      </trkpt>
      <trkpt lat="50.48469" lon="1.57193">
        <ele>-1.7</ele>
        <time>2014-09-19T13:32:37Z</time>
      </trkpt>
      <trkpt lat="50.48461" lon="1.57195">
        <ele>-1.4</ele>
        <time>2014-09-19T13:32:43Z</time>
      </trkpt>
      <trkpt lat="50.48453" lon="1.57196">
        <ele>-0.9</ele>
        <time>2014-09-19T13:32:49Z</time>
      </trkpt>
      <trkpt lat="50.48445" lon="1.57195">
        <ele>-1.7</ele>
        <time>2014-09-19T13:32:55Z</time>
      </trkpt>
      <trkpt lat="50.48438" lon="1.57193">
        <ele>-1.4</ele>
        <time>2014-09-19T13:33:01Z</time>
      </trkpt>
      <trkpt lat="50.48429" lon="1.5719">
        <ele>-2</ele>
        <time>2014-09-19T13:33:07Z</time>
      </trkpt>
      <trkpt lat="50.48422" lon="1.57188">
        <ele>-1.4</ele>
        <time>2014-09-19T13:33:13Z</time>
      </trkpt>
      <trkpt lat="50.48414" lon="1.57186">
        <ele>-1.3</ele>
        <time>2014-09-19T13:33:19Z</time>
      </trkpt>
      <trkpt lat="50.48412" lon="1.57186">
        <ele>-1.3</ele>
        <time>2014-09-19T13:33:20Z</time>
      </trkpt>
      <trkpt lat="50.48397" lon="1.57182">
        <ele>-1.1</ele>
        <time>2014-09-19T13:33:31Z</time>
      </trkpt>
      <trkpt lat="50.48389" lon="1.57181">
        <ele>-1.7</ele>
        <time>2014-09-19T13:33:37Z</time>
      </trkpt>
      <trkpt lat="50.48381" lon="1.57179">
        <ele>-1.4</ele>
        <time>2014-09-19T13:33:43Z</time>
      </trkpt>
      <trkpt lat="50.48373" lon="1.57178">
        <ele>-1.3</ele>
        <time>2014-09-19T13:33:49Z</time>
      </trkpt>
      <trkpt lat="50.48364" lon="1.57177">
        <ele>-1</ele>
        <time>2014-09-19T13:33:55Z</time>
      </trkpt>
      <trkpt lat="50.48356" lon="1.57176">
        <ele>-0.8</ele>
        <time>2014-09-19T13:34:01Z</time>
      </trkpt>
      <trkpt lat="50.48348" lon="1.57176">
        <ele>-1</ele>
        <time>2014-09-19T13:34:07Z</time>
      </trkpt>
      <trkpt lat="50.4834" lon="1.57176">
        <ele>-0.8</ele>
        <time>2014-09-19T13:34:13Z</time>
      </trkpt>
      <trkpt lat="50.48332" lon="1.57175">
        <ele>-1.2</ele>
        <time>2014-09-19T13:34:19Z</time>
      </trkpt>
      <trkpt lat="50.48323" lon="1.57175">
        <ele>-1.3</ele>
        <time>2014-09-19T13:34:25Z</time>
      </trkpt>
      <trkpt lat="50.48322" lon="1.57175">
        <ele>-1.7</ele>
        <time>2014-09-19T13:34:26Z</time>
      </trkpt>
      <trkpt lat="50.48307" lon="1.57174">
        <ele>-1.9</ele>
        <time>2014-09-19T13:34:37Z</time>
      </trkpt>
      <trkpt lat="50.48299" lon="1.57175">
        <ele>-1.9</ele>
        <time>2014-09-19T13:34:43Z</time>
      </trkpt>
      <trkpt lat="50.48291" lon="1.57175">
        <ele>-0.7</ele>
        <time>2014-09-19T13:34:49Z</time>
      </trkpt>
      <trkpt lat="50.48283" lon="1.57177">
        <ele>-0.5</ele>
        <time>2014-09-19T13:34:55Z</time>
      </trkpt>
      <trkpt lat="50.48275" lon="1.57179">
        <ele>-1.2</ele>
        <time>2014-09-19T13:35:01Z</time>
      </trkpt>
      <trkpt lat="50.48267" lon="1.5718">
        <ele>-1.8</ele>
        <time>2014-09-19T13:35:07Z</time>
      </trkpt>
      <trkpt lat="50.48259" lon="1.57181">
        <ele>-1.9</ele>
        <time>2014-09-19T13:35:13Z</time>
      </trkpt>
      <trkpt lat="50.48251" lon="1.57181">
        <ele>-1.4</ele>
        <time>2014-09-19T13:35:19Z</time>
      </trkpt>
      <trkpt lat="50.48243" lon="1.57181">
        <ele>-1.3</ele>
        <time>2014-09-19T13:35:25Z</time>
      </trkpt>
      <trkpt lat="50.48234" lon="1.57181">
        <ele>-1.3</ele>
        <time>2014-09-19T13:35:31Z</time>
      </trkpt>
      <trkpt lat="50.48233" lon="1.57181">
        <ele>-1.3</ele>
        <time>2014-09-19T13:35:32Z</time>
      </trkpt>
      <trkpt lat="50.48218" lon="1.57181">
        <ele>-1.6</ele>
        <time>2014-09-19T13:35:43Z</time>
      </trkpt>
      <trkpt lat="50.4821" lon="1.5718">
        <ele>-1.4</ele>
        <time>2014-09-19T13:35:49Z</time>
      </trkpt>
      <trkpt lat="50.48202" lon="1.5718">
        <ele>-1.8</ele>
        <time>2014-09-19T13:35:55Z</time>
      </trkpt>
      <trkpt lat="50.48194" lon="1.57182">
        <ele>-2.1</ele>
        <time>2014-09-19T13:36:01Z</time>
      </trkpt>
      <trkpt lat="50.48186" lon="1.57183">
        <ele>-2.6</ele>
        <time>2014-09-19T13:36:07Z</time>
      </trkpt>
      <trkpt lat="50.48178" lon="1.57183">
        <ele>-2.2</ele>
        <time>2014-09-19T13:36:13Z</time>
      </trkpt>
      <trkpt lat="50.4817" lon="1.57183">
        <ele>-1.9</ele>
        <time>2014-09-19T13:36:19Z</time>
      </trkpt>
      <trkpt lat="50.48162" lon="1.57182">
        <ele>-1.6</ele>
        <time>2014-09-19T13:36:25Z</time>
      </trkpt>
      <trkpt lat="50.48154" lon="1.57183">
        <ele>-1.4</ele>
        <time>2014-09-19T13:36:31Z</time>
      </trkpt>
      <trkpt lat="50.48146" lon="1.57183">
        <ele>-2.3</ele>
        <time>2014-09-19T13:36:37Z</time>
      </trkpt>
      <trkpt lat="50.48145" lon="1.57184">
        <ele>-2</ele>
        <time>2014-09-19T13:36:38Z</time>
      </trkpt>
      <trkpt lat="50.4813" lon="1.57183">
        <ele>-1.6</ele>
        <time>2014-09-19T13:36:49Z</time>
      </trkpt>
      <trkpt lat="50.48122" lon="1.57184">
        <ele>-1.6</ele>
        <time>2014-09-19T13:36:55Z</time>
      </trkpt>
      <trkpt lat="50.48114" lon="1.57185">
        <ele>-1.1</ele>
        <time>2014-09-19T13:37:01Z</time>
      </trkpt>
      <trkpt lat="50.48105" lon="1.57184">
        <ele>-1.5</ele>
        <time>2014-09-19T13:37:07Z</time>
      </trkpt>
      <trkpt lat="50.48097" lon="1.57184">
        <ele>-1.3</ele>
        <time>2014-09-19T13:37:13Z</time>
      </trkpt>
      <trkpt lat="50.48089" lon="1.57183">
        <ele>-1.3</ele>
        <time>2014-09-19T13:37:19Z</time>
      </trkpt>
      <trkpt lat="50.48081" lon="1.57184">
        <ele>-1.8</ele>
        <time>2014-09-19T13:37:25Z</time>
      </trkpt>
      <trkpt lat="50.48073" lon="1.57183">
        <ele>-1.6</ele>
        <time>2014-09-19T13:37:31Z</time>
      </trkpt>
      <trkpt lat="50.48065" lon="1.57182">
        <ele>-1.8</ele>
        <time>2014-09-19T13:37:37Z</time>
      </trkpt>
      <trkpt lat="50.48056" lon="1.57182">
        <ele>-1.4</ele>
        <time>2014-09-19T13:37:43Z</time>
      </trkpt>
      <trkpt lat="50.48055" lon="1.57182">
        <ele>-1.4</ele>
        <time>2014-09-19T13:37:44Z</time>
      </trkpt>
      <trkpt lat="50.4804" lon="1.57182">
        <ele>-0.7</ele>
        <time>2014-09-19T13:37:55Z</time>
      </trkpt>
      <trkpt lat="50.48032" lon="1.57183">
        <ele>-1.2</ele>
        <time>2014-09-19T13:38:01Z</time>
      </trkpt>
      <trkpt lat="50.48024" lon="1.57184">
        <ele>-1.6</ele>
        <time>2014-09-19T13:38:07Z</time>
      </trkpt>
      <trkpt lat="50.48016" lon="1.57184">
        <ele>-0.9</ele>
        <time>2014-09-19T13:38:13Z</time>
      </trkpt>
      <trkpt lat="50.48008" lon="1.57185">
        <ele>-1</ele>
        <time>2014-09-19T13:38:19Z</time>
      </trkpt>
      <trkpt lat="50.47999" lon="1.57185">
        <ele>-0.8</ele>
        <time>2014-09-19T13:38:25Z</time>
      </trkpt>
      <trkpt lat="50.47991" lon="1.57185">
        <ele>-0.9</ele>
        <time>2014-09-19T13:38:31Z</time>
      </trkpt>
      <trkpt lat="50.47983" lon="1.57185">
        <ele>-1.2</ele>
        <time>2014-09-19T13:38:37Z</time>
      </trkpt>
      <trkpt lat="50.47975" lon="1.57183">
        <ele>-1.1</ele>
        <time>2014-09-19T13:38:43Z</time>
      </trkpt>
      <trkpt lat="50.47967" lon="1.57182">
        <ele>-1.7</ele>
        <time>2014-09-19T13:38:49Z</time>
      </trkpt>
      <trkpt lat="50.47966" lon="1.57182">
        <ele>-1.6</ele>
        <time>2014-09-19T13:38:50Z</time>
      </trkpt>
      <trkpt lat="50.4795" lon="1.57181">
        <ele>-0.7</ele>
        <time>2014-09-19T13:39:02Z</time>
      </trkpt>
      <trkpt lat="50.47942" lon="1.57184">
        <ele>-1</ele>
        <time>2014-09-19T13:39:09Z</time>
      </trkpt>
      <trkpt lat="50.47934" lon="1.57186">
        <ele>-0.8</ele>
        <time>2014-09-19T13:39:15Z</time>
      </trkpt>
      <trkpt lat="50.47926" lon="1.57188">
        <ele>-1.2</ele>
        <time>2014-09-19T13:39:21Z</time>
      </trkpt>
      <trkpt lat="50.47918" lon="1.57191">
        <ele>-1.3</ele>
        <time>2014-09-19T13:39:27Z</time>
      </trkpt>
      <trkpt lat="50.47911" lon="1.57193">
        <ele>-0.7</ele>
        <time>2014-09-19T13:39:33Z</time>
      </trkpt>
      <trkpt lat="50.47903" lon="1.57196">
        <ele>-0.5</ele>
        <time>2014-09-19T13:39:39Z</time>
      </trkpt>
      <trkpt lat="50.47895" lon="1.57199">
        <ele>-1.1</ele>
        <time>2014-09-19T13:39:45Z</time>
      </trkpt>
      <trkpt lat="50.47887" lon="1.57202">
        <ele>-1.3</ele>
        <time>2014-09-19T13:39:51Z</time>
      </trkpt>
      <trkpt lat="50.47885" lon="1.57202">
        <ele>-1.3</ele>
        <time>2014-09-19T13:39:52Z</time>
      </trkpt>
      <trkpt lat="50.4787" lon="1.57206">
        <ele>-1.2</ele>
        <time>2014-09-19T13:40:03Z</time>
      </trkpt>
      <trkpt lat="50.47862" lon="1.57207">
        <ele>-1.3</ele>
        <time>2014-09-19T13:40:09Z</time>
      </trkpt>
      <trkpt lat="50.47854" lon="1.57209">
        <ele>-1</ele>
        <time>2014-09-19T13:40:15Z</time>
      </trkpt>
      <trkpt lat="50.47846" lon="1.57212">
        <ele>-0.6</ele>
        <time>2014-09-19T13:40:21Z</time>
      </trkpt>
      <trkpt lat="50.47838" lon="1.57214">
        <ele>-0.9</ele>
        <time>2014-09-19T13:40:27Z</time>
      </trkpt>
      <trkpt lat="50.4783" lon="1.57215">
        <ele>-0.9</ele>
        <time>2014-09-19T13:40:33Z</time>
      </trkpt>
      <trkpt lat="50.47821" lon="1.57217">
        <ele>-0.2</ele>
        <time>2014-09-19T13:40:39Z</time>
      </trkpt>
      <trkpt lat="50.47813" lon="1.57219">
        <ele>-1</ele>
        <time>2014-09-19T13:40:45Z</time>
      </trkpt>
      <trkpt lat="50.47806" lon="1.57221">
        <ele>-1</ele>
        <time>2014-09-19T13:40:51Z</time>
      </trkpt>
      <trkpt lat="50.47798" lon="1.57222">
        <ele>-1.2</ele>
        <time>2014-09-19T13:40:57Z</time>
      </trkpt>
      <trkpt lat="50.47796" lon="1.57222">
        <ele>-1.3</ele>
        <time>2014-09-19T13:40:58Z</time>
      </trkpt>
      <trkpt lat="50.47782" lon="1.57224">
        <ele>-1.1</ele>
        <time>2014-09-19T13:41:09Z</time>
      </trkpt>
      <trkpt lat="50.47773" lon="1.57223">
        <ele>-0.6</ele>
        <time>2014-09-19T13:41:15Z</time>
      </trkpt>
      <trkpt lat="50.47765" lon="1.57222">
        <ele>-0.5</ele>
        <time>2014-09-19T13:41:21Z</time>
      </trkpt>
      <trkpt lat="50.47757" lon="1.5722">
        <ele>-0.5</ele>
        <time>2014-09-19T13:41:27Z</time>
      </trkpt>
      <trkpt lat="50.47749" lon="1.57221">
        <ele>-0.2</ele>
        <time>2014-09-19T13:41:33Z</time>
      </trkpt>
      <trkpt lat="50.47741" lon="1.5722">
        <ele>-0.7</ele>
        <time>2014-09-19T13:41:39Z</time>
      </trkpt>
      <trkpt lat="50.47733" lon="1.57219">
        <ele>-0.5</ele>
        <time>2014-09-19T13:41:45Z</time>
      </trkpt>
      <trkpt lat="50.47725" lon="1.5722">
        <ele>0.1</ele>
        <time>2014-09-19T13:41:51Z</time>
      </trkpt>
      <trkpt lat="50.47716" lon="1.57221">
        <ele>-0.1</ele>
        <time>2014-09-19T13:41:58Z</time>
      </trkpt>
      <trkpt lat="50.47715" lon="1.57221">
        <ele>1.9</ele>
        <time>2014-09-19T13:41:59Z</time>
      </trkpt>
      <trkpt lat="50.477" lon="1.57224">
        <ele>2</ele>
        <time>2014-09-19T13:42:53Z</time>
      </trkpt>
      <trkpt lat="50.47691" lon="1.57223">
        <ele>-0.4</ele>
        <time>2014-09-19T13:42:59Z</time>
      </trkpt>
      <trkpt lat="50.4769" lon="1.57222">
        <ele>-0.4</ele>
        <time>2014-09-19T13:43:00Z</time>
      </trkpt>
      <trkpt lat="50.47675" lon="1.57219">
        <ele>-0.1</ele>
        <time>2014-09-19T13:43:11Z</time>
      </trkpt>
      <trkpt lat="50.47666" lon="1.57217">
        <ele>-0.3</ele>
        <time>2014-09-19T13:43:17Z</time>
      </trkpt>
      <trkpt lat="50.47658" lon="1.57216">
        <ele>-0.3</ele>
        <time>2014-09-19T13:43:23Z</time>
      </trkpt>
      <trkpt lat="50.4765" lon="1.57215">
        <ele>0.2</ele>
        <time>2014-09-19T13:43:29Z</time>
      </trkpt>
      <trkpt lat="50.47642" lon="1.57214">
        <ele>-0.1</ele>
        <time>2014-09-19T13:43:35Z</time>
      </trkpt>
      <trkpt lat="50.47634" lon="1.57214">
        <ele>0.1</ele>
        <time>2014-09-19T13:43:41Z</time>
      </trkpt>
      <trkpt lat="50.47626" lon="1.57213">
        <ele>0.1</ele>
        <time>2014-09-19T13:43:47Z</time>
      </trkpt>
      <trkpt lat="50.47618" lon="1.57212">
        <ele>1.6</ele>
        <time>2014-09-19T13:43:53Z</time>
      </trkpt>
      <trkpt lat="50.4761" lon="1.57211">
        <ele>-0.1</ele>
        <time>2014-09-19T13:43:59Z</time>
      </trkpt>
      <trkpt lat="50.47602" lon="1.57211">
        <ele>1.6</ele>
        <time>2014-09-19T13:44:05Z</time>
      </trkpt>
      <trkpt lat="50.47601" lon="1.57211">
        <ele>-0.1</ele>
        <time>2014-09-19T13:44:06Z</time>
      </trkpt>
      <trkpt lat="50.47586" lon="1.57211">
        <ele>1.6</ele>
        <time>2014-09-19T13:44:17Z</time>
      </trkpt>
      <trkpt lat="50.47578" lon="1.5721">
        <ele>-0.1</ele>
        <time>2014-09-19T13:44:23Z</time>
      </trkpt>
      <trkpt lat="50.47569" lon="1.5721">
        <ele>-0.2</ele>
        <time>2014-09-19T13:44:30Z</time>
      </trkpt>
      <trkpt lat="50.47561" lon="1.57206">
        <ele>0.1</ele>
        <time>2014-09-19T13:44:37Z</time>
      </trkpt>
      <trkpt lat="50.47553" lon="1.572">
        <ele>-0.1</ele>
        <time>2014-09-19T13:44:44Z</time>
      </trkpt>
      <trkpt lat="50.47547" lon="1.57192">
        <ele>-0.8</ele>
        <time>2014-09-19T13:44:50Z</time>
      </trkpt>
      <trkpt lat="50.47545" lon="1.57179">
        <ele>-1.2</ele>
        <time>2014-09-19T13:45:10Z</time>
      </trkpt>
      <trkpt lat="50.47546" lon="1.57178">
        <ele>-1.2</ele>
        <time>2014-09-19T13:45:11Z</time>
      </trkpt>
      <trkpt lat="50.47531" lon="1.5719">
        <ele>-0.5</ele>
        <time>2014-09-19T13:45:48Z</time>
      </trkpt>
      <trkpt lat="50.47524" lon="1.57196">
        <ele>-1.3</ele>
        <time>2014-09-19T13:45:55Z</time>
      </trkpt>
      <trkpt lat="50.47516" lon="1.57197">
        <ele>-0.4</ele>
        <time>2014-09-19T13:46:02Z</time>
      </trkpt>
      <trkpt lat="50.47508" lon="1.57196">
        <ele>-1</ele>
        <time>2014-09-19T13:46:08Z</time>
      </trkpt>
      <trkpt lat="50.47499" lon="1.57196">
        <ele>-0.4</ele>
        <time>2014-09-19T13:46:14Z</time>
      </trkpt>
      <trkpt lat="50.47498" lon="1.57196">
        <ele>-0.2</ele>
        <time>2014-09-19T13:46:15Z</time>
      </trkpt>
      <trkpt lat="50.47482" lon="1.57195">
        <ele>0.3</ele>
        <time>2014-09-19T13:46:26Z</time>
      </trkpt>
      <trkpt lat="50.47474" lon="1.57195">
        <ele>-0.3</ele>
        <time>2014-09-19T13:46:32Z</time>
      </trkpt>
      <trkpt lat="50.47466" lon="1.57194">
        <ele>0.1</ele>
        <time>2014-09-19T13:46:38Z</time>
      </trkpt>
      <trkpt lat="50.47458" lon="1.57194">
        <ele>-1.1</ele>
        <time>2014-09-19T13:46:44Z</time>
      </trkpt>
      <trkpt lat="50.4745" lon="1.57195">
        <ele>-0.8</ele>
        <time>2014-09-19T13:46:50Z</time>
      </trkpt>
      <trkpt lat="50.47442" lon="1.57196">
        <ele>-0.5</ele>
        <time>2014-09-19T13:46:56Z</time>
      </trkpt>
      <trkpt lat="50.47434" lon="1.57196">
        <ele>0.2</ele>
        <time>2014-09-19T13:47:02Z</time>
      </trkpt>
      <trkpt lat="50.47425" lon="1.57196">
        <ele>0.2</ele>
        <time>2014-09-19T13:47:08Z</time>
      </trkpt>
      <trkpt lat="50.47417" lon="1.57196">
        <ele>1.1</ele>
        <time>2014-09-19T13:47:14Z</time>
      </trkpt>
      <trkpt lat="50.47408" lon="1.57196">
        <ele>-0.4</ele>
        <time>2014-09-19T13:47:20Z</time>
      </trkpt>
      <trkpt lat="50.47407" lon="1.57196">
        <ele>-0.4</ele>
        <time>2014-09-19T13:47:21Z</time>
      </trkpt>
      <trkpt lat="50.47391" lon="1.57195">
        <ele>-0.4</ele>
        <time>2014-09-19T13:47:32Z</time>
      </trkpt>
      <trkpt lat="50.47383" lon="1.57194">
        <ele>0.9</ele>
        <time>2014-09-19T13:47:38Z</time>
      </trkpt>
      <trkpt lat="50.47375" lon="1.57194">
        <ele>0.9</ele>
        <time>2014-09-19T13:47:44Z</time>
      </trkpt>
      <trkpt lat="50.47367" lon="1.57192">
        <ele>1.3</ele>
        <time>2014-09-19T13:47:50Z</time>
      </trkpt>
      <trkpt lat="50.47358" lon="1.57191">
        <ele>1.7</ele>
        <time>2014-09-19T13:47:56Z</time>
      </trkpt>
      <trkpt lat="50.4735" lon="1.5719">
        <ele>-0.7</ele>
        <time>2014-09-19T13:48:02Z</time>
      </trkpt>
      <trkpt lat="50.47341" lon="1.5719">
        <ele>0.8</ele>
        <time>2014-09-19T13:48:08Z</time>
      </trkpt>
      <trkpt lat="50.47333" lon="1.57189">
        <ele>1.3</ele>
        <time>2014-09-19T13:48:14Z</time>
      </trkpt>
      <trkpt lat="50.47325" lon="1.57187">
        <ele>1.1</ele>
        <time>2014-09-19T13:48:20Z</time>
      </trkpt>
      <trkpt lat="50.47316" lon="1.57185">
        <ele>0.9</ele>
        <time>2014-09-19T13:48:26Z</time>
      </trkpt>
      <trkpt lat="50.47315" lon="1.57185">
        <ele>0.9</ele>
        <time>2014-09-19T13:48:27Z</time>
      </trkpt>
      <trkpt lat="50.473" lon="1.57183">
        <ele>0.9</ele>
        <time>2014-09-19T13:48:38Z</time>
      </trkpt>
      <trkpt lat="50.47292" lon="1.57183">
        <ele>1.1</ele>
        <time>2014-09-19T13:48:44Z</time>
      </trkpt>
      <trkpt lat="50.47284" lon="1.57182">
        <ele>2.2</ele>
        <time>2014-09-19T13:48:50Z</time>
      </trkpt>
      <trkpt lat="50.47276" lon="1.57182">
        <ele>1.5</ele>
        <time>2014-09-19T13:48:56Z</time>
      </trkpt>
      <trkpt lat="50.47268" lon="1.57182">
        <ele>1.1</ele>
        <time>2014-09-19T13:49:02Z</time>
      </trkpt>
      <trkpt lat="50.4726" lon="1.57181">
        <ele>1.9</ele>
        <time>2014-09-19T13:49:08Z</time>
      </trkpt>
      <trkpt lat="50.47251" lon="1.57181">
        <ele>0.6</ele>
        <time>2014-09-19T13:49:14Z</time>
      </trkpt>
      <trkpt lat="50.47243" lon="1.5718">
        <ele>1.3</ele>
        <time>2014-09-19T13:49:20Z</time>
      </trkpt>
      <trkpt lat="50.47235" lon="1.5718">
        <ele>1.3</ele>
        <time>2014-09-19T13:49:26Z</time>
      </trkpt>
      <trkpt lat="50.47227" lon="1.57178">
        <ele>1.7</ele>
        <time>2014-09-19T13:49:32Z</time>
      </trkpt>
      <trkpt lat="50.47225" lon="1.57178">
        <ele>1.7</ele>
        <time>2014-09-19T13:49:33Z</time>
      </trkpt>
      <trkpt lat="50.4721" lon="1.57175">
        <ele>1.1</ele>
        <time>2014-09-19T13:49:44Z</time>
      </trkpt>
      <trkpt lat="50.47202" lon="1.57174">
        <ele>0.5</ele>
        <time>2014-09-19T13:49:50Z</time>
      </trkpt>
      <trkpt lat="50.47193" lon="1.57174">
        <ele>1.9</ele>
        <time>2014-09-19T13:49:56Z</time>
      </trkpt>
      <trkpt lat="50.47185" lon="1.57175">
        <ele>1.4</ele>
        <time>2014-09-19T13:50:02Z</time>
      </trkpt>
      <trkpt lat="50.47177" lon="1.57174">
        <ele>1.3</ele>
        <time>2014-09-19T13:50:08Z</time>
      </trkpt>
      <trkpt lat="50.47169" lon="1.57173">
        <ele>1.3</ele>
        <time>2014-09-19T13:50:14Z</time>
      </trkpt>
      <trkpt lat="50.4716" lon="1.57172">
        <ele>0.5</ele>
        <time>2014-09-19T13:50:20Z</time>
      </trkpt>
      <trkpt lat="50.47152" lon="1.57171">
        <ele>1.9</ele>
        <time>2014-09-19T13:50:26Z</time>
      </trkpt>
      <trkpt lat="50.47143" lon="1.5717">
        <ele>1.1</ele>
        <time>2014-09-19T13:50:32Z</time>
      </trkpt>
      <trkpt lat="50.47135" lon="1.57169">
        <ele>0.5</ele>
        <time>2014-09-19T13:50:38Z</time>
      </trkpt>
      <trkpt lat="50.47133" lon="1.57169">
        <ele>0.5</ele>
        <time>2014-09-19T13:50:39Z</time>
      </trkpt>
      <trkpt lat="50.47118" lon="1.57168">
        <ele>1.1</ele>
        <time>2014-09-19T13:50:50Z</time>
      </trkpt>
      <trkpt lat="50.47109" lon="1.57166">
        <ele>0.7</ele>
        <time>2014-09-19T13:50:56Z</time>
      </trkpt>
      <trkpt lat="50.47101" lon="1.57165">
        <ele>0.7</ele>
        <time>2014-09-19T13:51:02Z</time>
      </trkpt>
      <trkpt lat="50.47093" lon="1.57164">
        <ele>1</ele>
        <time>2014-09-19T13:51:08Z</time>
      </trkpt>
      <trkpt lat="50.47085" lon="1.57163">
        <ele>1.1</ele>
        <time>2014-09-19T13:51:14Z</time>
      </trkpt>
      <trkpt lat="50.47077" lon="1.57162">
        <ele>0.7</ele>
        <time>2014-09-19T13:51:20Z</time>
      </trkpt>
      <trkpt lat="50.47069" lon="1.5716">
        <ele>0.9</ele>
        <time>2014-09-19T13:51:26Z</time>
      </trkpt>
      <trkpt lat="50.4706" lon="1.57159">
        <ele>0.6</ele>
        <time>2014-09-19T13:51:32Z</time>
      </trkpt>
      <trkpt lat="50.47052" lon="1.57156">
        <ele>0.3</ele>
        <time>2014-09-19T13:51:38Z</time>
      </trkpt>
      <trkpt lat="50.47044" lon="1.57155">
        <ele>0.3</ele>
        <time>2014-09-19T13:51:44Z</time>
      </trkpt>
      <trkpt lat="50.47042" lon="1.57155">
        <ele>0.3</ele>
        <time>2014-09-19T13:51:45Z</time>
      </trkpt>
      <trkpt lat="50.47027" lon="1.57154">
        <ele>0.7</ele>
        <time>2014-09-19T13:51:56Z</time>
      </trkpt>
      <trkpt lat="50.47019" lon="1.57152">
        <ele>1</ele>
        <time>2014-09-19T13:52:02Z</time>
      </trkpt>
      <trkpt lat="50.47011" lon="1.57151">
        <ele>1.5</ele>
        <time>2014-09-19T13:52:08Z</time>
      </trkpt>
      <trkpt lat="50.47003" lon="1.5715">
        <ele>1.5</ele>
        <time>2014-09-19T13:52:14Z</time>
      </trkpt>
      <trkpt lat="50.46995" lon="1.5715">
        <ele>1.2</ele>
        <time>2014-09-19T13:52:20Z</time>
      </trkpt>
      <trkpt lat="50.46986" lon="1.57151">
        <ele>1.1</ele>
        <time>2014-09-19T13:52:27Z</time>
      </trkpt>
      <trkpt lat="50.46978" lon="1.57149">
        <ele>1.2</ele>
        <time>2014-09-19T13:52:36Z</time>
      </trkpt>
      <trkpt lat="50.4697" lon="1.57149">
        <ele>1.3</ele>
        <time>2014-09-19T13:52:42Z</time>
      </trkpt>
      <trkpt lat="50.46963" lon="1.57149">
        <ele>1.9</ele>
        <time>2014-09-19T13:52:48Z</time>
      </trkpt>
      <trkpt lat="50.46961" lon="1.57149">
        <ele>1.5</ele>
        <time>2014-09-19T13:52:49Z</time>
      </trkpt>
      <trkpt lat="50.46947" lon="1.57147">
        <ele>0.8</ele>
        <time>2014-09-19T13:53:00Z</time>
      </trkpt>
      <trkpt lat="50.46939" lon="1.57147">
        <ele>1.5</ele>
        <time>2014-09-19T13:53:06Z</time>
      </trkpt>
      <trkpt lat="50.46931" lon="1.57147">
        <ele>1.4</ele>
        <time>2014-09-19T13:53:12Z</time>
      </trkpt>
      <trkpt lat="50.46923" lon="1.57147">
        <ele>1.2</ele>
        <time>2014-09-19T13:53:18Z</time>
      </trkpt>
      <trkpt lat="50.46916" lon="1.57146">
        <ele>1.3</ele>
        <time>2014-09-19T13:53:24Z</time>
      </trkpt>
      <trkpt lat="50.46907" lon="1.57145">
        <ele>1.1</ele>
        <time>2014-09-19T13:53:31Z</time>
      </trkpt>
      <trkpt lat="50.46898" lon="1.57144">
        <ele>1.8</ele>
        <time>2014-09-19T13:53:38Z</time>
      </trkpt>
      <trkpt lat="50.46889" lon="1.57142">
        <ele>1.7</ele>
        <time>2014-09-19T13:53:45Z</time>
      </trkpt>
      <trkpt lat="50.46881" lon="1.57141">
        <ele>1.4</ele>
        <time>2014-09-19T13:53:51Z</time>
      </trkpt>
      <trkpt lat="50.4688" lon="1.5714">
        <ele>1.5</ele>
        <time>2014-09-19T13:53:52Z</time>
      </trkpt>
      <trkpt lat="50.46866" lon="1.57136">
        <ele>1.8</ele>
        <time>2014-09-19T13:54:03Z</time>
      </trkpt>
      <trkpt lat="50.46858" lon="1.57134">
        <ele>1.4</ele>
        <time>2014-09-19T13:54:09Z</time>
      </trkpt>
      <trkpt lat="50.4685" lon="1.57134">
        <ele>-1.4</ele>
        <time>2014-09-19T13:54:15Z</time>
      </trkpt>
      <trkpt lat="50.46842" lon="1.57131">
        <ele>1.3</ele>
        <time>2014-09-19T13:54:21Z</time>
      </trkpt>
      <trkpt lat="50.46835" lon="1.57129">
        <ele>2.2</ele>
        <time>2014-09-19T13:54:27Z</time>
      </trkpt>
      <trkpt lat="50.46826" lon="1.57127">
        <ele>2.1</ele>
        <time>2014-09-19T13:54:34Z</time>
      </trkpt>
      <trkpt lat="50.46818" lon="1.57126">
        <ele>0.9</ele>
        <time>2014-09-19T13:54:40Z</time>
      </trkpt>
      <trkpt lat="50.4681" lon="1.57125">
        <ele>3.2</ele>
        <time>2014-09-19T13:54:46Z</time>
      </trkpt>
      <trkpt lat="50.46802" lon="1.57121">
        <ele>1.6</ele>
        <time>2014-09-19T13:54:52Z</time>
      </trkpt>
      <trkpt lat="50.46801" lon="1.57121">
        <ele>1.5</ele>
        <time>2014-09-19T13:54:53Z</time>
      </trkpt>
      <trkpt lat="50.46787" lon="1.57116">
        <ele>0.3</ele>
        <time>2014-09-19T13:55:04Z</time>
      </trkpt>
      <trkpt lat="50.46779" lon="1.57112">
        <ele>1</ele>
        <time>2014-09-19T13:55:10Z</time>
      </trkpt>
      <trkpt lat="50.46772" lon="1.57107">
        <ele>1.4</ele>
        <time>2014-09-19T13:55:16Z</time>
      </trkpt>
      <trkpt lat="50.46765" lon="1.57102">
        <ele>0.6</ele>
        <time>2014-09-19T13:55:22Z</time>
      </trkpt>
      <trkpt lat="50.46757" lon="1.57099">
        <ele>1.4</ele>
        <time>2014-09-19T13:55:28Z</time>
      </trkpt>
      <trkpt lat="50.46749" lon="1.57103">
        <ele>2.5</ele>
        <time>2014-09-19T13:55:35Z</time>
      </trkpt>
      <trkpt lat="50.46742" lon="1.57109">
        <ele>2</ele>
        <time>2014-09-19T13:55:41Z</time>
      </trkpt>
      <trkpt lat="50.46735" lon="1.57116">
        <ele>1.9</ele>
        <time>2014-09-19T13:55:47Z</time>
      </trkpt>
      <trkpt lat="50.46726" lon="1.57119">
        <ele>1.9</ele>
        <time>2014-09-19T13:55:54Z</time>
      </trkpt>
      <trkpt lat="50.46725" lon="1.5712">
        <ele>1.7</ele>
        <time>2014-09-19T13:55:55Z</time>
      </trkpt>
      <trkpt lat="50.4671" lon="1.57122">
        <ele>1.9</ele>
        <time>2014-09-19T13:56:07Z</time>
      </trkpt>
      <trkpt lat="50.46701" lon="1.57123">
        <ele>1.4</ele>
        <time>2014-09-19T13:56:14Z</time>
      </trkpt>
      <trkpt lat="50.46693" lon="1.57124">
        <ele>1.9</ele>
        <time>2014-09-19T13:56:21Z</time>
      </trkpt>
      <trkpt lat="50.46684" lon="1.57124">
        <ele>1.2</ele>
        <time>2014-09-19T13:56:28Z</time>
      </trkpt>
      <trkpt lat="50.46676" lon="1.57126">
        <ele>2.3</ele>
        <time>2014-09-19T13:56:34Z</time>
      </trkpt>
      <trkpt lat="50.46667" lon="1.57126">
        <ele>2.5</ele>
        <time>2014-09-19T13:56:41Z</time>
      </trkpt>
      <trkpt lat="50.4666" lon="1.57127">
        <ele>2.6</ele>
        <time>2014-09-19T13:56:47Z</time>
      </trkpt>
      <trkpt lat="50.46652" lon="1.57128">
        <ele>2.4</ele>
        <time>2014-09-19T13:56:53Z</time>
      </trkpt>
      <trkpt lat="50.46644" lon="1.5713">
        <ele>2.1</ele>
        <time>2014-09-19T13:56:59Z</time>
      </trkpt>
      <trkpt lat="50.46643" lon="1.5713">
        <ele>2.1</ele>
        <time>2014-09-19T13:57:00Z</time>
      </trkpt>
      <trkpt lat="50.46628" lon="1.57131">
        <ele>2.2</ele>
        <time>2014-09-19T13:57:11Z</time>
      </trkpt>
      <trkpt lat="50.4662" lon="1.57132">
        <ele>2.5</ele>
        <time>2014-09-19T13:57:17Z</time>
      </trkpt>
      <trkpt lat="50.46612" lon="1.57133">
        <ele>2.4</ele>
        <time>2014-09-19T13:57:23Z</time>
      </trkpt>
      <trkpt lat="50.46604" lon="1.57135">
        <ele>3.7</ele>
        <time>2014-09-19T13:57:30Z</time>
      </trkpt>
      <trkpt lat="50.46595" lon="1.57134">
        <ele>3.2</ele>
        <time>2014-09-19T13:57:37Z</time>
      </trkpt>
      <trkpt lat="50.46586" lon="1.57132">
        <ele>2.8</ele>
        <time>2014-09-19T13:57:44Z</time>
      </trkpt>
      <trkpt lat="50.46577" lon="1.57129">
        <ele>3.5</ele>
        <time>2014-09-19T13:57:51Z</time>
      </trkpt>
      <trkpt lat="50.4657" lon="1.57127">
        <ele>3.4</ele>
        <time>2014-09-19T13:57:57Z</time>
      </trkpt>
      <trkpt lat="50.46561" lon="1.57124">
        <ele>2.9</ele>
        <time>2014-09-19T13:58:04Z</time>
      </trkpt>
      <trkpt lat="50.4656" lon="1.57124">
        <ele>2.7</ele>
        <time>2014-09-19T13:58:05Z</time>
      </trkpt>
      <trkpt lat="50.46545" lon="1.57118">
        <ele>2.3</ele>
        <time>2014-09-19T13:58:34Z</time>
      </trkpt>
      <trkpt lat="50.46536" lon="1.57114">
        <ele>2.5</ele>
        <time>2014-09-19T13:58:41Z</time>
      </trkpt>
      <trkpt lat="50.46528" lon="1.5711">
        <ele>2.4</ele>
        <time>2014-09-19T13:58:48Z</time>
      </trkpt>
      <trkpt lat="50.46519" lon="1.57108">
        <ele>2.7</ele>
        <time>2014-09-19T13:58:55Z</time>
      </trkpt>
      <trkpt lat="50.46511" lon="1.57107">
        <ele>2.8</ele>
        <time>2014-09-19T13:59:01Z</time>
      </trkpt>
      <trkpt lat="50.46503" lon="1.57106">
        <ele>2.8</ele>
        <time>2014-09-19T13:59:08Z</time>
      </trkpt>
      <trkpt lat="50.46501" lon="1.57106">
        <ele>2.8</ele>
        <time>2014-09-19T13:59:09Z</time>
      </trkpt>
      <trkpt lat="50.46486" lon="1.57105">
        <ele>2.9</ele>
        <time>2014-09-19T13:59:22Z</time>
      </trkpt>
      <trkpt lat="50.46477" lon="1.57104">
        <ele>3</ele>
        <time>2014-09-19T13:59:29Z</time>
      </trkpt>
      <trkpt lat="50.46469" lon="1.57105">
        <ele>2.9</ele>
        <time>2014-09-19T13:59:36Z</time>
      </trkpt>
      <trkpt lat="50.4646" lon="1.57105">
        <ele>3.3</ele>
        <time>2014-09-19T13:59:43Z</time>
      </trkpt>
      <trkpt lat="50.46452" lon="1.57106">
        <ele>3.2</ele>
        <time>2014-09-19T13:59:50Z</time>
      </trkpt>
      <trkpt lat="50.46444" lon="1.57108">
        <ele>3.4</ele>
        <time>2014-09-19T13:59:58Z</time>
      </trkpt>
      <trkpt lat="50.46436" lon="1.57112">
        <ele>2.8</ele>
        <time>2014-09-19T14:00:06Z</time>
      </trkpt>
      <trkpt lat="50.46428" lon="1.57118">
        <ele>3.5</ele>
        <time>2014-09-19T14:00:14Z</time>
      </trkpt>
      <trkpt lat="50.46427" lon="1.57119">
        <ele>3.5</ele>
        <time>2014-09-19T14:00:15Z</time>
      </trkpt>
      <trkpt lat="50.46412" lon="1.57129">
        <ele>3.6</ele>
        <time>2014-09-19T14:00:30Z</time>
      </trkpt>
      <trkpt lat="50.46405" lon="1.57135">
        <ele>4.4</ele>
        <time>2014-09-19T14:00:39Z</time>
      </trkpt>
      <trkpt lat="50.46399" lon="1.57143">
        <ele>3.9</ele>
        <time>2014-09-19T14:00:47Z</time>
      </trkpt>
      <trkpt lat="50.46391" lon="1.57151">
        <ele>3.4</ele>
        <time>2014-09-19T14:00:55Z</time>
      </trkpt>
      <trkpt lat="50.46386" lon="1.57159">
        <ele>3.1</ele>
        <time>2014-09-19T14:01:03Z</time>
      </trkpt>
      <trkpt lat="50.46381" lon="1.5717">
        <ele>3.2</ele>
        <time>2014-09-19T14:01:12Z</time>
      </trkpt>
      <trkpt lat="50.46374" lon="1.57179">
        <ele>2.4</ele>
        <time>2014-09-19T14:01:21Z</time>
      </trkpt>
      <trkpt lat="50.46373" lon="1.5718">
        <ele>2.3</ele>
        <time>2014-09-19T14:01:22Z</time>
      </trkpt>
      <trkpt lat="50.4636" lon="1.57195">
        <ele>3.7</ele>
        <time>2014-09-19T14:01:38Z</time>
      </trkpt>
      <trkpt lat="50.46353" lon="1.57202">
        <ele>4</ele>
        <time>2014-09-19T14:01:46Z</time>
      </trkpt>
      <trkpt lat="50.46347" lon="1.57212">
        <ele>3.5</ele>
        <time>2014-09-19T14:01:56Z</time>
      </trkpt>
      <trkpt lat="50.46339" lon="1.57219">
        <ele>4.7</ele>
        <time>2014-09-19T14:02:06Z</time>
      </trkpt>
      <trkpt lat="50.46331" lon="1.57221">
        <ele>4.7</ele>
        <time>2014-09-19T14:02:15Z</time>
      </trkpt>
      <trkpt lat="50.46325" lon="1.5723">
        <ele>4.5</ele>
        <time>2014-09-19T14:02:25Z</time>
      </trkpt>
      <trkpt lat="50.46325" lon="1.57232">
        <ele>4.9</ele>
        <time>2014-09-19T14:02:26Z</time>
      </trkpt>
      <trkpt lat="50.46313" lon="1.57248">
        <ele>6.7</ele>
        <time>2014-09-19T14:02:47Z</time>
      </trkpt>
      <trkpt lat="50.46304" lon="1.57253">
        <ele>7.1</ele>
        <time>2014-09-19T14:03:02Z</time>
      </trkpt>
      <trkpt lat="50.46296" lon="1.57259">
        <ele>7.8</ele>
        <time>2014-09-19T14:03:39Z</time>
      </trkpt>
      <trkpt lat="50.46296" lon="1.57259">
        <ele>7.8</ele>
        <time>2014-09-19T14:03:40Z</time>
      </trkpt>
      <trkpt lat="50.46305" lon="1.57256">
        <ele>7.1</ele>
        <time>2014-09-19T14:05:20Z</time>
      </trkpt>
      <trkpt lat="50.46295" lon="1.57259">
        <ele>10</ele>
        <time>2014-09-19T14:06:37Z</time>
      </trkpt>
      <trkpt lat="50.46286" lon="1.57273">
        <ele>9.3</ele>
        <time>2014-09-19T14:06:56Z</time>
      </trkpt>
      <trkpt lat="50.46286" lon="1.57287">
        <ele>8.2</ele>
        <time>2014-09-19T14:07:06Z</time>
      </trkpt>
      <trkpt lat="50.46285" lon="1.573">
        <ele>8.3</ele>
        <time>2014-09-19T14:07:15Z</time>
      </trkpt>
      <trkpt lat="50.46283" lon="1.57313">
        <ele>9.1</ele>
        <time>2014-09-19T14:07:23Z</time>
      </trkpt>
      <trkpt lat="50.46281" lon="1.57326">
        <ele>9.3</ele>
        <time>2014-09-19T14:07:33Z</time>
      </trkpt>
      <trkpt lat="50.4628" lon="1.57338">
        <ele>9.9</ele>
        <time>2014-09-19T14:07:42Z</time>
      </trkpt>
      <trkpt lat="50.4628" lon="1.5734">
        <ele>10</ele>
        <time>2014-09-19T14:07:43Z</time>
      </trkpt>
      <trkpt lat="50.46293" lon="1.57352">
        <ele>10.1</ele>
        <time>2014-09-19T14:08:19Z</time>
      </trkpt>
      <trkpt lat="50.4629" lon="1.57365">
        <ele>10.5</ele>
        <time>2014-09-19T14:08:31Z</time>
      </trkpt>
      <trkpt lat="50.46287" lon="1.57378">
        <ele>9.6</ele>
        <time>2014-09-19T14:08:38Z</time>
      </trkpt>
      <trkpt lat="50.46283" lon="1.57389">
        <ele>9.9</ele>
        <time>2014-09-19T14:08:44Z</time>
      </trkpt>
      <trkpt lat="50.46282" lon="1.57391">
        <ele>10</ele>
        <time>2014-09-19T14:08:45Z</time>
      </trkpt>
      <trkpt lat="50.46274" lon="1.57408">
        <ele>9.6</ele>
        <time>2014-09-19T14:08:54Z</time>
      </trkpt>
      <trkpt lat="50.46268" lon="1.57416">
        <ele>9.5</ele>
        <time>2014-09-19T14:08:57Z</time>
      </trkpt>
      <trkpt lat="50.46263" lon="1.57426">
        <ele>10</ele>
        <time>2014-09-19T14:09:02Z</time>
      </trkpt>
      <trkpt lat="50.46261" lon="1.57438">
        <ele>10.1</ele>
        <time>2014-09-19T14:09:09Z</time>
      </trkpt>
      <trkpt lat="50.46259" lon="1.57451">
        <ele>9.8</ele>
        <time>2014-09-19T14:09:17Z</time>
      </trkpt>
      <trkpt lat="50.46258" lon="1.57463">
        <ele>10</ele>
        <time>2014-09-19T14:09:24Z</time>
      </trkpt>
      <trkpt lat="50.46257" lon="1.57476">
        <ele>9</ele>
        <time>2014-09-19T14:09:31Z</time>
      </trkpt>
      <trkpt lat="50.46257" lon="1.57489">
        <ele>9.1</ele>
        <time>2014-09-19T14:09:39Z</time>
      </trkpt>
      <trkpt lat="50.46255" lon="1.57501">
        <ele>10.4</ele>
        <time>2014-09-19T14:09:45Z</time>
      </trkpt>
      <trkpt lat="50.46255" lon="1.57503">
        <ele>10.6</ele>
        <time>2014-09-19T14:09:46Z</time>
      </trkpt>
      <trkpt lat="50.46249" lon="1.57528">
        <ele>10.1</ele>
        <time>2014-09-19T14:10:00Z</time>
      </trkpt>
      <trkpt lat="50.46246" lon="1.57539">
        <ele>9.7</ele>
        <time>2014-09-19T14:10:07Z</time>
      </trkpt>
      <trkpt lat="50.46242" lon="1.57551">
        <ele>10.1</ele>
        <time>2014-09-19T14:10:15Z</time>
      </trkpt>
      <trkpt lat="50.4624" lon="1.57564">
        <ele>9.4</ele>
        <time>2014-09-19T14:10:25Z</time>
      </trkpt>
      <trkpt lat="50.46238" lon="1.57551">
        <ele>10.5</ele>
        <time>2014-09-19T14:10:47Z</time>
      </trkpt>
      <trkpt lat="50.46238" lon="1.5755">
        <ele>10.4</ele>
        <time>2014-09-19T14:10:48Z</time>
      </trkpt>
      <trkpt lat="50.46245" lon="1.57526">
        <ele>10.2</ele>
        <time>2014-09-19T14:11:02Z</time>
      </trkpt>
      <trkpt lat="50.46249" lon="1.57515">
        <ele>10.3</ele>
        <time>2014-09-19T14:11:09Z</time>
      </trkpt>
      <trkpt lat="50.46252" lon="1.57503">
        <ele>9.7</ele>
        <time>2014-09-19T14:11:15Z</time>
      </trkpt>
      <trkpt lat="50.46257" lon="1.57493">
        <ele>10.5</ele>
        <time>2014-09-19T14:11:20Z</time>
      </trkpt>
      <trkpt lat="50.4626" lon="1.57482">
        <ele>10.3</ele>
        <time>2014-09-19T14:11:25Z</time>
      </trkpt>
      <trkpt lat="50.46264" lon="1.57471">
        <ele>10</ele>
        <time>2014-09-19T14:11:30Z</time>
      </trkpt>
      <trkpt lat="50.46268" lon="1.57459">
        <ele>10.2</ele>
        <time>2014-09-19T14:11:36Z</time>
      </trkpt>
      <trkpt lat="50.46271" lon="1.57447">
        <ele>10.6</ele>
        <time>2014-09-19T14:11:42Z</time>
      </trkpt>
      <trkpt lat="50.46273" lon="1.57435">
        <ele>9.2</ele>
        <time>2014-09-19T14:11:49Z</time>
      </trkpt>
      <trkpt lat="50.46274" lon="1.57434">
        <ele>9.6</ele>
        <time>2014-09-19T14:11:50Z</time>
      </trkpt>
      <trkpt lat="50.46276" lon="1.57408">
        <ele>9.5</ele>
        <time>2014-09-19T14:12:06Z</time>
      </trkpt>
      <trkpt lat="50.46277" lon="1.57395">
        <ele>9.4</ele>
        <time>2014-09-19T14:12:16Z</time>
      </trkpt>
      <trkpt lat="50.46278" lon="1.57382">
        <ele>9.9</ele>
        <time>2014-09-19T14:12:22Z</time>
      </trkpt>
      <trkpt lat="50.46279" lon="1.57369">
        <ele>9.6</ele>
        <time>2014-09-19T14:12:31Z</time>
      </trkpt>
      <trkpt lat="50.46284" lon="1.57359">
        <ele>9.9</ele>
        <time>2014-09-19T14:12:54Z</time>
      </trkpt>
      <trkpt lat="50.46285" lon="1.57358">
        <ele>9.8</ele>
        <time>2014-09-19T14:12:55Z</time>
      </trkpt>
      <trkpt lat="50.46283" lon="1.57344">
        <ele>9.8</ele>
        <time>2014-09-19T14:18:00Z</time>
      </trkpt>
      <trkpt lat="50.46287" lon="1.57321">
        <ele>9</ele>
        <time>2014-09-19T14:18:12Z</time>
      </trkpt>
      <trkpt lat="50.46288" lon="1.57307">
        <ele>9</ele>
        <time>2014-09-19T14:18:24Z</time>
      </trkpt>
      <trkpt lat="50.46291" lon="1.57294">
        <ele>9.2</ele>
        <time>2014-09-19T14:18:32Z</time>
      </trkpt>
      <trkpt lat="50.4629" lon="1.57282">
        <ele>9</ele>
        <time>2014-09-19T14:18:39Z</time>
      </trkpt>
      <trkpt lat="50.46288" lon="1.5727">
        <ele>9.6</ele>
        <time>2014-09-19T14:18:45Z</time>
      </trkpt>
      <trkpt lat="50.46283" lon="1.57259">
        <ele>9.2</ele>
        <time>2014-09-19T14:18:51Z</time>
      </trkpt>
      <trkpt lat="50.46277" lon="1.57253">
        <ele>8.9</ele>
        <time>2014-09-19T14:18:55Z</time>
      </trkpt>
      <trkpt lat="50.46269" lon="1.57247">
        <ele>7.9</ele>
        <time>2014-09-19T14:19:08Z</time>
      </trkpt>
      <trkpt lat="50.46269" lon="1.57246">
        <ele>8.1</ele>
        <time>2014-09-19T14:19:09Z</time>
      </trkpt>
      <trkpt lat="50.46255" lon="1.57233">
        <ele>6.5</ele>
        <time>2014-09-19T14:19:27Z</time>
      </trkpt>
      <trkpt lat="50.46248" lon="1.57224">
        <ele>5.2</ele>
        <time>2014-09-19T14:19:36Z</time>
      </trkpt>
      <trkpt lat="50.46243" lon="1.57214">
        <ele>5.3</ele>
        <time>2014-09-19T14:19:45Z</time>
      </trkpt>
      <trkpt lat="50.46238" lon="1.57203">
        <ele>4.6</ele>
        <time>2014-09-19T14:19:55Z</time>
      </trkpt>
      <trkpt lat="50.46233" lon="1.57192">
        <ele>3.8</ele>
        <time>2014-09-19T14:20:04Z</time>
      </trkpt>
      <trkpt lat="50.46226" lon="1.57184">
        <ele>4</ele>
        <time>2014-09-19T14:20:14Z</time>
      </trkpt>
      <trkpt lat="50.46226" lon="1.57183">
        <ele>3.9</ele>
        <time>2014-09-19T14:20:15Z</time>
      </trkpt>
      <trkpt lat="50.46211" lon="1.57169">
        <ele>4</ele>
        <time>2014-09-19T14:20:33Z</time>
      </trkpt>
      <trkpt lat="50.46204" lon="1.57162">
        <ele>3.9</ele>
        <time>2014-09-19T14:20:41Z</time>
      </trkpt>
      <trkpt lat="50.46197" lon="1.57156">
        <ele>3.4</ele>
        <time>2014-09-19T14:20:49Z</time>
      </trkpt>
      <trkpt lat="50.4619" lon="1.5715">
        <ele>3</ele>
        <time>2014-09-19T14:20:57Z</time>
      </trkpt>
      <trkpt lat="50.46183" lon="1.57142">
        <ele>3</ele>
        <time>2014-09-19T14:21:06Z</time>
      </trkpt>
      <trkpt lat="50.46176" lon="1.57133">
        <ele>3.2</ele>
        <time>2014-09-19T14:21:15Z</time>
      </trkpt>
      <trkpt lat="50.46169" lon="1.57126">
        <ele>2.8</ele>
        <time>2014-09-19T14:21:24Z</time>
      </trkpt>
      <trkpt lat="50.46168" lon="1.57125">
        <ele>2.8</ele>
        <time>2014-09-19T14:21:25Z</time>
      </trkpt>
      <trkpt lat="50.46155" lon="1.57113">
        <ele>2.8</ele>
        <time>2014-09-19T14:21:40Z</time>
      </trkpt>
      <trkpt lat="50.46148" lon="1.57105">
        <ele>2.7</ele>
        <time>2014-09-19T14:21:49Z</time>
      </trkpt>
      <trkpt lat="50.46141" lon="1.57097">
        <ele>2.6</ele>
        <time>2014-09-19T14:21:58Z</time>
      </trkpt>
      <trkpt lat="50.46134" lon="1.57089">
        <ele>3.1</ele>
        <time>2014-09-19T14:22:06Z</time>
      </trkpt>
      <trkpt lat="50.46127" lon="1.57081">
        <ele>3.1</ele>
        <time>2014-09-19T14:22:15Z</time>
      </trkpt>
      <trkpt lat="50.46119" lon="1.57076">
        <ele>2.8</ele>
        <time>2014-09-19T14:22:23Z</time>
      </trkpt>
      <trkpt lat="50.46111" lon="1.57074">
        <ele>2.5</ele>
        <time>2014-09-19T14:22:30Z</time>
      </trkpt>
      <trkpt lat="50.4611" lon="1.57074">
        <ele>2.6</ele>
        <time>2014-09-19T14:22:31Z</time>
      </trkpt>
      <trkpt lat="50.46095" lon="1.57068">
        <ele>2.2</ele>
        <time>2014-09-19T14:22:44Z</time>
      </trkpt>
      <trkpt lat="50.46087" lon="1.57064">
        <ele>2.2</ele>
        <time>2014-09-19T14:22:51Z</time>
      </trkpt>
      <trkpt lat="50.46078" lon="1.57061">
        <ele>2.7</ele>
        <time>2014-09-19T14:22:59Z</time>
      </trkpt>
      <trkpt lat="50.4607" lon="1.57058">
        <ele>2.6</ele>
        <time>2014-09-19T14:23:06Z</time>
      </trkpt>
      <trkpt lat="50.46062" lon="1.57056">
        <ele>2.3</ele>
        <time>2014-09-19T14:23:13Z</time>
      </trkpt>
      <trkpt lat="50.46053" lon="1.57054">
        <ele>1.5</ele>
        <time>2014-09-19T14:23:20Z</time>
      </trkpt>
      <trkpt lat="50.46045" lon="1.5705">
        <ele>2</ele>
        <time>2014-09-19T14:23:27Z</time>
      </trkpt>
      <trkpt lat="50.46037" lon="1.57047">
        <ele>1.7</ele>
        <time>2014-09-19T14:23:34Z</time>
      </trkpt>
      <trkpt lat="50.46036" lon="1.57046">
        <ele>2</ele>
        <time>2014-09-19T14:23:35Z</time>
      </trkpt>
      <trkpt lat="50.46021" lon="1.5704">
        <ele>2.1</ele>
        <time>2014-09-19T14:23:48Z</time>
      </trkpt>
      <trkpt lat="50.46013" lon="1.57037">
        <ele>1.3</ele>
        <time>2014-09-19T14:23:55Z</time>
      </trkpt>
      <trkpt lat="50.46004" lon="1.57036">
        <ele>1.7</ele>
        <time>2014-09-19T14:24:02Z</time>
      </trkpt>
      <trkpt lat="50.45996" lon="1.57036">
        <ele>1.3</ele>
        <time>2014-09-19T14:24:08Z</time>
      </trkpt>
      <trkpt lat="50.45988" lon="1.57035">
        <ele>0.6</ele>
        <time>2014-09-19T14:24:14Z</time>
      </trkpt>
      <trkpt lat="50.4598" lon="1.57034">
        <ele>1.7</ele>
        <time>2014-09-19T14:24:20Z</time>
      </trkpt>
      <trkpt lat="50.45972" lon="1.57033">
        <ele>1.8</ele>
        <time>2014-09-19T14:24:26Z</time>
      </trkpt>
      <trkpt lat="50.45965" lon="1.57032">
        <ele>1.6</ele>
        <time>2014-09-19T14:24:32Z</time>
      </trkpt>
      <trkpt lat="50.45957" lon="1.5703">
        <ele>1.2</ele>
        <time>2014-09-19T14:24:38Z</time>
      </trkpt>
      <trkpt lat="50.45955" lon="1.5703">
        <ele>1.2</ele>
        <time>2014-09-19T14:24:39Z</time>
      </trkpt>
      <trkpt lat="50.45941" lon="1.57027">
        <ele>1.7</ele>
        <time>2014-09-19T14:24:50Z</time>
      </trkpt>
      <trkpt lat="50.45932" lon="1.57026">
        <ele>1.9</ele>
        <time>2014-09-19T14:24:57Z</time>
      </trkpt>
      <trkpt lat="50.45925" lon="1.57025">
        <ele>1.6</ele>
        <time>2014-09-19T14:25:03Z</time>
      </trkpt>
      <trkpt lat="50.45916" lon="1.57024">
        <ele>1.2</ele>
        <time>2014-09-19T14:25:10Z</time>
      </trkpt>
      <trkpt lat="50.45907" lon="1.57023">
        <ele>1.5</ele>
        <time>2014-09-19T14:25:17Z</time>
      </trkpt>
      <trkpt lat="50.45899" lon="1.57021">
        <ele>1.2</ele>
        <time>2014-09-19T14:25:23Z</time>
      </trkpt>
      <trkpt lat="50.45891" lon="1.57021">
        <ele>0.9</ele>
        <time>2014-09-19T14:25:29Z</time>
      </trkpt>
      <trkpt lat="50.45883" lon="1.57019">
        <ele>1.2</ele>
        <time>2014-09-19T14:25:35Z</time>
      </trkpt>
      <trkpt lat="50.45876" lon="1.57017">
        <ele>2</ele>
        <time>2014-09-19T14:25:41Z</time>
      </trkpt>
      <trkpt lat="50.45874" lon="1.57017">
        <ele>1.7</ele>
        <time>2014-09-19T14:25:42Z</time>
      </trkpt>
      <trkpt lat="50.45859" lon="1.57017">
        <ele>1.5</ele>
        <time>2014-09-19T14:25:54Z</time>
      </trkpt>
      <trkpt lat="50.45851" lon="1.57017">
        <ele>0.5</ele>
        <time>2014-09-19T14:26:00Z</time>
      </trkpt>
      <trkpt lat="50.45843" lon="1.57015">
        <ele>1</ele>
        <time>2014-09-19T14:26:06Z</time>
      </trkpt>
      <trkpt lat="50.45834" lon="1.57014">
        <ele>1.1</ele>
        <time>2014-09-19T14:26:13Z</time>
      </trkpt>
      <trkpt lat="50.45825" lon="1.57017">
        <ele>2</ele>
        <time>2014-09-19T14:26:20Z</time>
      </trkpt>
      <trkpt lat="50.45818" lon="1.57018">
        <ele>2</ele>
        <time>2014-09-19T14:26:26Z</time>
      </trkpt>
      <trkpt lat="50.4581" lon="1.57019">
        <ele>1.2</ele>
        <time>2014-09-19T14:26:32Z</time>
      </trkpt>
      <trkpt lat="50.45801" lon="1.5702">
        <ele>1.4</ele>
        <time>2014-09-19T14:26:39Z</time>
      </trkpt>
      <trkpt lat="50.45793" lon="1.57021">
        <ele>1.6</ele>
        <time>2014-09-19T14:26:45Z</time>
      </trkpt>
      <trkpt lat="50.45792" lon="1.57021">
        <ele>1.7</ele>
        <time>2014-09-19T14:26:46Z</time>
      </trkpt>
      <trkpt lat="50.45776" lon="1.57022">
        <ele>1.9</ele>
        <time>2014-09-19T14:26:58Z</time>
      </trkpt>
      <trkpt lat="50.45767" lon="1.57023">
        <ele>1.9</ele>
        <time>2014-09-19T14:27:05Z</time>
      </trkpt>
      <trkpt lat="50.4576" lon="1.57022">
        <ele>1.7</ele>
        <time>2014-09-19T14:27:11Z</time>
      </trkpt>
      <trkpt lat="50.45752" lon="1.57023">
        <ele>1.4</ele>
        <time>2014-09-19T14:27:17Z</time>
      </trkpt>
      <trkpt lat="50.45744" lon="1.57025">
        <ele>1.6</ele>
        <time>2014-09-19T14:27:23Z</time>
      </trkpt>
      <trkpt lat="50.45736" lon="1.57026">
        <ele>2</ele>
        <time>2014-09-19T14:27:29Z</time>
      </trkpt>
      <trkpt lat="50.45728" lon="1.57027">
        <ele>1.9</ele>
        <time>2014-09-19T14:27:35Z</time>
      </trkpt>
      <trkpt lat="50.4572" lon="1.57026">
        <ele>1.6</ele>
        <time>2014-09-19T14:27:41Z</time>
      </trkpt>
      <trkpt lat="50.45712" lon="1.57025">
        <ele>2.1</ele>
        <time>2014-09-19T14:27:47Z</time>
      </trkpt>
      <trkpt lat="50.45711" lon="1.57024">
        <ele>2.1</ele>
        <time>2014-09-19T14:27:48Z</time>
      </trkpt>
      <trkpt lat="50.45697" lon="1.57022">
        <ele>1</ele>
        <time>2014-09-19T14:27:59Z</time>
      </trkpt>
      <trkpt lat="50.45688" lon="1.57021">
        <ele>1.7</ele>
        <time>2014-09-19T14:28:05Z</time>
      </trkpt>
      <trkpt lat="50.45679" lon="1.5702">
        <ele>1.4</ele>
        <time>2014-09-19T14:28:11Z</time>
      </trkpt>
      <trkpt lat="50.45671" lon="1.5702">
        <ele>2.3</ele>
        <time>2014-09-19T14:28:17Z</time>
      </trkpt>
      <trkpt lat="50.45663" lon="1.57019">
        <ele>2</ele>
        <time>2014-09-19T14:28:23Z</time>
      </trkpt>
      <trkpt lat="50.45654" lon="1.57018">
        <ele>2.2</ele>
        <time>2014-09-19T14:28:29Z</time>
      </trkpt>
      <trkpt lat="50.45646" lon="1.57016">
        <ele>2.5</ele>
        <time>2014-09-19T14:28:35Z</time>
      </trkpt>
      <trkpt lat="50.45638" lon="1.57015">
        <ele>2.2</ele>
        <time>2014-09-19T14:28:41Z</time>
      </trkpt>
      <trkpt lat="50.45629" lon="1.57013">
        <ele>2</ele>
        <time>2014-09-19T14:28:51Z</time>
      </trkpt>
      <trkpt lat="50.45628" lon="1.57012">
        <ele>1.8</ele>
        <time>2014-09-19T14:28:52Z</time>
      </trkpt>
      <trkpt lat="50.45613" lon="1.57013">
        <ele>2.3</ele>
        <time>2014-09-19T14:29:03Z</time>
      </trkpt>
      <trkpt lat="50.45605" lon="1.57013">
        <ele>2.7</ele>
        <time>2014-09-19T14:29:09Z</time>
      </trkpt>
      <trkpt lat="50.45597" lon="1.57013">
        <ele>2.8</ele>
        <time>2014-09-19T14:29:15Z</time>
      </trkpt>
      <trkpt lat="50.45589" lon="1.57013">
        <ele>2.2</ele>
        <time>2014-09-19T14:29:21Z</time>
      </trkpt>
      <trkpt lat="50.45581" lon="1.57012">
        <ele>2.3</ele>
        <time>2014-09-19T14:29:27Z</time>
      </trkpt>
      <trkpt lat="50.45573" lon="1.57012">
        <ele>2.4</ele>
        <time>2014-09-19T14:29:33Z</time>
      </trkpt>
      <trkpt lat="50.45565" lon="1.57012">
        <ele>2.6</ele>
        <time>2014-09-19T14:29:39Z</time>
      </trkpt>
      <trkpt lat="50.45557" lon="1.57012">
        <ele>2.7</ele>
        <time>2014-09-19T14:29:45Z</time>
      </trkpt>
      <trkpt lat="50.45549" lon="1.57012">
        <ele>2.8</ele>
        <time>2014-09-19T14:29:51Z</time>
      </trkpt>
      <trkpt lat="50.4554" lon="1.57012">
        <ele>2.8</ele>
        <time>2014-09-19T14:29:57Z</time>
      </trkpt>
      <trkpt lat="50.45539" lon="1.57012">
        <ele>2.8</ele>
        <time>2014-09-19T14:29:58Z</time>
      </trkpt>
      <trkpt lat="50.45523" lon="1.57011">
        <ele>2.8</ele>
        <time>2014-09-19T14:30:09Z</time>
      </trkpt>
      <trkpt lat="50.45515" lon="1.57011">
        <ele>2.6</ele>
        <time>2014-09-19T14:30:15Z</time>
      </trkpt>
      <trkpt lat="50.45507" lon="1.57011">
        <ele>2.7</ele>
        <time>2014-09-19T14:30:21Z</time>
      </trkpt>
      <trkpt lat="50.45498" lon="1.57011">
        <ele>2.8</ele>
        <time>2014-09-19T14:30:27Z</time>
      </trkpt>
      <trkpt lat="50.4549" lon="1.57011">
        <ele>3</ele>
        <time>2014-09-19T14:30:33Z</time>
      </trkpt>
      <trkpt lat="50.45482" lon="1.57011">
        <ele>2.5</ele>
        <time>2014-09-19T14:30:39Z</time>
      </trkpt>
      <trkpt lat="50.45474" lon="1.57011">
        <ele>2.4</ele>
        <time>2014-09-19T14:30:45Z</time>
      </trkpt>
      <trkpt lat="50.45466" lon="1.57012">
        <ele>2.3</ele>
        <time>2014-09-19T14:30:51Z</time>
      </trkpt>
      <trkpt lat="50.45458" lon="1.57012">
        <ele>3</ele>
        <time>2014-09-19T14:30:57Z</time>
      </trkpt>
      <trkpt lat="50.4545" lon="1.57013">
        <ele>3.2</ele>
        <time>2014-09-19T14:31:03Z</time>
      </trkpt>
      <trkpt lat="50.45449" lon="1.57013">
        <ele>3.3</ele>
        <time>2014-09-19T14:31:04Z</time>
      </trkpt>
      <trkpt lat="50.45434" lon="1.57011">
        <ele>3.2</ele>
        <time>2014-09-19T14:31:15Z</time>
      </trkpt>
      <trkpt lat="50.45426" lon="1.57011">
        <ele>3.3</ele>
        <time>2014-09-19T14:31:21Z</time>
      </trkpt>
      <trkpt lat="50.45418" lon="1.57011">
        <ele>2.5</ele>
        <time>2014-09-19T14:31:27Z</time>
      </trkpt>
      <trkpt lat="50.45409" lon="1.5701">
        <ele>3</ele>
        <time>2014-09-19T14:31:33Z</time>
      </trkpt>
      <trkpt lat="50.45401" lon="1.57009">
        <ele>3.1</ele>
        <time>2014-09-19T14:31:39Z</time>
      </trkpt>
      <trkpt lat="50.45393" lon="1.57009">
        <ele>3.5</ele>
        <time>2014-09-19T14:31:45Z</time>
      </trkpt>
      <trkpt lat="50.45385" lon="1.57008">
        <ele>2.9</ele>
        <time>2014-09-19T14:31:51Z</time>
      </trkpt>
      <trkpt lat="50.45377" lon="1.57008">
        <ele>3.1</ele>
        <time>2014-09-19T14:31:57Z</time>
      </trkpt>
      <trkpt lat="50.45369" lon="1.57007">
        <ele>3.2</ele>
        <time>2014-09-19T14:32:03Z</time>
      </trkpt>
      <trkpt lat="50.45361" lon="1.57006">
        <ele>3.5</ele>
        <time>2014-09-19T14:32:09Z</time>
      </trkpt>
      <trkpt lat="50.4536" lon="1.57006">
        <ele>3.6</ele>
        <time>2014-09-19T14:32:10Z</time>
      </trkpt>
      <trkpt lat="50.45344" lon="1.57004">
        <ele>3.9</ele>
        <time>2014-09-19T14:32:21Z</time>
      </trkpt>
      <trkpt lat="50.45337" lon="1.57004">
        <ele>3.4</ele>
        <time>2014-09-19T14:32:27Z</time>
      </trkpt>
      <trkpt lat="50.45328" lon="1.57004">
        <ele>3.6</ele>
        <time>2014-09-19T14:32:33Z</time>
      </trkpt>
      <trkpt lat="50.4532" lon="1.57004">
        <ele>3.5</ele>
        <time>2014-09-19T14:32:39Z</time>
      </trkpt>
      <trkpt lat="50.45312" lon="1.57004">
        <ele>3.2</ele>
        <time>2014-09-19T14:32:45Z</time>
      </trkpt>
      <trkpt lat="50.45304" lon="1.57004">
        <ele>2.6</ele>
        <time>2014-09-19T14:32:51Z</time>
      </trkpt>
      <trkpt lat="50.45296" lon="1.57005">
        <ele>3.4</ele>
        <time>2014-09-19T14:32:57Z</time>
      </trkpt>
      <trkpt lat="50.45289" lon="1.57005">
        <ele>3.6</ele>
        <time>2014-09-19T14:33:03Z</time>
      </trkpt>
      <trkpt lat="50.4528" lon="1.57005">
        <ele>3.6</ele>
        <time>2014-09-19T14:33:10Z</time>
      </trkpt>
      <trkpt lat="50.45278" lon="1.57005">
        <ele>3.6</ele>
        <time>2014-09-19T14:33:11Z</time>
      </trkpt>
      <trkpt lat="50.45264" lon="1.57006">
        <ele>3.5</ele>
        <time>2014-09-19T14:33:22Z</time>
      </trkpt>
      <trkpt lat="50.45256" lon="1.57005">
        <ele>3.6</ele>
        <time>2014-09-19T14:33:28Z</time>
      </trkpt>
      <trkpt lat="50.45248" lon="1.57005">
        <ele>3.1</ele>
        <time>2014-09-19T14:33:34Z</time>
      </trkpt>
      <trkpt lat="50.4524" lon="1.57003">
        <ele>3</ele>
        <time>2014-09-19T14:33:40Z</time>
      </trkpt>
      <trkpt lat="50.45232" lon="1.57002">
        <ele>4</ele>
        <time>2014-09-19T14:33:46Z</time>
      </trkpt>
      <trkpt lat="50.45225" lon="1.57001">
        <ele>4.1</ele>
        <time>2014-09-19T14:33:52Z</time>
      </trkpt>
      <trkpt lat="50.45217" lon="1.57">
        <ele>4</ele>
        <time>2014-09-19T14:33:58Z</time>
      </trkpt>
      <trkpt lat="50.45209" lon="1.56998">
        <ele>3.5</ele>
        <time>2014-09-19T14:34:04Z</time>
      </trkpt>
      <trkpt lat="50.45201" lon="1.56997">
        <ele>3.8</ele>
        <time>2014-09-19T14:34:10Z</time>
      </trkpt>
      <trkpt lat="50.45193" lon="1.56996">
        <ele>3.2</ele>
        <time>2014-09-19T14:34:16Z</time>
      </trkpt>
      <trkpt lat="50.45192" lon="1.56995">
        <ele>3.3</ele>
        <time>2014-09-19T14:34:17Z</time>
      </trkpt>
      <trkpt lat="50.45178" lon="1.5699">
        <ele>4</ele>
        <time>2014-09-19T14:34:28Z</time>
      </trkpt>
      <trkpt lat="50.4517" lon="1.56986">
        <ele>4</ele>
        <time>2014-09-19T14:34:34Z</time>
      </trkpt>
      <trkpt lat="50.45162" lon="1.56985">
        <ele>3.9</ele>
        <time>2014-09-19T14:34:40Z</time>
      </trkpt>
      <trkpt lat="50.45154" lon="1.56984">
        <ele>4.1</ele>
        <time>2014-09-19T14:34:46Z</time>
      </trkpt>
      <trkpt lat="50.45145" lon="1.56984">
        <ele>4.6</ele>
        <time>2014-09-19T14:34:52Z</time>
      </trkpt>
      <trkpt lat="50.45138" lon="1.56984">
        <ele>3.8</ele>
        <time>2014-09-19T14:34:58Z</time>
      </trkpt>
      <trkpt lat="50.4513" lon="1.56984">
        <ele>3.2</ele>
        <time>2014-09-19T14:35:04Z</time>
      </trkpt>
      <trkpt lat="50.45122" lon="1.56984">
        <ele>3</ele>
        <time>2014-09-19T14:35:10Z</time>
      </trkpt>
      <trkpt lat="50.45114" lon="1.56982">
        <ele>3.3</ele>
        <time>2014-09-19T14:35:16Z</time>
      </trkpt>
      <trkpt lat="50.45106" lon="1.56981">
        <ele>4.2</ele>
        <time>2014-09-19T14:35:22Z</time>
      </trkpt>
      <trkpt lat="50.45105" lon="1.56981">
        <ele>4.3</ele>
        <time>2014-09-19T14:35:23Z</time>
      </trkpt>
      <trkpt lat="50.45088" lon="1.56983">
        <ele>4.3</ele>
        <time>2014-09-19T14:35:36Z</time>
      </trkpt>
      <trkpt lat="50.45081" lon="1.56984">
        <ele>4.4</ele>
        <time>2014-09-19T14:35:42Z</time>
      </trkpt>
      <trkpt lat="50.45073" lon="1.56987">
        <ele>4.4</ele>
        <time>2014-09-19T14:35:48Z</time>
      </trkpt>
      <trkpt lat="50.45064" lon="1.56989">
        <ele>4.4</ele>
        <time>2014-09-19T14:35:55Z</time>
      </trkpt>
      <trkpt lat="50.45056" lon="1.56993">
        <ele>4</ele>
        <time>2014-09-19T14:36:02Z</time>
      </trkpt>
      <trkpt lat="50.45048" lon="1.56995">
        <ele>4.5</ele>
        <time>2014-09-19T14:36:08Z</time>
      </trkpt>
      <trkpt lat="50.4504" lon="1.56997">
        <ele>4.7</ele>
        <time>2014-09-19T14:36:14Z</time>
      </trkpt>
      <trkpt lat="50.45032" lon="1.56999">
        <ele>4.4</ele>
        <time>2014-09-19T14:36:20Z</time>
      </trkpt>
      <trkpt lat="50.45024" lon="1.57">
        <ele>4</ele>
        <time>2014-09-19T14:36:26Z</time>
      </trkpt>
      <trkpt lat="50.45023" lon="1.57">
        <ele>3.9</ele>
        <time>2014-09-19T14:36:27Z</time>
      </trkpt>
      <trkpt lat="50.45008" lon="1.56999">
        <ele>4.8</ele>
        <time>2014-09-19T14:36:38Z</time>
      </trkpt>
      <trkpt lat="50.45" lon="1.56998">
        <ele>4</ele>
        <time>2014-09-19T14:36:44Z</time>
      </trkpt>
      <trkpt lat="50.44992" lon="1.56995">
        <ele>3.9</ele>
        <time>2014-09-19T14:36:50Z</time>
      </trkpt>
      <trkpt lat="50.44984" lon="1.56992">
        <ele>3.6</ele>
        <time>2014-09-19T14:36:56Z</time>
      </trkpt>
      <trkpt lat="50.44976" lon="1.5699">
        <ele>4.1</ele>
        <time>2014-09-19T14:37:02Z</time>
      </trkpt>
      <trkpt lat="50.44968" lon="1.56989">
        <ele>4.5</ele>
        <time>2014-09-19T14:37:08Z</time>
      </trkpt>
      <trkpt lat="50.4496" lon="1.56988">
        <ele>4.2</ele>
        <time>2014-09-19T14:37:14Z</time>
      </trkpt>
      <trkpt lat="50.44952" lon="1.56987">
        <ele>3.7</ele>
        <time>2014-09-19T14:37:20Z</time>
      </trkpt>
      <trkpt lat="50.44944" lon="1.56985">
        <ele>4.2</ele>
        <time>2014-09-19T14:37:26Z</time>
      </trkpt>
      <trkpt lat="50.44936" lon="1.56984">
        <ele>3.8</ele>
        <time>2014-09-19T14:37:32Z</time>
      </trkpt>
      <trkpt lat="50.44935" lon="1.56984">
        <ele>3.8</ele>
        <time>2014-09-19T14:37:33Z</time>
      </trkpt>
      <trkpt lat="50.4492" lon="1.56982">
        <ele>4.2</ele>
        <time>2014-09-19T14:37:44Z</time>
      </trkpt>
      <trkpt lat="50.44912" lon="1.56981">
        <ele>4.8</ele>
        <time>2014-09-19T14:37:50Z</time>
      </trkpt>
      <trkpt lat="50.44905" lon="1.5698">
        <ele>4.1</ele>
        <time>2014-09-19T14:37:56Z</time>
      </trkpt>
      <trkpt lat="50.44897" lon="1.5698">
        <ele>3.8</ele>
        <time>2014-09-19T14:38:02Z</time>
      </trkpt>
      <trkpt lat="50.44889" lon="1.5698">
        <ele>4.2</ele>
        <time>2014-09-19T14:38:08Z</time>
      </trkpt>
      <trkpt lat="50.44881" lon="1.56981">
        <ele>4.4</ele>
        <time>2014-09-19T14:38:14Z</time>
      </trkpt>
      <trkpt lat="50.44873" lon="1.56982">
        <ele>4.4</ele>
        <time>2014-09-19T14:38:20Z</time>
      </trkpt>
      <trkpt lat="50.44865" lon="1.56981">
        <ele>4.6</ele>
        <time>2014-09-19T14:38:26Z</time>
      </trkpt>
      <trkpt lat="50.44857" lon="1.56982">
        <ele>5.2</ele>
        <time>2014-09-19T14:38:33Z</time>
      </trkpt>
      <trkpt lat="50.44855" lon="1.56981">
        <ele>5.2</ele>
        <time>2014-09-19T14:38:34Z</time>
      </trkpt>
      <trkpt lat="50.44841" lon="1.5698">
        <ele>4.8</ele>
        <time>2014-09-19T14:38:45Z</time>
      </trkpt>
      <trkpt lat="50.44833" lon="1.56979">
        <ele>4.8</ele>
        <time>2014-09-19T14:38:51Z</time>
      </trkpt>
      <trkpt lat="50.44825" lon="1.56978">
        <ele>4.8</ele>
        <time>2014-09-19T14:38:57Z</time>
      </trkpt>
      <trkpt lat="50.44817" lon="1.56977">
        <ele>4.5</ele>
        <time>2014-09-19T14:39:03Z</time>
      </trkpt>
      <trkpt lat="50.44809" lon="1.56976">
        <ele>5.1</ele>
        <time>2014-09-19T14:39:09Z</time>
      </trkpt>
      <trkpt lat="50.44802" lon="1.56974">
        <ele>5.2</ele>
        <time>2014-09-19T14:39:15Z</time>
      </trkpt>
      <trkpt lat="50.44794" lon="1.56972">
        <ele>5</ele>
        <time>2014-09-19T14:39:21Z</time>
      </trkpt>
      <trkpt lat="50.44786" lon="1.5697">
        <ele>5.2</ele>
        <time>2014-09-19T14:39:27Z</time>
      </trkpt>
      <trkpt lat="50.44778" lon="1.56968">
        <ele>5.5</ele>
        <time>2014-09-19T14:39:33Z</time>
      </trkpt>
      <trkpt lat="50.4477" lon="1.56966">
        <ele>4.7</ele>
        <time>2014-09-19T14:39:39Z</time>
      </trkpt>
      <trkpt lat="50.44769" lon="1.56966">
        <ele>4.6</ele>
        <time>2014-09-19T14:39:40Z</time>
      </trkpt>
      <trkpt lat="50.44754" lon="1.56963">
        <ele>5.1</ele>
        <time>2014-09-19T14:39:51Z</time>
      </trkpt>
      <trkpt lat="50.44746" lon="1.5696">
        <ele>5.2</ele>
        <time>2014-09-19T14:39:57Z</time>
      </trkpt>
      <trkpt lat="50.44738" lon="1.56957">
        <ele>4.9</ele>
        <time>2014-09-19T14:40:03Z</time>
      </trkpt>
      <trkpt lat="50.4473" lon="1.56954">
        <ele>4.8</ele>
        <time>2014-09-19T14:40:09Z</time>
      </trkpt>
      <trkpt lat="50.44723" lon="1.56951">
        <ele>4.8</ele>
        <time>2014-09-19T14:40:15Z</time>
      </trkpt>
      <trkpt lat="50.44715" lon="1.56948">
        <ele>4.8</ele>
        <time>2014-09-19T14:40:21Z</time>
      </trkpt>
      <trkpt lat="50.44707" lon="1.56947">
        <ele>5.1</ele>
        <time>2014-09-19T14:40:27Z</time>
      </trkpt>
      <trkpt lat="50.44699" lon="1.56945">
        <ele>4.6</ele>
        <time>2014-09-19T14:40:33Z</time>
      </trkpt>
      <trkpt lat="50.44691" lon="1.56944">
        <ele>4.1</ele>
        <time>2014-09-19T14:40:39Z</time>
      </trkpt>
      <trkpt lat="50.44682" lon="1.56942">
        <ele>4.7</ele>
        <time>2014-09-19T14:40:45Z</time>
      </trkpt>
      <trkpt lat="50.44681" lon="1.56942">
        <ele>4.8</ele>
        <time>2014-09-19T14:40:46Z</time>
      </trkpt>
      <trkpt lat="50.44666" lon="1.56937">
        <ele>4.2</ele>
        <time>2014-09-19T14:40:57Z</time>
      </trkpt>
      <trkpt lat="50.44659" lon="1.56934">
        <ele>4</ele>
        <time>2014-09-19T14:41:03Z</time>
      </trkpt>
      <trkpt lat="50.44651" lon="1.5693">
        <ele>5</ele>
        <time>2014-09-19T14:41:09Z</time>
      </trkpt>
      <trkpt lat="50.44643" lon="1.56926">
        <ele>4.9</ele>
        <time>2014-09-19T14:41:15Z</time>
      </trkpt>
      <trkpt lat="50.44636" lon="1.56923">
        <ele>4.2</ele>
        <time>2014-09-19T14:41:21Z</time>
      </trkpt>
      <trkpt lat="50.44628" lon="1.5692">
        <ele>4.4</ele>
        <time>2014-09-19T14:41:27Z</time>
      </trkpt>
      <trkpt lat="50.4462" lon="1.56918">
        <ele>4.8</ele>
        <time>2014-09-19T14:41:33Z</time>
      </trkpt>
      <trkpt lat="50.44613" lon="1.56915">
        <ele>4.5</ele>
        <time>2014-09-19T14:41:39Z</time>
      </trkpt>
      <trkpt lat="50.44605" lon="1.56911">
        <ele>4.7</ele>
        <time>2014-09-19T14:41:45Z</time>
      </trkpt>
      <trkpt lat="50.44597" lon="1.56907">
        <ele>4.9</ele>
        <time>2014-09-19T14:41:51Z</time>
      </trkpt>
      <trkpt lat="50.44596" lon="1.56906">
        <ele>5</ele>
        <time>2014-09-19T14:41:52Z</time>
      </trkpt>
      <trkpt lat="50.44581" lon="1.56902">
        <ele>4.5</ele>
        <time>2014-09-19T14:42:03Z</time>
      </trkpt>
      <trkpt lat="50.44573" lon="1.569">
        <ele>4.5</ele>
        <time>2014-09-19T14:42:09Z</time>
      </trkpt>
      <trkpt lat="50.44565" lon="1.56898">
        <ele>4.8</ele>
        <time>2014-09-19T14:42:15Z</time>
      </trkpt>
      <trkpt lat="50.44557" lon="1.56897">
        <ele>4.6</ele>
        <time>2014-09-19T14:42:21Z</time>
      </trkpt>
      <trkpt lat="50.44549" lon="1.56895">
        <ele>4.2</ele>
        <time>2014-09-19T14:42:27Z</time>
      </trkpt>
      <trkpt lat="50.44541" lon="1.56893">
        <ele>5</ele>
        <time>2014-09-19T14:42:33Z</time>
      </trkpt>
      <trkpt lat="50.44533" lon="1.56891">
        <ele>5.2</ele>
        <time>2014-09-19T14:42:39Z</time>
      </trkpt>
      <trkpt lat="50.44525" lon="1.5689">
        <ele>4.9</ele>
        <time>2014-09-19T14:42:45Z</time>
      </trkpt>
      <trkpt lat="50.44517" lon="1.56889">
        <ele>5.1</ele>
        <time>2014-09-19T14:42:51Z</time>
      </trkpt>
      <trkpt lat="50.44509" lon="1.56888">
        <ele>4.8</ele>
        <time>2014-09-19T14:42:57Z</time>
      </trkpt>
      <trkpt lat="50.44507" lon="1.56888">
        <ele>4.7</ele>
        <time>2014-09-19T14:42:58Z</time>
      </trkpt>
      <trkpt lat="50.44492" lon="1.56888">
        <ele>4.5</ele>
        <time>2014-09-19T14:43:10Z</time>
      </trkpt>
      <trkpt lat="50.44484" lon="1.56887">
        <ele>5</ele>
        <time>2014-09-19T14:43:17Z</time>
      </trkpt>
      <trkpt lat="50.44476" lon="1.56887">
        <ele>5.4</ele>
        <time>2014-09-19T14:43:23Z</time>
      </trkpt>
      <trkpt lat="50.44468" lon="1.56886">
        <ele>5.3</ele>
        <time>2014-09-19T14:43:29Z</time>
      </trkpt>
      <trkpt lat="50.4446" lon="1.56886">
        <ele>5</ele>
        <time>2014-09-19T14:43:35Z</time>
      </trkpt>
      <trkpt lat="50.44453" lon="1.56886">
        <ele>5.2</ele>
        <time>2014-09-19T14:43:41Z</time>
      </trkpt>
      <trkpt lat="50.44445" lon="1.56886">
        <ele>5.6</ele>
        <time>2014-09-19T14:43:47Z</time>
      </trkpt>
      <trkpt lat="50.44437" lon="1.56886">
        <ele>5.2</ele>
        <time>2014-09-19T14:43:53Z</time>
      </trkpt>
      <trkpt lat="50.44429" lon="1.56886">
        <ele>5.2</ele>
        <time>2014-09-19T14:43:59Z</time>
      </trkpt>
      <trkpt lat="50.44428" lon="1.56886">
        <ele>5.4</ele>
        <time>2014-09-19T14:44:00Z</time>
      </trkpt>
      <trkpt lat="50.44412" lon="1.5689">
        <ele>4.9</ele>
        <time>2014-09-19T14:44:13Z</time>
      </trkpt>
      <trkpt lat="50.44404" lon="1.5689">
        <ele>5.2</ele>
        <time>2014-09-19T14:44:19Z</time>
      </trkpt>
      <trkpt lat="50.44396" lon="1.5689">
        <ele>5.5</ele>
        <time>2014-09-19T14:44:25Z</time>
      </trkpt>
      <trkpt lat="50.44388" lon="1.56891">
        <ele>6</ele>
        <time>2014-09-19T14:44:31Z</time>
      </trkpt>
      <trkpt lat="50.4438" lon="1.56891">
        <ele>5.9</ele>
        <time>2014-09-19T14:44:37Z</time>
      </trkpt>
      <trkpt lat="50.44372" lon="1.5689">
        <ele>4.9</ele>
        <time>2014-09-19T14:44:43Z</time>
      </trkpt>
      <trkpt lat="50.44364" lon="1.56889">
        <ele>5</ele>
        <time>2014-09-19T14:44:49Z</time>
      </trkpt>
      <trkpt lat="50.44356" lon="1.56888">
        <ele>4.5</ele>
        <time>2014-09-19T14:44:55Z</time>
      </trkpt>
      <trkpt lat="50.44348" lon="1.56886">
        <ele>5.1</ele>
        <time>2014-09-19T14:45:01Z</time>
      </trkpt>
      <trkpt lat="50.44347" lon="1.56886">
        <ele>5.2</ele>
        <time>2014-09-19T14:45:02Z</time>
      </trkpt>
      <trkpt lat="50.44332" lon="1.56881">
        <ele>5.9</ele>
        <time>2014-09-19T14:45:13Z</time>
      </trkpt>
      <trkpt lat="50.44324" lon="1.56878">
        <ele>5.2</ele>
        <time>2014-09-19T14:45:19Z</time>
      </trkpt>
      <trkpt lat="50.44316" lon="1.56876">
        <ele>5.3</ele>
        <time>2014-09-19T14:45:25Z</time>
      </trkpt>
      <trkpt lat="50.44308" lon="1.56873">
        <ele>4.4</ele>
        <time>2014-09-19T14:45:31Z</time>
      </trkpt>
      <trkpt lat="50.44301" lon="1.5687">
        <ele>4.4</ele>
        <time>2014-09-19T14:45:37Z</time>
      </trkpt>
      <trkpt lat="50.44293" lon="1.56866">
        <ele>5.9</ele>
        <time>2014-09-19T14:45:43Z</time>
      </trkpt>
      <trkpt lat="50.44285" lon="1.56862">
        <ele>5.4</ele>
        <time>2014-09-19T14:45:49Z</time>
      </trkpt>
      <trkpt lat="50.44277" lon="1.56858">
        <ele>5.8</ele>
        <time>2014-09-19T14:45:55Z</time>
      </trkpt>
      <trkpt lat="50.44269" lon="1.56854">
        <ele>5.2</ele>
        <time>2014-09-19T14:46:01Z</time>
      </trkpt>
      <trkpt lat="50.44261" lon="1.5685">
        <ele>5.1</ele>
        <time>2014-09-19T14:46:07Z</time>
      </trkpt>
      <trkpt lat="50.4426" lon="1.5685">
        <ele>5.1</ele>
        <time>2014-09-19T14:46:08Z</time>
      </trkpt>
      <trkpt lat="50.44246" lon="1.56843">
        <ele>5.8</ele>
        <time>2014-09-19T14:46:19Z</time>
      </trkpt>
      <trkpt lat="50.44238" lon="1.56841">
        <ele>6.1</ele>
        <time>2014-09-19T14:46:25Z</time>
      </trkpt>
      <trkpt lat="50.4423" lon="1.56838">
        <ele>4.7</ele>
        <time>2014-09-19T14:46:31Z</time>
      </trkpt>
      <trkpt lat="50.44222" lon="1.56836">
        <ele>5</ele>
        <time>2014-09-19T14:46:37Z</time>
      </trkpt>
      <trkpt lat="50.44214" lon="1.56834">
        <ele>5</ele>
        <time>2014-09-19T14:46:43Z</time>
      </trkpt>
      <trkpt lat="50.44207" lon="1.56831">
        <ele>5.3</ele>
        <time>2014-09-19T14:46:48Z</time>
      </trkpt>
      <trkpt lat="50.44199" lon="1.56826">
        <ele>5.7</ele>
        <time>2014-09-19T14:46:54Z</time>
      </trkpt>
      <trkpt lat="50.44192" lon="1.56823">
        <ele>5.4</ele>
        <time>2014-09-19T14:47:00Z</time>
      </trkpt>
      <trkpt lat="50.44184" lon="1.5682">
        <ele>5.2</ele>
        <time>2014-09-19T14:47:06Z</time>
      </trkpt>
      <trkpt lat="50.44176" lon="1.56816">
        <ele>4.6</ele>
        <time>2014-09-19T14:47:12Z</time>
      </trkpt>
      <trkpt lat="50.44175" lon="1.56816">
        <ele>4.5</ele>
        <time>2014-09-19T14:47:13Z</time>
      </trkpt>
      <trkpt lat="50.44161" lon="1.56804">
        <ele>5.3</ele>
        <time>2014-09-19T14:47:25Z</time>
      </trkpt>
      <trkpt lat="50.44154" lon="1.56801">
        <ele>5.6</ele>
        <time>2014-09-19T14:47:31Z</time>
      </trkpt>
      <trkpt lat="50.44146" lon="1.568">
        <ele>5.3</ele>
        <time>2014-09-19T14:47:37Z</time>
      </trkpt>
      <trkpt lat="50.44138" lon="1.568">
        <ele>5</ele>
        <time>2014-09-19T14:47:43Z</time>
      </trkpt>
      <trkpt lat="50.4413" lon="1.568">
        <ele>4.3</ele>
        <time>2014-09-19T14:47:49Z</time>
      </trkpt>
      <trkpt lat="50.44122" lon="1.56798">
        <ele>5.1</ele>
        <time>2014-09-19T14:47:55Z</time>
      </trkpt>
      <trkpt lat="50.44115" lon="1.56798">
        <ele>4.6</ele>
        <time>2014-09-19T14:48:01Z</time>
      </trkpt>
      <trkpt lat="50.44107" lon="1.56796">
        <ele>4.7</ele>
        <time>2014-09-19T14:48:07Z</time>
      </trkpt>
      <trkpt lat="50.44099" lon="1.56796">
        <ele>4.7</ele>
        <time>2014-09-19T14:48:13Z</time>
      </trkpt>
      <trkpt lat="50.44097" lon="1.56796">
        <ele>4.6</ele>
        <time>2014-09-19T14:48:14Z</time>
      </trkpt>
      <trkpt lat="50.44083" lon="1.56793">
        <ele>4.4</ele>
        <time>2014-09-19T14:48:25Z</time>
      </trkpt>
      <trkpt lat="50.44076" lon="1.5679">
        <ele>3.8</ele>
        <time>2014-09-19T14:48:31Z</time>
      </trkpt>
      <trkpt lat="50.44068" lon="1.5679">
        <ele>3.8</ele>
        <time>2014-09-19T14:48:37Z</time>
      </trkpt>
      <trkpt lat="50.4406" lon="1.56791">
        <ele>4.8</ele>
        <time>2014-09-19T14:48:43Z</time>
      </trkpt>
      <trkpt lat="50.44051" lon="1.56792">
        <ele>5</ele>
        <time>2014-09-19T14:48:49Z</time>
      </trkpt>
      <trkpt lat="50.44043" lon="1.56794">
        <ele>4.3</ele>
        <time>2014-09-19T14:48:55Z</time>
      </trkpt>
      <trkpt lat="50.44035" lon="1.56795">
        <ele>3.9</ele>
        <time>2014-09-19T14:49:01Z</time>
      </trkpt>
      <trkpt lat="50.44027" lon="1.56795">
        <ele>4.4</ele>
        <time>2014-09-19T14:49:07Z</time>
      </trkpt>
      <trkpt lat="50.44019" lon="1.56795">
        <ele>4.4</ele>
        <time>2014-09-19T14:49:13Z</time>
      </trkpt>
      <trkpt lat="50.4401" lon="1.56794">
        <ele>4.4</ele>
        <time>2014-09-19T14:49:19Z</time>
      </trkpt>
      <trkpt lat="50.44009" lon="1.56794">
        <ele>4.4</ele>
        <time>2014-09-19T14:49:20Z</time>
      </trkpt>
      <trkpt lat="50.43994" lon="1.5679">
        <ele>4.4</ele>
        <time>2014-09-19T14:49:31Z</time>
      </trkpt>
      <trkpt lat="50.43986" lon="1.56788">
        <ele>4.6</ele>
        <time>2014-09-19T14:49:37Z</time>
      </trkpt>
      <trkpt lat="50.43978" lon="1.56786">
        <ele>4.5</ele>
        <time>2014-09-19T14:49:43Z</time>
      </trkpt>
      <trkpt lat="50.4397" lon="1.56783">
        <ele>4.7</ele>
        <time>2014-09-19T14:49:49Z</time>
      </trkpt>
      <trkpt lat="50.43963" lon="1.56781">
        <ele>3.8</ele>
        <time>2014-09-19T14:49:55Z</time>
      </trkpt>
      <trkpt lat="50.43955" lon="1.56779">
        <ele>4.8</ele>
        <time>2014-09-19T14:50:01Z</time>
      </trkpt>
      <trkpt lat="50.43946" lon="1.56777">
        <ele>4.6</ele>
        <time>2014-09-19T14:50:08Z</time>
      </trkpt>
      <trkpt lat="50.43937" lon="1.56775">
        <ele>4.1</ele>
        <time>2014-09-19T14:50:15Z</time>
      </trkpt>
      <trkpt lat="50.4393" lon="1.56773">
        <ele>4.7</ele>
        <time>2014-09-19T14:50:21Z</time>
      </trkpt>
      <trkpt lat="50.43928" lon="1.56773">
        <ele>4.8</ele>
        <time>2014-09-19T14:50:22Z</time>
      </trkpt>
      <trkpt lat="50.43914" lon="1.5677">
        <ele>4.8</ele>
        <time>2014-09-19T14:50:33Z</time>
      </trkpt>
      <trkpt lat="50.43906" lon="1.56769">
        <ele>4.4</ele>
        <time>2014-09-19T14:50:39Z</time>
      </trkpt>
      <trkpt lat="50.43898" lon="1.56767">
        <ele>4.3</ele>
        <time>2014-09-19T14:50:45Z</time>
      </trkpt>
      <trkpt lat="50.4389" lon="1.56765">
        <ele>4.9</ele>
        <time>2014-09-19T14:50:51Z</time>
      </trkpt>
      <trkpt lat="50.43883" lon="1.56762">
        <ele>5.1</ele>
        <time>2014-09-19T14:50:57Z</time>
      </trkpt>
      <trkpt lat="50.43875" lon="1.5676">
        <ele>4.8</ele>
        <time>2014-09-19T14:51:03Z</time>
      </trkpt>
      <trkpt lat="50.43867" lon="1.56758">
        <ele>5.1</ele>
        <time>2014-09-19T14:51:09Z</time>
      </trkpt>
      <trkpt lat="50.43859" lon="1.56756">
        <ele>5.3</ele>
        <time>2014-09-19T14:51:15Z</time>
      </trkpt>
      <trkpt lat="50.43851" lon="1.56755">
        <ele>5.3</ele>
        <time>2014-09-19T14:51:21Z</time>
      </trkpt>
      <trkpt lat="50.43843" lon="1.56753">
        <ele>5</ele>
        <time>2014-09-19T14:51:27Z</time>
      </trkpt>
      <trkpt lat="50.43841" lon="1.56752">
        <ele>5.1</ele>
        <time>2014-09-19T14:51:28Z</time>
      </trkpt>
      <trkpt lat="50.43826" lon="1.5675">
        <ele>5.1</ele>
        <time>2014-09-19T14:51:39Z</time>
      </trkpt>
      <trkpt lat="50.43818" lon="1.56748">
        <ele>4.9</ele>
        <time>2014-09-19T14:51:45Z</time>
      </trkpt>
      <trkpt lat="50.4381" lon="1.56745">
        <ele>5.3</ele>
        <time>2014-09-19T14:51:51Z</time>
      </trkpt>
      <trkpt lat="50.43802" lon="1.56743">
        <ele>5.3</ele>
        <time>2014-09-19T14:51:56Z</time>
      </trkpt>
      <trkpt lat="50.43793" lon="1.56741">
        <ele>5.6</ele>
        <time>2014-09-19T14:52:02Z</time>
      </trkpt>
      <trkpt lat="50.43785" lon="1.5674">
        <ele>5.6</ele>
        <time>2014-09-19T14:52:08Z</time>
      </trkpt>
      <trkpt lat="50.43777" lon="1.56738">
        <ele>5.2</ele>
        <time>2014-09-19T14:52:14Z</time>
      </trkpt>
      <trkpt lat="50.43769" lon="1.56736">
        <ele>4.8</ele>
        <time>2014-09-19T14:52:20Z</time>
      </trkpt>
      <trkpt lat="50.43761" lon="1.56734">
        <ele>5.6</ele>
        <time>2014-09-19T14:52:26Z</time>
      </trkpt>
      <trkpt lat="50.43752" lon="1.56734">
        <ele>5.5</ele>
        <time>2014-09-19T14:52:32Z</time>
      </trkpt>
      <trkpt lat="50.43751" lon="1.56733">
        <ele>5.7</ele>
        <time>2014-09-19T14:52:33Z</time>
      </trkpt>
      <trkpt lat="50.43736" lon="1.56731">
        <ele>5</ele>
        <time>2014-09-19T14:52:44Z</time>
      </trkpt>
      <trkpt lat="50.43728" lon="1.56729">
        <ele>5</ele>
        <time>2014-09-19T14:52:50Z</time>
      </trkpt>
      <trkpt lat="50.4372" lon="1.56727">
        <ele>4.5</ele>
        <time>2014-09-19T14:52:56Z</time>
      </trkpt>
      <trkpt lat="50.43712" lon="1.56725">
        <ele>3.7</ele>
        <time>2014-09-19T14:53:02Z</time>
      </trkpt>
      <trkpt lat="50.43704" lon="1.56724">
        <ele>4.3</ele>
        <time>2014-09-19T14:53:09Z</time>
      </trkpt>
      <trkpt lat="50.43696" lon="1.56722">
        <ele>4.8</ele>
        <time>2014-09-19T14:53:15Z</time>
      </trkpt>
      <trkpt lat="50.43688" lon="1.56721">
        <ele>5.3</ele>
        <time>2014-09-19T14:53:21Z</time>
      </trkpt>
      <trkpt lat="50.4368" lon="1.56718">
        <ele>5.3</ele>
        <time>2014-09-19T14:53:28Z</time>
      </trkpt>
      <trkpt lat="50.43672" lon="1.56717">
        <ele>5.8</ele>
        <time>2014-09-19T14:53:34Z</time>
      </trkpt>
      <trkpt lat="50.43671" lon="1.56717">
        <ele>5.6</ele>
        <time>2014-09-19T14:53:35Z</time>
      </trkpt>
      <trkpt lat="50.43656" lon="1.56713">
        <ele>5.1</ele>
        <time>2014-09-19T14:53:46Z</time>
      </trkpt>
      <trkpt lat="50.43648" lon="1.56712">
        <ele>5.7</ele>
        <time>2014-09-19T14:53:52Z</time>
      </trkpt>
      <trkpt lat="50.4364" lon="1.56711">
        <ele>5.1</ele>
        <time>2014-09-19T14:53:58Z</time>
      </trkpt>
      <trkpt lat="50.43632" lon="1.56709">
        <ele>5</ele>
        <time>2014-09-19T14:54:04Z</time>
      </trkpt>
      <trkpt lat="50.43625" lon="1.56705">
        <ele>5</ele>
        <time>2014-09-19T14:54:10Z</time>
      </trkpt>
      <trkpt lat="50.43617" lon="1.567">
        <ele>5.1</ele>
        <time>2014-09-19T14:54:17Z</time>
      </trkpt>
      <trkpt lat="50.4361" lon="1.56695">
        <ele>4.9</ele>
        <time>2014-09-19T14:54:22Z</time>
      </trkpt>
      <trkpt lat="50.43603" lon="1.56688">
        <ele>4.3</ele>
        <time>2014-09-19T14:54:28Z</time>
      </trkpt>
      <trkpt lat="50.43596" lon="1.56681">
        <ele>4.6</ele>
        <time>2014-09-19T14:54:35Z</time>
      </trkpt>
      <trkpt lat="50.43595" lon="1.5668">
        <ele>4.5</ele>
        <time>2014-09-19T14:54:36Z</time>
      </trkpt>
      <trkpt lat="50.43579" lon="1.56681">
        <ele>5</ele>
        <time>2014-09-19T14:54:48Z</time>
      </trkpt>
      <trkpt lat="50.43572" lon="1.56685">
        <ele>4.9</ele>
        <time>2014-09-19T14:54:54Z</time>
      </trkpt>
      <trkpt lat="50.43565" lon="1.5669">
        <ele>5.2</ele>
        <time>2014-09-19T14:55:00Z</time>
      </trkpt>
      <trkpt lat="50.43557" lon="1.56693">
        <ele>5.3</ele>
        <time>2014-09-19T14:55:06Z</time>
      </trkpt>
      <trkpt lat="50.43549" lon="1.56693">
        <ele>5.3</ele>
        <time>2014-09-19T14:55:12Z</time>
      </trkpt>
      <trkpt lat="50.43541" lon="1.56693">
        <ele>4.6</ele>
        <time>2014-09-19T14:55:18Z</time>
      </trkpt>
      <trkpt lat="50.43533" lon="1.56693">
        <ele>5.1</ele>
        <time>2014-09-19T14:55:24Z</time>
      </trkpt>
      <trkpt lat="50.43525" lon="1.56694">
        <ele>5.5</ele>
        <time>2014-09-19T14:55:30Z</time>
      </trkpt>
      <trkpt lat="50.43517" lon="1.56694">
        <ele>5.6</ele>
        <time>2014-09-19T14:55:37Z</time>
      </trkpt>
      <trkpt lat="50.43515" lon="1.56694">
        <ele>5.5</ele>
        <time>2014-09-19T14:55:38Z</time>
      </trkpt>
      <trkpt lat="50.435" lon="1.56697">
        <ele>4.8</ele>
        <time>2014-09-19T14:55:49Z</time>
      </trkpt>
      <trkpt lat="50.43492" lon="1.56698">
        <ele>5.2</ele>
        <time>2014-09-19T14:55:55Z</time>
      </trkpt>
      <trkpt lat="50.43484" lon="1.56697">
        <ele>4.1</ele>
        <time>2014-09-19T14:56:01Z</time>
      </trkpt>
      <trkpt lat="50.43476" lon="1.56695">
        <ele>4.9</ele>
        <time>2014-09-19T14:56:07Z</time>
      </trkpt>
      <trkpt lat="50.43468" lon="1.56693">
        <ele>5</ele>
        <time>2014-09-19T14:56:13Z</time>
      </trkpt>
      <trkpt lat="50.43461" lon="1.5669">
        <ele>5.2</ele>
        <time>2014-09-19T14:56:19Z</time>
      </trkpt>
      <trkpt lat="50.43453" lon="1.56688">
        <ele>5.3</ele>
        <time>2014-09-19T14:56:25Z</time>
      </trkpt>
      <trkpt lat="50.43445" lon="1.56687">
        <ele>6</ele>
        <time>2014-09-19T14:56:31Z</time>
      </trkpt>
      <trkpt lat="50.43437" lon="1.56686">
        <ele>5.4</ele>
        <time>2014-09-19T14:56:37Z</time>
      </trkpt>
      <trkpt lat="50.43429" lon="1.56687">
        <ele>5.5</ele>
        <time>2014-09-19T14:56:43Z</time>
      </trkpt>
      <trkpt lat="50.43428" lon="1.56687">
        <ele>5.7</ele>
        <time>2014-09-19T14:56:44Z</time>
      </trkpt>
      <trkpt lat="50.43413" lon="1.56686">
        <ele>7</ele>
        <time>2014-09-19T14:56:55Z</time>
      </trkpt>
      <trkpt lat="50.43405" lon="1.56687">
        <ele>5.8</ele>
        <time>2014-09-19T14:57:01Z</time>
      </trkpt>
      <trkpt lat="50.43396" lon="1.5669">
        <ele>6.1</ele>
        <time>2014-09-19T14:57:08Z</time>
      </trkpt>
      <trkpt lat="50.43389" lon="1.56693">
        <ele>6.4</ele>
        <time>2014-09-19T14:57:14Z</time>
      </trkpt>
      <trkpt lat="50.43381" lon="1.56694">
        <ele>6.1</ele>
        <time>2014-09-19T14:57:20Z</time>
      </trkpt>
      <trkpt lat="50.43373" lon="1.56694">
        <ele>6</ele>
        <time>2014-09-19T14:57:26Z</time>
      </trkpt>
      <trkpt lat="50.43365" lon="1.56694">
        <ele>6.2</ele>
        <time>2014-09-19T14:57:32Z</time>
      </trkpt>
      <trkpt lat="50.43357" lon="1.56693">
        <ele>6.2</ele>
        <time>2014-09-19T14:57:38Z</time>
      </trkpt>
      <trkpt lat="50.43349" lon="1.56693">
        <ele>5.9</ele>
        <time>2014-09-19T14:57:44Z</time>
      </trkpt>
      <trkpt lat="50.43347" lon="1.56692">
        <ele>5.9</ele>
        <time>2014-09-19T14:57:45Z</time>
      </trkpt>
      <trkpt lat="50.43332" lon="1.56691">
        <ele>6.3</ele>
        <time>2014-09-19T14:57:56Z</time>
      </trkpt>
      <trkpt lat="50.43324" lon="1.5669">
        <ele>6</ele>
        <time>2014-09-19T14:58:02Z</time>
      </trkpt>
      <trkpt lat="50.43316" lon="1.56689">
        <ele>5.6</ele>
        <time>2014-09-19T14:58:07Z</time>
      </trkpt>
      <trkpt lat="50.43307" lon="1.56688">
        <ele>6.2</ele>
        <time>2014-09-19T14:58:13Z</time>
      </trkpt>
      <trkpt lat="50.43299" lon="1.56686">
        <ele>6.8</ele>
        <time>2014-09-19T14:58:19Z</time>
      </trkpt>
      <trkpt lat="50.43291" lon="1.56684">
        <ele>6.2</ele>
        <time>2014-09-19T14:58:25Z</time>
      </trkpt>
      <trkpt lat="50.43283" lon="1.56681">
        <ele>6.8</ele>
        <time>2014-09-19T14:58:31Z</time>
      </trkpt>
      <trkpt lat="50.43275" lon="1.56678">
        <ele>5.3</ele>
        <time>2014-09-19T14:58:37Z</time>
      </trkpt>
      <trkpt lat="50.43267" lon="1.56675">
        <ele>5.7</ele>
        <time>2014-09-19T14:58:43Z</time>
      </trkpt>
      <trkpt lat="50.43259" lon="1.56672">
        <ele>5.8</ele>
        <time>2014-09-19T14:58:49Z</time>
      </trkpt>
      <trkpt lat="50.43258" lon="1.56672">
        <ele>6.1</ele>
        <time>2014-09-19T14:58:50Z</time>
      </trkpt>
      <trkpt lat="50.43243" lon="1.56667">
        <ele>5.9</ele>
        <time>2014-09-19T14:59:01Z</time>
      </trkpt>
      <trkpt lat="50.43235" lon="1.56665">
        <ele>6.5</ele>
        <time>2014-09-19T14:59:07Z</time>
      </trkpt>
      <trkpt lat="50.43227" lon="1.56662">
        <ele>6.2</ele>
        <time>2014-09-19T14:59:13Z</time>
      </trkpt>
      <trkpt lat="50.43218" lon="1.5666">
        <ele>6.1</ele>
        <time>2014-09-19T14:59:19Z</time>
      </trkpt>
      <trkpt lat="50.4321" lon="1.56658">
        <ele>5.9</ele>
        <time>2014-09-19T14:59:25Z</time>
      </trkpt>
      <trkpt lat="50.43202" lon="1.56656">
        <ele>6.1</ele>
        <time>2014-09-19T14:59:31Z</time>
      </trkpt>
      <trkpt lat="50.43194" lon="1.56654">
        <ele>6.1</ele>
        <time>2014-09-19T14:59:37Z</time>
      </trkpt>
      <trkpt lat="50.43186" lon="1.56653">
        <ele>6.3</ele>
        <time>2014-09-19T14:59:43Z</time>
      </trkpt>
      <trkpt lat="50.43178" lon="1.56652">
        <ele>6.1</ele>
        <time>2014-09-19T14:59:49Z</time>
      </trkpt>
      <trkpt lat="50.4317" lon="1.56651">
        <ele>6.1</ele>
        <time>2014-09-19T14:59:55Z</time>
      </trkpt>
      <trkpt lat="50.43168" lon="1.56651">
        <ele>6.3</ele>
        <time>2014-09-19T14:59:56Z</time>
      </trkpt>
      <trkpt lat="50.43153" lon="1.56651">
        <ele>6.1</ele>
        <time>2014-09-19T15:00:07Z</time>
      </trkpt>
      <trkpt lat="50.43145" lon="1.56652">
        <ele>6.3</ele>
        <time>2014-09-19T15:00:13Z</time>
      </trkpt>
      <trkpt lat="50.43137" lon="1.56653">
        <ele>5.9</ele>
        <time>2014-09-19T15:00:19Z</time>
      </trkpt>
      <trkpt lat="50.43129" lon="1.56653">
        <ele>5.9</ele>
        <time>2014-09-19T15:00:25Z</time>
      </trkpt>
      <trkpt lat="50.43121" lon="1.56653">
        <ele>6.3</ele>
        <time>2014-09-19T15:00:31Z</time>
      </trkpt>
      <trkpt lat="50.43113" lon="1.56652">
        <ele>6.6</ele>
        <time>2014-09-19T15:00:37Z</time>
      </trkpt>
      <trkpt lat="50.43104" lon="1.56652">
        <ele>5.9</ele>
        <time>2014-09-19T15:00:43Z</time>
      </trkpt>
      <trkpt lat="50.43096" lon="1.56651">
        <ele>6.1</ele>
        <time>2014-09-19T15:00:49Z</time>
      </trkpt>
      <trkpt lat="50.43088" lon="1.56651">
        <ele>6.6</ele>
        <time>2014-09-19T15:00:55Z</time>
      </trkpt>
      <trkpt lat="50.4308" lon="1.5665">
        <ele>6.9</ele>
        <time>2014-09-19T15:01:01Z</time>
      </trkpt>
      <trkpt lat="50.43078" lon="1.5665">
        <ele>6.9</ele>
        <time>2014-09-19T15:01:02Z</time>
      </trkpt>
      <trkpt lat="50.43064" lon="1.56647">
        <ele>6.7</ele>
        <time>2014-09-19T15:01:13Z</time>
      </trkpt>
      <trkpt lat="50.43056" lon="1.56645">
        <ele>6.9</ele>
        <time>2014-09-19T15:01:19Z</time>
      </trkpt>
      <trkpt lat="50.43049" lon="1.56642">
        <ele>6.5</ele>
        <time>2014-09-19T15:01:25Z</time>
      </trkpt>
      <trkpt lat="50.43041" lon="1.56638">
        <ele>6.9</ele>
        <time>2014-09-19T15:01:31Z</time>
      </trkpt>
      <trkpt lat="50.43033" lon="1.56634">
        <ele>6.7</ele>
        <time>2014-09-19T15:01:37Z</time>
      </trkpt>
      <trkpt lat="50.43026" lon="1.56631">
        <ele>6.9</ele>
        <time>2014-09-19T15:01:43Z</time>
      </trkpt>
      <trkpt lat="50.43018" lon="1.56627">
        <ele>6.7</ele>
        <time>2014-09-19T15:01:49Z</time>
      </trkpt>
      <trkpt lat="50.4301" lon="1.56623">
        <ele>7.1</ele>
        <time>2014-09-19T15:01:55Z</time>
      </trkpt>
      <trkpt lat="50.43002" lon="1.56619">
        <ele>7</ele>
        <time>2014-09-19T15:02:01Z</time>
      </trkpt>
      <trkpt lat="50.42995" lon="1.56614">
        <ele>6.7</ele>
        <time>2014-09-19T15:02:07Z</time>
      </trkpt>
      <trkpt lat="50.42994" lon="1.56613">
        <ele>6.8</ele>
        <time>2014-09-19T15:02:08Z</time>
      </trkpt>
      <trkpt lat="50.4298" lon="1.56605">
        <ele>6.3</ele>
        <time>2014-09-19T15:02:19Z</time>
      </trkpt>
      <trkpt lat="50.42972" lon="1.56601">
        <ele>7.3</ele>
        <time>2014-09-19T15:02:25Z</time>
      </trkpt>
      <trkpt lat="50.42963" lon="1.56597">
        <ele>7</ele>
        <time>2014-09-19T15:02:31Z</time>
      </trkpt>
      <trkpt lat="50.42956" lon="1.56594">
        <ele>6.6</ele>
        <time>2014-09-19T15:02:36Z</time>
      </trkpt>
      <trkpt lat="50.42948" lon="1.56591">
        <ele>7.2</ele>
        <time>2014-09-19T15:02:41Z</time>
      </trkpt>
      <trkpt lat="50.42941" lon="1.56588">
        <ele>6.5</ele>
        <time>2014-09-19T15:02:46Z</time>
      </trkpt>
      <trkpt lat="50.42933" lon="1.56585">
        <ele>7.1</ele>
        <time>2014-09-19T15:02:51Z</time>
      </trkpt>
      <trkpt lat="50.42926" lon="1.56583">
        <ele>7</ele>
        <time>2014-09-19T15:02:56Z</time>
      </trkpt>
      <trkpt lat="50.42917" lon="1.56581">
        <ele>7</ele>
        <time>2014-09-19T15:03:02Z</time>
      </trkpt>
      <trkpt lat="50.42908" lon="1.56578">
        <ele>6.9</ele>
        <time>2014-09-19T15:03:08Z</time>
      </trkpt>
      <trkpt lat="50.42907" lon="1.56577">
        <ele>6.9</ele>
        <time>2014-09-19T15:03:09Z</time>
      </trkpt>
      <trkpt lat="50.42891" lon="1.56573">
        <ele>7.4</ele>
        <time>2014-09-19T15:03:20Z</time>
      </trkpt>
      <trkpt lat="50.42883" lon="1.5657">
        <ele>7.5</ele>
        <time>2014-09-19T15:03:26Z</time>
      </trkpt>
      <trkpt lat="50.42874" lon="1.56568">
        <ele>7.6</ele>
        <time>2014-09-19T15:03:32Z</time>
      </trkpt>
      <trkpt lat="50.42865" lon="1.56566">
        <ele>7.7</ele>
        <time>2014-09-19T15:03:38Z</time>
      </trkpt>
      <trkpt lat="50.42857" lon="1.56564">
        <ele>8.6</ele>
        <time>2014-09-19T15:03:44Z</time>
      </trkpt>
      <trkpt lat="50.42849" lon="1.56564">
        <ele>6.2</ele>
        <time>2014-09-19T15:03:50Z</time>
      </trkpt>
      <trkpt lat="50.4284" lon="1.56564">
        <ele>7.2</ele>
        <time>2014-09-19T15:03:57Z</time>
      </trkpt>
      <trkpt lat="50.42831" lon="1.56562">
        <ele>7.7</ele>
        <time>2014-09-19T15:04:04Z</time>
      </trkpt>
      <trkpt lat="50.42823" lon="1.56561">
        <ele>8.3</ele>
        <time>2014-09-19T15:04:11Z</time>
      </trkpt>
      <trkpt lat="50.42821" lon="1.56561">
        <ele>4.2</ele>
        <time>2014-09-19T15:04:12Z</time>
      </trkpt>
      <trkpt lat="50.42805" lon="1.56557">
        <ele>6.6</ele>
        <time>2014-09-19T15:04:25Z</time>
      </trkpt>
      <trkpt lat="50.42796" lon="1.56555">
        <ele>7.4</ele>
        <time>2014-09-19T15:04:32Z</time>
      </trkpt>
      <trkpt lat="50.42788" lon="1.56553">
        <ele>7.2</ele>
        <time>2014-09-19T15:04:39Z</time>
      </trkpt>
      <trkpt lat="50.4278" lon="1.56553">
        <ele>6.6</ele>
        <time>2014-09-19T15:04:45Z</time>
      </trkpt>
      <trkpt lat="50.42772" lon="1.56552">
        <ele>6.7</ele>
        <time>2014-09-19T15:04:51Z</time>
      </trkpt>
      <trkpt lat="50.42764" lon="1.5655">
        <ele>6.4</ele>
        <time>2014-09-19T15:04:57Z</time>
      </trkpt>
      <trkpt lat="50.42757" lon="1.56546">
        <ele>6.4</ele>
        <time>2014-09-19T15:05:03Z</time>
      </trkpt>
      <trkpt lat="50.42748" lon="1.56543">
        <ele>6.7</ele>
        <time>2014-09-19T15:05:10Z</time>
      </trkpt>
      <trkpt lat="50.4274" lon="1.56538">
        <ele>6.4</ele>
        <time>2014-09-19T15:05:17Z</time>
      </trkpt>
      <trkpt lat="50.42739" lon="1.56538">
        <ele>6.7</ele>
        <time>2014-09-19T15:05:18Z</time>
      </trkpt>
      <trkpt lat="50.42724" lon="1.56531">
        <ele>7.2</ele>
        <time>2014-09-19T15:05:31Z</time>
      </trkpt>
      <trkpt lat="50.42716" lon="1.56524">
        <ele>7</ele>
        <time>2014-09-19T15:05:40Z</time>
      </trkpt>
      <trkpt lat="50.42708" lon="1.56525">
        <ele>7.3</ele>
        <time>2014-09-19T15:05:49Z</time>
      </trkpt>
      <trkpt lat="50.427" lon="1.56529">
        <ele>8</ele>
        <time>2014-09-19T15:05:58Z</time>
      </trkpt>
      <trkpt lat="50.42692" lon="1.56535">
        <ele>7.8</ele>
        <time>2014-09-19T15:06:07Z</time>
      </trkpt>
      <trkpt lat="50.42684" lon="1.56539">
        <ele>7.4</ele>
        <time>2014-09-19T15:06:15Z</time>
      </trkpt>
      <trkpt lat="50.42675" lon="1.5654">
        <ele>7.3</ele>
        <time>2014-09-19T15:06:23Z</time>
      </trkpt>
      <trkpt lat="50.42674" lon="1.5654">
        <ele>7.2</ele>
        <time>2014-09-19T15:06:24Z</time>
      </trkpt>
      <trkpt lat="50.42658" lon="1.56539">
        <ele>7.6</ele>
        <time>2014-09-19T15:06:39Z</time>
      </trkpt>
      <trkpt lat="50.4265" lon="1.56539">
        <ele>7.2</ele>
        <time>2014-09-19T15:06:47Z</time>
      </trkpt>
      <trkpt lat="50.42641" lon="1.56539">
        <ele>7.8</ele>
        <time>2014-09-19T15:06:55Z</time>
      </trkpt>
      <trkpt lat="50.42634" lon="1.56541">
        <ele>6.6</ele>
        <time>2014-09-19T15:07:02Z</time>
      </trkpt>
      <trkpt lat="50.42625" lon="1.56542">
        <ele>7.3</ele>
        <time>2014-09-19T15:07:10Z</time>
      </trkpt>
      <trkpt lat="50.42617" lon="1.56542">
        <ele>7.9</ele>
        <time>2014-09-19T15:07:18Z</time>
      </trkpt>
      <trkpt lat="50.42609" lon="1.56539">
        <ele>7.8</ele>
        <time>2014-09-19T15:07:26Z</time>
      </trkpt>
      <trkpt lat="50.42608" lon="1.56538">
        <ele>7.8</ele>
        <time>2014-09-19T15:07:27Z</time>
      </trkpt>
      <trkpt lat="50.42593" lon="1.56535">
        <ele>7.6</ele>
        <time>2014-09-19T15:07:40Z</time>
      </trkpt>
      <trkpt lat="50.42585" lon="1.56533">
        <ele>7.3</ele>
        <time>2014-09-19T15:07:47Z</time>
      </trkpt>
      <trkpt lat="50.42577" lon="1.56532">
        <ele>7.7</ele>
        <time>2014-09-19T15:07:54Z</time>
      </trkpt>
      <trkpt lat="50.42568" lon="1.56531">
        <ele>8.9</ele>
        <time>2014-09-19T15:08:02Z</time>
      </trkpt>
      <trkpt lat="50.42559" lon="1.56529">
        <ele>7.2</ele>
        <time>2014-09-19T15:08:10Z</time>
      </trkpt>
      <trkpt lat="50.42551" lon="1.56526">
        <ele>7.5</ele>
        <time>2014-09-19T15:08:18Z</time>
      </trkpt>
      <trkpt lat="50.42543" lon="1.5652">
        <ele>7.1</ele>
        <time>2014-09-19T15:08:26Z</time>
      </trkpt>
      <trkpt lat="50.42535" lon="1.56513">
        <ele>7</ele>
        <time>2014-09-19T15:08:34Z</time>
      </trkpt>
      <trkpt lat="50.42534" lon="1.56512">
        <ele>7</ele>
        <time>2014-09-19T15:08:35Z</time>
      </trkpt>
      <trkpt lat="50.4252" lon="1.56503">
        <ele>7.5</ele>
        <time>2014-09-19T15:08:50Z</time>
      </trkpt>
      <trkpt lat="50.42512" lon="1.56499">
        <ele>7.1</ele>
        <time>2014-09-19T15:08:58Z</time>
      </trkpt>
      <trkpt lat="50.42505" lon="1.56491">
        <ele>7.5</ele>
        <time>2014-09-19T15:09:06Z</time>
      </trkpt>
      <trkpt lat="50.42497" lon="1.56485">
        <ele>7.1</ele>
        <time>2014-09-19T15:09:14Z</time>
      </trkpt>
      <trkpt lat="50.42489" lon="1.56481">
        <ele>6.8</ele>
        <time>2014-09-19T15:09:22Z</time>
      </trkpt>
      <trkpt lat="50.42482" lon="1.56475">
        <ele>6.6</ele>
        <time>2014-09-19T15:09:30Z</time>
      </trkpt>
      <trkpt lat="50.42474" lon="1.56471">
        <ele>7.3</ele>
        <time>2014-09-19T15:09:37Z</time>
      </trkpt>
      <trkpt lat="50.42473" lon="1.56471">
        <ele>7.4</ele>
        <time>2014-09-19T15:09:38Z</time>
      </trkpt>
      <trkpt lat="50.42458" lon="1.56463">
        <ele>7.2</ele>
        <time>2014-09-19T15:09:51Z</time>
      </trkpt>
      <trkpt lat="50.42449" lon="1.56459">
        <ele>7.7</ele>
        <time>2014-09-19T15:09:58Z</time>
      </trkpt>
      <trkpt lat="50.42442" lon="1.56453">
        <ele>6.8</ele>
        <time>2014-09-19T15:10:04Z</time>
      </trkpt>
      <trkpt lat="50.42434" lon="1.56449">
        <ele>6.6</ele>
        <time>2014-09-19T15:10:10Z</time>
      </trkpt>
      <trkpt lat="50.42427" lon="1.56445">
        <ele>6.8</ele>
        <time>2014-09-19T15:10:16Z</time>
      </trkpt>
      <trkpt lat="50.42419" lon="1.56442">
        <ele>7.5</ele>
        <time>2014-09-19T15:10:22Z</time>
      </trkpt>
      <trkpt lat="50.4241" lon="1.5644">
        <ele>6.6</ele>
        <time>2014-09-19T15:10:29Z</time>
      </trkpt>
      <trkpt lat="50.42402" lon="1.56437">
        <ele>6.7</ele>
        <time>2014-09-19T15:10:35Z</time>
      </trkpt>
      <trkpt lat="50.42394" lon="1.56434">
        <ele>6.8</ele>
        <time>2014-09-19T15:10:41Z</time>
      </trkpt>
      <trkpt lat="50.42393" lon="1.56433">
        <ele>6.9</ele>
        <time>2014-09-19T15:10:42Z</time>
      </trkpt>
      <trkpt lat="50.42379" lon="1.56429">
        <ele>7.5</ele>
        <time>2014-09-19T15:10:53Z</time>
      </trkpt>
      <trkpt lat="50.42371" lon="1.56426">
        <ele>6.6</ele>
        <time>2014-09-19T15:10:59Z</time>
      </trkpt>
      <trkpt lat="50.42363" lon="1.56422">
        <ele>6.9</ele>
        <time>2014-09-19T15:11:05Z</time>
      </trkpt>
      <trkpt lat="50.42355" lon="1.5642">
        <ele>6.2</ele>
        <time>2014-09-19T15:11:18Z</time>
      </trkpt>
      <trkpt lat="50.42347" lon="1.56417">
        <ele>5.9</ele>
        <time>2014-09-19T15:11:24Z</time>
      </trkpt>
      <trkpt lat="50.42339" lon="1.56414">
        <ele>6.2</ele>
        <time>2014-09-19T15:11:30Z</time>
      </trkpt>
      <trkpt lat="50.42331" lon="1.56412">
        <ele>6.3</ele>
        <time>2014-09-19T15:11:36Z</time>
      </trkpt>
      <trkpt lat="50.42323" lon="1.56412">
        <ele>4.6</ele>
        <time>2014-09-19T15:11:42Z</time>
      </trkpt>
      <trkpt lat="50.42322" lon="1.56411">
        <ele>5</ele>
        <time>2014-09-19T15:11:43Z</time>
      </trkpt>
      <trkpt lat="50.42306" lon="1.56409">
        <ele>4.8</ele>
        <time>2014-09-19T15:11:54Z</time>
      </trkpt>
      <trkpt lat="50.42298" lon="1.56407">
        <ele>4.8</ele>
        <time>2014-09-19T15:12:00Z</time>
      </trkpt>
      <trkpt lat="50.42289" lon="1.56406">
        <ele>5.5</ele>
        <time>2014-09-19T15:12:06Z</time>
      </trkpt>
      <trkpt lat="50.4228" lon="1.56404">
        <ele>4.9</ele>
        <time>2014-09-19T15:12:12Z</time>
      </trkpt>
      <trkpt lat="50.42272" lon="1.56401">
        <ele>4.5</ele>
        <time>2014-09-19T15:12:18Z</time>
      </trkpt>
      <trkpt lat="50.42264" lon="1.56399">
        <ele>5.2</ele>
        <time>2014-09-19T15:12:24Z</time>
      </trkpt>
      <trkpt lat="50.42256" lon="1.56397">
        <ele>5.2</ele>
        <time>2014-09-19T15:12:30Z</time>
      </trkpt>
      <trkpt lat="50.42247" lon="1.56396">
        <ele>6.1</ele>
        <time>2014-09-19T15:12:36Z</time>
      </trkpt>
      <trkpt lat="50.42239" lon="1.56393">
        <ele>5.5</ele>
        <time>2014-09-19T15:12:42Z</time>
      </trkpt>
      <trkpt lat="50.4223" lon="1.56391">
        <ele>5.9</ele>
        <time>2014-09-19T15:12:48Z</time>
      </trkpt>
      <trkpt lat="50.42229" lon="1.5639">
        <ele>5.9</ele>
        <time>2014-09-19T15:12:49Z</time>
      </trkpt>
      <trkpt lat="50.42214" lon="1.56385">
        <ele>5.8</ele>
        <time>2014-09-19T15:13:00Z</time>
      </trkpt>
      <trkpt lat="50.42206" lon="1.56382">
        <ele>6.2</ele>
        <time>2014-09-19T15:13:06Z</time>
      </trkpt>
      <trkpt lat="50.42198" lon="1.56379">
        <ele>6.1</ele>
        <time>2014-09-19T15:13:12Z</time>
      </trkpt>
      <trkpt lat="50.42189" lon="1.56376">
        <ele>5.8</ele>
        <time>2014-09-19T15:13:19Z</time>
      </trkpt>
      <trkpt lat="50.42181" lon="1.56373">
        <ele>6.1</ele>
        <time>2014-09-19T15:13:26Z</time>
      </trkpt>
      <trkpt lat="50.42173" lon="1.56374">
        <ele>5.5</ele>
        <time>2014-09-19T15:13:33Z</time>
      </trkpt>
      <trkpt lat="50.42165" lon="1.56375">
        <ele>5.4</ele>
        <time>2014-09-19T15:13:39Z</time>
      </trkpt>
      <trkpt lat="50.42156" lon="1.56374">
        <ele>6.1</ele>
        <time>2014-09-19T15:13:45Z</time>
      </trkpt>
      <trkpt lat="50.42148" lon="1.56374">
        <ele>6.4</ele>
        <time>2014-09-19T15:13:51Z</time>
      </trkpt>
      <trkpt lat="50.42147" lon="1.56374">
        <ele>6.1</ele>
        <time>2014-09-19T15:13:52Z</time>
      </trkpt>
      <trkpt lat="50.42132" lon="1.56371">
        <ele>6.3</ele>
        <time>2014-09-19T15:14:03Z</time>
      </trkpt>
      <trkpt lat="50.42123" lon="1.56369">
        <ele>6.2</ele>
        <time>2014-09-19T15:14:09Z</time>
      </trkpt>
      <trkpt lat="50.42115" lon="1.56367">
        <ele>5.8</ele>
        <time>2014-09-19T15:14:15Z</time>
      </trkpt>
      <trkpt lat="50.42107" lon="1.56365">
        <ele>6.1</ele>
        <time>2014-09-19T15:14:21Z</time>
      </trkpt>
      <trkpt lat="50.42099" lon="1.56363">
        <ele>6.8</ele>
        <time>2014-09-19T15:14:27Z</time>
      </trkpt>
      <trkpt lat="50.42091" lon="1.56359">
        <ele>6.4</ele>
        <time>2014-09-19T15:14:33Z</time>
      </trkpt>
      <trkpt lat="50.42083" lon="1.56357">
        <ele>6.7</ele>
        <time>2014-09-19T15:14:39Z</time>
      </trkpt>
      <trkpt lat="50.42075" lon="1.56355">
        <ele>6.3</ele>
        <time>2014-09-19T15:14:45Z</time>
      </trkpt>
      <trkpt lat="50.42067" lon="1.56351">
        <ele>6.7</ele>
        <time>2014-09-19T15:14:51Z</time>
      </trkpt>
      <trkpt lat="50.42059" lon="1.56348">
        <ele>6.3</ele>
        <time>2014-09-19T15:14:57Z</time>
      </trkpt>
      <trkpt lat="50.42058" lon="1.56347">
        <ele>6.3</ele>
        <time>2014-09-19T15:14:58Z</time>
      </trkpt>
      <trkpt lat="50.42044" lon="1.56342">
        <ele>5.9</ele>
        <time>2014-09-19T15:15:09Z</time>
      </trkpt>
      <trkpt lat="50.42036" lon="1.56339">
        <ele>5.6</ele>
        <time>2014-09-19T15:15:15Z</time>
      </trkpt>
      <trkpt lat="50.42027" lon="1.56336">
        <ele>5.8</ele>
        <time>2014-09-19T15:15:22Z</time>
      </trkpt>
      <trkpt lat="50.42019" lon="1.56332">
        <ele>6.3</ele>
        <time>2014-09-19T15:15:29Z</time>
      </trkpt>
      <trkpt lat="50.42013" lon="1.56323">
        <ele>5.9</ele>
        <time>2014-09-19T15:15:35Z</time>
      </trkpt>
      <trkpt lat="50.42008" lon="1.56315">
        <ele>5.1</ele>
        <time>2014-09-19T15:15:41Z</time>
      </trkpt>
      <trkpt lat="50.42002" lon="1.56306">
        <ele>6.2</ele>
        <time>2014-09-19T15:15:47Z</time>
      </trkpt>
      <trkpt lat="50.41997" lon="1.56297">
        <ele>5.5</ele>
        <time>2014-09-19T15:15:53Z</time>
      </trkpt>
      <trkpt lat="50.41992" lon="1.56287">
        <ele>5.7</ele>
        <time>2014-09-19T15:15:59Z</time>
      </trkpt>
      <trkpt lat="50.41991" lon="1.56285">
        <ele>5.4</ele>
        <time>2014-09-19T15:16:00Z</time>
      </trkpt>
      <trkpt lat="50.41979" lon="1.56272">
        <ele>5.1</ele>
        <time>2014-09-19T15:16:11Z</time>
      </trkpt>
      <trkpt lat="50.41972" lon="1.56264">
        <ele>5.2</ele>
        <time>2014-09-19T15:16:18Z</time>
      </trkpt>
      <trkpt lat="50.41966" lon="1.56256">
        <ele>5.9</ele>
        <time>2014-09-19T15:16:24Z</time>
      </trkpt>
      <trkpt lat="50.41961" lon="1.56247">
        <ele>5.8</ele>
        <time>2014-09-19T15:16:30Z</time>
      </trkpt>
      <trkpt lat="50.41956" lon="1.56237">
        <ele>5.5</ele>
        <time>2014-09-19T15:16:36Z</time>
      </trkpt>
      <trkpt lat="50.4195" lon="1.56229">
        <ele>5.4</ele>
        <time>2014-09-19T15:16:42Z</time>
      </trkpt>
      <trkpt lat="50.41944" lon="1.5622">
        <ele>6</ele>
        <time>2014-09-19T15:16:48Z</time>
      </trkpt>
      <trkpt lat="50.41938" lon="1.56211">
        <ele>5.6</ele>
        <time>2014-09-19T15:16:56Z</time>
      </trkpt>
      <trkpt lat="50.41931" lon="1.56205">
        <ele>5.8</ele>
        <time>2014-09-19T15:17:05Z</time>
      </trkpt>
      <trkpt lat="50.4193" lon="1.56204">
        <ele>5.9</ele>
        <time>2014-09-19T15:17:06Z</time>
      </trkpt>
      <trkpt lat="50.41914" lon="1.56205">
        <ele>5.9</ele>
        <time>2014-09-19T15:17:26Z</time>
      </trkpt>
      <trkpt lat="50.41906" lon="1.56205">
        <ele>6.3</ele>
        <time>2014-09-19T15:17:33Z</time>
      </trkpt>
      <trkpt lat="50.41898" lon="1.56203">
        <ele>3.4</ele>
        <time>2014-09-19T15:17:40Z</time>
      </trkpt>
      <trkpt lat="50.41889" lon="1.56201">
        <ele>5.4</ele>
        <time>2014-09-19T15:17:47Z</time>
      </trkpt>
      <trkpt lat="50.41882" lon="1.56199">
        <ele>5.3</ele>
        <time>2014-09-19T15:17:54Z</time>
      </trkpt>
      <trkpt lat="50.41873" lon="1.56197">
        <ele>4.7</ele>
        <time>2014-09-19T15:18:01Z</time>
      </trkpt>
      <trkpt lat="50.41865" lon="1.56195">
        <ele>3.4</ele>
        <time>2014-09-19T15:18:08Z</time>
      </trkpt>
      <trkpt lat="50.41864" lon="1.56195">
        <ele>4.9</ele>
        <time>2014-09-19T15:18:09Z</time>
      </trkpt>
      <trkpt lat="50.41848" lon="1.56192">
        <ele>6.5</ele>
        <time>2014-09-19T15:18:24Z</time>
      </trkpt>
      <trkpt lat="50.41839" lon="1.56191">
        <ele>7.9</ele>
        <time>2014-09-19T15:18:32Z</time>
      </trkpt>
      <trkpt lat="50.41831" lon="1.56191">
        <ele>5.6</ele>
        <time>2014-09-19T15:18:40Z</time>
      </trkpt>
      <trkpt lat="50.41822" lon="1.56191">
        <ele>6.3</ele>
        <time>2014-09-19T15:18:48Z</time>
      </trkpt>
      <trkpt lat="50.41814" lon="1.56189">
        <ele>6.5</ele>
        <time>2014-09-19T15:18:56Z</time>
      </trkpt>
      <trkpt lat="50.41805" lon="1.56187">
        <ele>5.9</ele>
        <time>2014-09-19T15:19:04Z</time>
      </trkpt>
      <trkpt lat="50.41797" lon="1.56183">
        <ele>5.6</ele>
        <time>2014-09-19T15:19:12Z</time>
      </trkpt>
      <trkpt lat="50.41796" lon="1.56182">
        <ele>5.7</ele>
        <time>2014-09-19T15:19:13Z</time>
      </trkpt>
      <trkpt lat="50.4178" lon="1.56176">
        <ele>6.1</ele>
        <time>2014-09-19T15:19:28Z</time>
      </trkpt>
      <trkpt lat="50.41771" lon="1.56177">
        <ele>5.9</ele>
        <time>2014-09-19T15:19:36Z</time>
      </trkpt>
      <trkpt lat="50.41763" lon="1.56179">
        <ele>5.2</ele>
        <time>2014-09-19T15:19:44Z</time>
      </trkpt>
      <trkpt lat="50.41754" lon="1.56179">
        <ele>6.1</ele>
        <time>2014-09-19T15:19:52Z</time>
      </trkpt>
      <trkpt lat="50.41745" lon="1.56178">
        <ele>6.9</ele>
        <time>2014-09-19T15:20:19Z</time>
      </trkpt>
      <trkpt lat="50.41744" lon="1.56177">
        <ele>6.9</ele>
        <time>2014-09-19T15:20:20Z</time>
      </trkpt>
      <trkpt lat="50.41729" lon="1.56169">
        <ele>5.8</ele>
        <time>2014-09-19T15:20:34Z</time>
      </trkpt>
      <trkpt lat="50.41721" lon="1.56166">
        <ele>6.4</ele>
        <time>2014-09-19T15:20:41Z</time>
      </trkpt>
      <trkpt lat="50.41713" lon="1.56163">
        <ele>6</ele>
        <time>2014-09-19T15:20:48Z</time>
      </trkpt>
      <trkpt lat="50.41704" lon="1.56163">
        <ele>6.1</ele>
        <time>2014-09-19T15:20:55Z</time>
      </trkpt>
      <trkpt lat="50.41696" lon="1.56161">
        <ele>5.8</ele>
        <time>2014-09-19T15:21:02Z</time>
      </trkpt>
      <trkpt lat="50.41688" lon="1.56158">
        <ele>6</ele>
        <time>2014-09-19T15:21:09Z</time>
      </trkpt>
      <trkpt lat="50.41679" lon="1.56155">
        <ele>6.5</ele>
        <time>2014-09-19T15:21:16Z</time>
      </trkpt>
      <trkpt lat="50.41671" lon="1.56152">
        <ele>6.4</ele>
        <time>2014-09-19T15:21:23Z</time>
      </trkpt>
      <trkpt lat="50.4167" lon="1.56151">
        <ele>6.4</ele>
        <time>2014-09-19T15:21:24Z</time>
      </trkpt>
      <trkpt lat="50.41655" lon="1.56144">
        <ele>6.7</ele>
        <time>2014-09-19T15:21:37Z</time>
      </trkpt>
      <trkpt lat="50.41647" lon="1.56141">
        <ele>6.9</ele>
        <time>2014-09-19T15:21:44Z</time>
      </trkpt>
      <trkpt lat="50.41639" lon="1.5614">
        <ele>6.3</ele>
        <time>2014-09-19T15:21:51Z</time>
      </trkpt>
      <trkpt lat="50.41631" lon="1.56137">
        <ele>6.1</ele>
        <time>2014-09-19T15:21:58Z</time>
      </trkpt>
      <trkpt lat="50.41623" lon="1.56135">
        <ele>6.5</ele>
        <time>2014-09-19T15:22:05Z</time>
      </trkpt>
      <trkpt lat="50.41614" lon="1.56132">
        <ele>6.4</ele>
        <time>2014-09-19T15:22:12Z</time>
      </trkpt>
      <trkpt lat="50.41607" lon="1.56128">
        <ele>6.3</ele>
        <time>2014-09-19T15:22:19Z</time>
      </trkpt>
      <trkpt lat="50.41599" lon="1.56124">
        <ele>6</ele>
        <time>2014-09-19T15:22:26Z</time>
      </trkpt>
      <trkpt lat="50.41597" lon="1.56124">
        <ele>5.8</ele>
        <time>2014-09-19T15:22:27Z</time>
      </trkpt>
      <trkpt lat="50.41582" lon="1.56119">
        <ele>6.2</ele>
        <time>2014-09-19T15:22:41Z</time>
      </trkpt>
      <trkpt lat="50.41573" lon="1.56118">
        <ele>6.1</ele>
        <time>2014-09-19T15:22:49Z</time>
      </trkpt>
      <trkpt lat="50.41565" lon="1.56117">
        <ele>6.4</ele>
        <time>2014-09-19T15:22:56Z</time>
      </trkpt>
      <trkpt lat="50.41557" lon="1.56116">
        <ele>5.5</ele>
        <time>2014-09-19T15:23:03Z</time>
      </trkpt>
      <trkpt lat="50.41549" lon="1.56114">
        <ele>6.2</ele>
        <time>2014-09-19T15:23:10Z</time>
      </trkpt>
      <trkpt lat="50.4154" lon="1.56113">
        <ele>6.6</ele>
        <time>2014-09-19T15:23:18Z</time>
      </trkpt>
      <trkpt lat="50.41531" lon="1.56112">
        <ele>6.2</ele>
        <time>2014-09-19T15:23:26Z</time>
      </trkpt>
      <trkpt lat="50.41522" lon="1.56112">
        <ele>6.3</ele>
        <time>2014-09-19T15:23:34Z</time>
      </trkpt>
      <trkpt lat="50.41521" lon="1.56112">
        <ele>6.5</ele>
        <time>2014-09-19T15:23:35Z</time>
      </trkpt>
      <trkpt lat="50.41507" lon="1.56113">
        <ele>6.4</ele>
        <time>2014-09-19T15:23:48Z</time>
      </trkpt>
      <trkpt lat="50.41499" lon="1.56113">
        <ele>6.2</ele>
        <time>2014-09-19T15:23:55Z</time>
      </trkpt>
      <trkpt lat="50.41491" lon="1.56112">
        <ele>6.3</ele>
        <time>2014-09-19T15:24:02Z</time>
      </trkpt>
      <trkpt lat="50.41482" lon="1.56108">
        <ele>6.5</ele>
        <time>2014-09-19T15:24:09Z</time>
      </trkpt>
      <trkpt lat="50.41474" lon="1.56104">
        <ele>5.8</ele>
        <time>2014-09-19T15:24:16Z</time>
      </trkpt>
      <trkpt lat="50.41465" lon="1.561">
        <ele>6.4</ele>
        <time>2014-09-19T15:24:23Z</time>
      </trkpt>
      <trkpt lat="50.41457" lon="1.56097">
        <ele>6.5</ele>
        <time>2014-09-19T15:24:30Z</time>
      </trkpt>
      <trkpt lat="50.41449" lon="1.56091">
        <ele>6.4</ele>
        <time>2014-09-19T15:24:37Z</time>
      </trkpt>
      <trkpt lat="50.41447" lon="1.56091">
        <ele>6.5</ele>
        <time>2014-09-19T15:24:38Z</time>
      </trkpt>
      <trkpt lat="50.41434" lon="1.56083">
        <ele>6.9</ele>
        <time>2014-09-19T15:24:49Z</time>
      </trkpt>
      <trkpt lat="50.41425" lon="1.56079">
        <ele>6.4</ele>
        <time>2014-09-19T15:24:56Z</time>
      </trkpt>
      <trkpt lat="50.41418" lon="1.56076">
        <ele>6.1</ele>
        <time>2014-09-19T15:25:02Z</time>
      </trkpt>
      <trkpt lat="50.4141" lon="1.56073">
        <ele>6.1</ele>
        <time>2014-09-19T15:25:08Z</time>
      </trkpt>
      <trkpt lat="50.41401" lon="1.56071">
        <ele>6.3</ele>
        <time>2014-09-19T15:25:15Z</time>
      </trkpt>
      <trkpt lat="50.41393" lon="1.56067">
        <ele>6.7</ele>
        <time>2014-09-19T15:25:22Z</time>
      </trkpt>
      <trkpt lat="50.41384" lon="1.56064">
        <ele>6.5</ele>
        <time>2014-09-19T15:25:29Z</time>
      </trkpt>
      <trkpt lat="50.41377" lon="1.5606">
        <ele>6.1</ele>
        <time>2014-09-19T15:25:35Z</time>
      </trkpt>
      <trkpt lat="50.41369" lon="1.56058">
        <ele>6.3</ele>
        <time>2014-09-19T15:25:42Z</time>
      </trkpt>
      <trkpt lat="50.41368" lon="1.56058">
        <ele>6.5</ele>
        <time>2014-09-19T15:25:43Z</time>
      </trkpt>
      <trkpt lat="50.41353" lon="1.56052">
        <ele>6.3</ele>
        <time>2014-09-19T15:25:56Z</time>
      </trkpt>
      <trkpt lat="50.41345" lon="1.56048">
        <ele>6.1</ele>
        <time>2014-09-19T15:26:03Z</time>
      </trkpt>
      <trkpt lat="50.41337" lon="1.56044">
        <ele>6.3</ele>
        <time>2014-09-19T15:26:10Z</time>
      </trkpt>
      <trkpt lat="50.41329" lon="1.56041">
        <ele>6.9</ele>
        <time>2014-09-19T15:26:17Z</time>
      </trkpt>
      <trkpt lat="50.41321" lon="1.56038">
        <ele>6.7</ele>
        <time>2014-09-19T15:26:24Z</time>
      </trkpt>
      <trkpt lat="50.41313" lon="1.56034">
        <ele>6.4</ele>
        <time>2014-09-19T15:26:32Z</time>
      </trkpt>
      <trkpt lat="50.41305" lon="1.5603">
        <ele>6.6</ele>
        <time>2014-09-19T15:26:40Z</time>
      </trkpt>
      <trkpt lat="50.41298" lon="1.56025">
        <ele>7</ele>
        <time>2014-09-19T15:26:47Z</time>
      </trkpt>
      <trkpt lat="50.41297" lon="1.56023">
        <ele>7</ele>
        <time>2014-09-19T15:26:48Z</time>
      </trkpt>
      <trkpt lat="50.41284" lon="1.56009">
        <ele>6.7</ele>
        <time>2014-09-19T15:27:01Z</time>
      </trkpt>
      <trkpt lat="50.41276" lon="1.56005">
        <ele>6.9</ele>
        <time>2014-09-19T15:27:08Z</time>
      </trkpt>
      <trkpt lat="50.41269" lon="1.56">
        <ele>6.7</ele>
        <time>2014-09-19T15:27:15Z</time>
      </trkpt>
      <trkpt lat="50.41262" lon="1.55994">
        <ele>6.9</ele>
        <time>2014-09-19T15:27:22Z</time>
      </trkpt>
      <trkpt lat="50.41254" lon="1.5599">
        <ele>6.8</ele>
        <time>2014-09-19T15:27:29Z</time>
      </trkpt>
      <trkpt lat="50.41246" lon="1.55987">
        <ele>6.9</ele>
        <time>2014-09-19T15:27:36Z</time>
      </trkpt>
      <trkpt lat="50.41238" lon="1.55984">
        <ele>6.2</ele>
        <time>2014-09-19T15:27:43Z</time>
      </trkpt>
      <trkpt lat="50.4123" lon="1.55981">
        <ele>6.8</ele>
        <time>2014-09-19T15:27:51Z</time>
      </trkpt>
      <trkpt lat="50.41228" lon="1.55981">
        <ele>6.8</ele>
        <time>2014-09-19T15:27:52Z</time>
      </trkpt>
      <trkpt lat="50.41212" lon="1.55973">
        <ele>6.9</ele>
        <time>2014-09-19T15:28:08Z</time>
      </trkpt>
      <trkpt lat="50.41204" lon="1.55971">
        <ele>7</ele>
        <time>2014-09-19T15:28:16Z</time>
      </trkpt>
      <trkpt lat="50.41196" lon="1.5597">
        <ele>6.1</ele>
        <time>2014-09-19T15:28:24Z</time>
      </trkpt>
      <trkpt lat="50.41187" lon="1.55969">
        <ele>6.6</ele>
        <time>2014-09-19T15:28:32Z</time>
      </trkpt>
      <trkpt lat="50.41179" lon="1.55965">
        <ele>7.3</ele>
        <time>2014-09-19T15:28:47Z</time>
      </trkpt>
      <trkpt lat="50.41171" lon="1.55961">
        <ele>7</ele>
        <time>2014-09-19T15:28:55Z</time>
      </trkpt>
      <trkpt lat="50.41169" lon="1.55961">
        <ele>6.5</ele>
        <time>2014-09-19T15:28:56Z</time>
      </trkpt>
      <trkpt lat="50.41155" lon="1.55959">
        <ele>6.9</ele>
        <time>2014-09-19T15:29:09Z</time>
      </trkpt>
      <trkpt lat="50.41146" lon="1.55959">
        <ele>7.1</ele>
        <time>2014-09-19T15:29:16Z</time>
      </trkpt>
      <trkpt lat="50.41138" lon="1.55956">
        <ele>6.5</ele>
        <time>2014-09-19T15:29:23Z</time>
      </trkpt>
      <trkpt lat="50.4113" lon="1.55953">
        <ele>6.3</ele>
        <time>2014-09-19T15:29:31Z</time>
      </trkpt>
      <trkpt lat="50.41121" lon="1.55948">
        <ele>7</ele>
        <time>2014-09-19T15:29:39Z</time>
      </trkpt>
      <trkpt lat="50.41113" lon="1.55944">
        <ele>7</ele>
        <time>2014-09-19T15:29:47Z</time>
      </trkpt>
      <trkpt lat="50.41105" lon="1.55941">
        <ele>6.3</ele>
        <time>2014-09-19T15:29:55Z</time>
      </trkpt>
      <trkpt lat="50.41096" lon="1.5594">
        <ele>6.4</ele>
        <time>2014-09-19T15:30:03Z</time>
      </trkpt>
      <trkpt lat="50.41095" lon="1.55939">
        <ele>6.5</ele>
        <time>2014-09-19T15:30:04Z</time>
      </trkpt>
      <trkpt lat="50.41079" lon="1.55939">
        <ele>7.3</ele>
        <time>2014-09-19T15:30:19Z</time>
      </trkpt>
      <trkpt lat="50.41071" lon="1.55938">
        <ele>7.5</ele>
        <time>2014-09-19T15:30:27Z</time>
      </trkpt>
      <trkpt lat="50.41062" lon="1.55938">
        <ele>7.1</ele>
        <time>2014-09-19T15:30:35Z</time>
      </trkpt>
      <trkpt lat="50.41054" lon="1.5594">
        <ele>7.5</ele>
        <time>2014-09-19T15:30:43Z</time>
      </trkpt>
      <trkpt lat="50.41045" lon="1.55943">
        <ele>7.2</ele>
        <time>2014-09-19T15:30:52Z</time>
      </trkpt>
      <trkpt lat="50.41037" lon="1.55942">
        <ele>7</ele>
        <time>2014-09-19T15:31:01Z</time>
      </trkpt>
      <trkpt lat="50.41029" lon="1.55944">
        <ele>6.9</ele>
        <time>2014-09-19T15:31:09Z</time>
      </trkpt>
      <trkpt lat="50.41028" lon="1.55945">
        <ele>7.3</ele>
        <time>2014-09-19T15:31:10Z</time>
      </trkpt>
      <trkpt lat="50.41012" lon="1.55952">
        <ele>7.9</ele>
        <time>2014-09-19T15:31:29Z</time>
      </trkpt>
      <trkpt lat="50.41005" lon="1.55961">
        <ele>8.7</ele>
        <time>2014-09-19T15:31:38Z</time>
      </trkpt>
      <trkpt lat="50.40998" lon="1.5597">
        <ele>8.4</ele>
        <time>2014-09-19T15:31:47Z</time>
      </trkpt>
      <trkpt lat="50.40992" lon="1.55977">
        <ele>9.1</ele>
        <time>2014-09-19T15:31:55Z</time>
      </trkpt>
      <trkpt lat="50.40984" lon="1.55983">
        <ele>8.6</ele>
        <time>2014-09-19T15:32:05Z</time>
      </trkpt>
      <trkpt lat="50.40977" lon="1.55991">
        <ele>9.2</ele>
        <time>2014-09-19T15:32:14Z</time>
      </trkpt>
      <trkpt lat="50.40976" lon="1.55992">
        <ele>9</ele>
        <time>2014-09-19T15:32:15Z</time>
      </trkpt>
      <trkpt lat="50.40963" lon="1.56008">
        <ele>9.3</ele>
        <time>2014-09-19T15:32:33Z</time>
      </trkpt>
      <trkpt lat="50.40958" lon="1.56017">
        <ele>9.1</ele>
        <time>2014-09-19T15:32:42Z</time>
      </trkpt>
      <trkpt lat="50.40951" lon="1.56025">
        <ele>8.9</ele>
        <time>2014-09-19T15:32:52Z</time>
      </trkpt>
      <trkpt lat="50.40944" lon="1.56033">
        <ele>9.6</ele>
        <time>2014-09-19T15:33:05Z</time>
      </trkpt>
      <trkpt lat="50.40935" lon="1.56032">
        <ele>9.5</ele>
        <time>2014-09-19T15:33:18Z</time>
      </trkpt>
      <trkpt lat="50.40934" lon="1.56031">
        <ele>9.5</ele>
        <time>2014-09-19T15:33:19Z</time>
      </trkpt>
      <trkpt lat="50.40918" lon="1.56031">
        <ele>8.7</ele>
        <time>2014-09-19T15:34:01Z</time>
      </trkpt>
      <trkpt lat="50.40913" lon="1.56042">
        <ele>9.6</ele>
        <time>2014-09-19T15:34:44Z</time>
      </trkpt>
      <trkpt lat="50.40913" lon="1.56043">
        <ele>9.6</ele>
        <time>2014-09-19T15:34:45Z</time>
      </trkpt>
      <trkpt lat="50.40906" lon="1.56066">
        <ele>10.2</ele>
        <time>2014-09-19T15:35:03Z</time>
      </trkpt>
      <trkpt lat="50.40902" lon="1.56078">
        <ele>10.6</ele>
        <time>2014-09-19T15:35:21Z</time>
      </trkpt>
      <trkpt lat="50.40897" lon="1.56089">
        <ele>12.7</ele>
        <time>2014-09-19T15:35:40Z</time>
      </trkpt>
      <trkpt lat="50.40889" lon="1.56085">
        <ele>13.3</ele>
        <time>2014-09-19T15:35:51Z</time>
      </trkpt>
      <trkpt lat="50.40888" lon="1.56084">
        <ele>12.5</ele>
        <time>2014-09-19T15:35:52Z</time>
      </trkpt>
      <trkpt lat="50.40875" lon="1.56073">
        <ele>14.5</ele>
        <time>2014-09-19T15:36:04Z</time>
      </trkpt>
      <trkpt lat="50.40867" lon="1.5607">
        <ele>14.1</ele>
        <time>2014-09-19T15:36:10Z</time>
      </trkpt>
      <trkpt lat="50.40858" lon="1.56068">
        <ele>13.4</ele>
        <time>2014-09-19T15:36:17Z</time>
      </trkpt>
      <trkpt lat="50.40849" lon="1.56065">
        <ele>12.1</ele>
        <time>2014-09-19T15:36:25Z</time>
      </trkpt>
      <trkpt lat="50.40842" lon="1.5606">
        <ele>12.7</ele>
        <time>2014-09-19T15:36:31Z</time>
      </trkpt>
      <trkpt lat="50.40834" lon="1.56054">
        <ele>13.1</ele>
        <time>2014-09-19T15:36:38Z</time>
      </trkpt>
      <trkpt lat="50.40826" lon="1.56051">
        <ele>11.7</ele>
        <time>2014-09-19T15:36:44Z</time>
      </trkpt>
      <trkpt lat="50.40818" lon="1.56047">
        <ele>12.1</ele>
        <time>2014-09-19T15:36:51Z</time>
      </trkpt>
      <trkpt lat="50.4081" lon="1.56044">
        <ele>12.3</ele>
        <time>2014-09-19T15:36:57Z</time>
      </trkpt>
      <trkpt lat="50.40809" lon="1.56043">
        <ele>12.2</ele>
        <time>2014-09-19T15:36:58Z</time>
      </trkpt>
      <trkpt lat="50.40795" lon="1.56036">
        <ele>12.6</ele>
        <time>2014-09-19T15:37:09Z</time>
      </trkpt>
      <trkpt lat="50.40787" lon="1.56031">
        <ele>12.9</ele>
        <time>2014-09-19T15:37:16Z</time>
      </trkpt>
      <trkpt lat="50.40779" lon="1.56027">
        <ele>13.2</ele>
        <time>2014-09-19T15:37:23Z</time>
      </trkpt>
      <trkpt lat="50.40771" lon="1.56024">
        <ele>13</ele>
        <time>2014-09-19T15:37:41Z</time>
      </trkpt>
      <trkpt lat="50.40763" lon="1.56019">
        <ele>12.7</ele>
        <time>2014-09-19T15:37:48Z</time>
      </trkpt>
      <trkpt lat="50.40755" lon="1.56016">
        <ele>13.1</ele>
        <time>2014-09-19T15:37:54Z</time>
      </trkpt>
      <trkpt lat="50.40748" lon="1.56013">
        <ele>13.2</ele>
        <time>2014-09-19T15:38:00Z</time>
      </trkpt>
      <trkpt lat="50.40747" lon="1.56012">
        <ele>13.1</ele>
        <time>2014-09-19T15:38:01Z</time>
      </trkpt>
      <trkpt lat="50.40731" lon="1.56005">
        <ele>13</ele>
        <time>2014-09-19T15:38:14Z</time>
      </trkpt>
      <trkpt lat="50.40723" lon="1.56002">
        <ele>13.7</ele>
        <time>2014-09-19T15:38:21Z</time>
      </trkpt>
      <trkpt lat="50.40714" lon="1.55998">
        <ele>13.2</ele>
        <time>2014-09-19T15:38:28Z</time>
      </trkpt>
      <trkpt lat="50.40705" lon="1.55994">
        <ele>13.2</ele>
        <time>2014-09-19T15:38:35Z</time>
      </trkpt>
      <trkpt lat="50.40698" lon="1.5599">
        <ele>12.5</ele>
        <time>2014-09-19T15:38:41Z</time>
      </trkpt>
      <trkpt lat="50.4069" lon="1.55987">
        <ele>12.9</ele>
        <time>2014-09-19T15:38:48Z</time>
      </trkpt>
      <trkpt lat="50.40682" lon="1.55983">
        <ele>13.2</ele>
        <time>2014-09-19T15:38:54Z</time>
      </trkpt>
      <trkpt lat="50.40675" lon="1.55979">
        <ele>12</ele>
        <time>2014-09-19T15:39:00Z</time>
      </trkpt>
      <trkpt lat="50.40667" lon="1.55976">
        <ele>11.6</ele>
        <time>2014-09-19T15:39:06Z</time>
      </trkpt>
      <trkpt lat="50.40666" lon="1.55975">
        <ele>11.5</ele>
        <time>2014-09-19T15:39:07Z</time>
      </trkpt>
      <trkpt lat="50.40651" lon="1.55968">
        <ele>11.9</ele>
        <time>2014-09-19T15:39:18Z</time>
      </trkpt>
      <trkpt lat="50.40643" lon="1.55964">
        <ele>11.9</ele>
        <time>2014-09-19T15:39:25Z</time>
      </trkpt>
      <trkpt lat="50.40635" lon="1.55962">
        <ele>12.1</ele>
        <time>2014-09-19T15:39:32Z</time>
      </trkpt>
      <trkpt lat="50.40627" lon="1.55957">
        <ele>12</ele>
        <time>2014-09-19T15:39:39Z</time>
      </trkpt>
      <trkpt lat="50.40619" lon="1.55953">
        <ele>11.5</ele>
        <time>2014-09-19T15:39:46Z</time>
      </trkpt>
      <trkpt lat="50.40611" lon="1.55949">
        <ele>11.9</ele>
        <time>2014-09-19T15:39:53Z</time>
      </trkpt>
      <trkpt lat="50.40603" lon="1.55944">
        <ele>12.3</ele>
        <time>2014-09-19T15:40:00Z</time>
      </trkpt>
      <trkpt lat="50.40595" lon="1.55939">
        <ele>12.7</ele>
        <time>2014-09-19T15:40:08Z</time>
      </trkpt>
      <trkpt lat="50.40594" lon="1.55939">
        <ele>12.6</ele>
        <time>2014-09-19T15:40:09Z</time>
      </trkpt>
      <trkpt lat="50.40579" lon="1.55932">
        <ele>12.2</ele>
        <time>2014-09-19T15:40:22Z</time>
      </trkpt>
      <trkpt lat="50.40571" lon="1.55928">
        <ele>11.9</ele>
        <time>2014-09-19T15:40:28Z</time>
      </trkpt>
      <trkpt lat="50.40564" lon="1.55925">
        <ele>12.2</ele>
        <time>2014-09-19T15:40:34Z</time>
      </trkpt>
      <trkpt lat="50.40559" lon="1.55924">
        <ele>10.8</ele>
        <time>2014-09-19T15:40:38Z</time>
      </trkpt>
      <trkpt lat="50.40559" lon="1.55924">
        <ele>10.8</ele>
        <time>2014-09-19T15:40:38Z</time>
      </trkpt>
      <trkpt lat="50.40514" lon="1.55902">
        <ele>11.2</ele>
        <time>2014-09-19T15:46:08Z</time>
      </trkpt>
      <trkpt lat="50.40514" lon="1.55901">
        <ele>11.6</ele>
        <time>2014-09-19T15:46:09Z</time>
      </trkpt>
      <trkpt lat="50.40501" lon="1.55888">
        <ele>11.6</ele>
        <time>2014-09-19T15:46:21Z</time>
      </trkpt>
      <trkpt lat="50.40493" lon="1.55884">
        <ele>12.9</ele>
        <time>2014-09-19T15:46:27Z</time>
      </trkpt>
      <trkpt lat="50.40486" lon="1.5588">
        <ele>12.8</ele>
        <time>2014-09-19T15:46:33Z</time>
      </trkpt>
      <trkpt lat="50.40478" lon="1.55876">
        <ele>12.3</ele>
        <time>2014-09-19T15:46:39Z</time>
      </trkpt>
      <trkpt lat="50.4047" lon="1.55874">
        <ele>12.8</ele>
        <time>2014-09-19T15:46:45Z</time>
      </trkpt>
      <trkpt lat="50.40463" lon="1.55869">
        <ele>12.3</ele>
        <time>2014-09-19T15:46:51Z</time>
      </trkpt>
      <trkpt lat="50.40455" lon="1.55865">
        <ele>12.4</ele>
        <time>2014-09-19T15:46:57Z</time>
      </trkpt>
      <trkpt lat="50.40447" lon="1.55861">
        <ele>11.4</ele>
        <time>2014-09-19T15:47:04Z</time>
      </trkpt>
      <trkpt lat="50.40441" lon="1.55854">
        <ele>12.8</ele>
        <time>2014-09-19T15:48:23Z</time>
      </trkpt>
      <trkpt lat="50.40439" lon="1.55853">
        <ele>13</ele>
        <time>2014-09-19T15:48:24Z</time>
      </trkpt>
      <trkpt lat="50.40424" lon="1.55846">
        <ele>12.9</ele>
        <time>2014-09-19T15:48:35Z</time>
      </trkpt>
      <trkpt lat="50.40416" lon="1.55843">
        <ele>13.2</ele>
        <time>2014-09-19T15:48:41Z</time>
      </trkpt>
      <trkpt lat="50.40408" lon="1.55839">
        <ele>13.4</ele>
        <time>2014-09-19T15:48:47Z</time>
      </trkpt>
      <trkpt lat="50.40401" lon="1.55832">
        <ele>13.1</ele>
        <time>2014-09-19T15:48:53Z</time>
      </trkpt>
      <trkpt lat="50.40394" lon="1.55827">
        <ele>13.6</ele>
        <time>2014-09-19T15:48:59Z</time>
      </trkpt>
      <trkpt lat="50.40386" lon="1.55821">
        <ele>12.5</ele>
        <time>2014-09-19T15:49:05Z</time>
      </trkpt>
      <trkpt lat="50.40379" lon="1.55815">
        <ele>12</ele>
        <time>2014-09-19T15:49:11Z</time>
      </trkpt>
      <trkpt lat="50.40371" lon="1.55809">
        <ele>12.4</ele>
        <time>2014-09-19T15:49:17Z</time>
      </trkpt>
      <trkpt lat="50.40364" lon="1.55802">
        <ele>13.2</ele>
        <time>2014-09-19T15:49:23Z</time>
      </trkpt>
      <trkpt lat="50.40357" lon="1.55794">
        <ele>13.3</ele>
        <time>2014-09-19T15:49:29Z</time>
      </trkpt>
      <trkpt lat="50.40356" lon="1.55793">
        <ele>13.2</ele>
        <time>2014-09-19T15:49:30Z</time>
      </trkpt>
      <trkpt lat="50.40344" lon="1.55778">
        <ele>12.4</ele>
        <time>2014-09-19T15:49:41Z</time>
      </trkpt>
      <trkpt lat="50.40337" lon="1.55769">
        <ele>12.9</ele>
        <time>2014-09-19T15:49:47Z</time>
      </trkpt>
      <trkpt lat="50.4033" lon="1.55762">
        <ele>13</ele>
        <time>2014-09-19T15:49:53Z</time>
      </trkpt>
      <trkpt lat="50.40324" lon="1.55753">
        <ele>12.8</ele>
        <time>2014-09-19T15:49:59Z</time>
      </trkpt>
      <trkpt lat="50.40319" lon="1.55742">
        <ele>14</ele>
        <time>2014-09-19T15:50:05Z</time>
      </trkpt>
      <trkpt lat="50.40313" lon="1.55733">
        <ele>14</ele>
        <time>2014-09-19T15:50:11Z</time>
      </trkpt>
      <trkpt lat="50.40308" lon="1.55723">
        <ele>12.5</ele>
        <time>2014-09-19T15:50:17Z</time>
      </trkpt>
      <trkpt lat="50.40304" lon="1.55712">
        <ele>12.7</ele>
        <time>2014-09-19T15:50:23Z</time>
      </trkpt>
      <trkpt lat="50.40299" lon="1.55702">
        <ele>13.5</ele>
        <time>2014-09-19T15:50:29Z</time>
      </trkpt>
      <trkpt lat="50.40293" lon="1.55691">
        <ele>13.1</ele>
        <time>2014-09-19T15:50:35Z</time>
      </trkpt>
      <trkpt lat="50.40292" lon="1.5569">
        <ele>12.8</ele>
        <time>2014-09-19T15:50:36Z</time>
      </trkpt>
      <trkpt lat="50.4028" lon="1.55674">
        <ele>12.2</ele>
        <time>2014-09-19T15:50:47Z</time>
      </trkpt>
      <trkpt lat="50.40273" lon="1.55667">
        <ele>12</ele>
        <time>2014-09-19T15:50:53Z</time>
      </trkpt>
      <trkpt lat="50.40266" lon="1.55661">
        <ele>12</ele>
        <time>2014-09-19T15:50:59Z</time>
      </trkpt>
      <trkpt lat="50.40258" lon="1.55655">
        <ele>11.8</ele>
        <time>2014-09-19T15:51:05Z</time>
      </trkpt>
      <trkpt lat="50.4025" lon="1.5565">
        <ele>11</ele>
        <time>2014-09-19T15:51:21Z</time>
      </trkpt>
      <trkpt lat="50.40243" lon="1.55646">
        <ele>11</ele>
        <time>2014-09-19T15:51:27Z</time>
      </trkpt>
      <trkpt lat="50.40236" lon="1.55641">
        <ele>11.1</ele>
        <time>2014-09-19T15:51:33Z</time>
      </trkpt>
      <trkpt lat="50.40228" lon="1.55638">
        <ele>11.1</ele>
        <time>2014-09-19T15:51:39Z</time>
      </trkpt>
      <trkpt lat="50.40227" lon="1.55637">
        <ele>11.1</ele>
        <time>2014-09-19T15:51:40Z</time>
      </trkpt>
      <trkpt lat="50.40212" lon="1.55629">
        <ele>10.9</ele>
        <time>2014-09-19T15:51:51Z</time>
      </trkpt>
      <trkpt lat="50.40205" lon="1.55624">
        <ele>10.5</ele>
        <time>2014-09-19T15:51:57Z</time>
      </trkpt>
      <trkpt lat="50.40197" lon="1.5562">
        <ele>9.2</ele>
        <time>2014-09-19T15:52:03Z</time>
      </trkpt>
      <trkpt lat="50.40189" lon="1.55615">
        <ele>10.3</ele>
        <time>2014-09-19T15:52:09Z</time>
      </trkpt>
      <trkpt lat="50.40181" lon="1.5561">
        <ele>10.6</ele>
        <time>2014-09-19T15:52:15Z</time>
      </trkpt>
      <trkpt lat="50.40173" lon="1.55606">
        <ele>10.3</ele>
        <time>2014-09-19T15:52:21Z</time>
      </trkpt>
      <trkpt lat="50.40165" lon="1.55601">
        <ele>10.6</ele>
        <time>2014-09-19T15:52:27Z</time>
      </trkpt>
      <trkpt lat="50.40157" lon="1.55596">
        <ele>10.8</ele>
        <time>2014-09-19T15:52:33Z</time>
      </trkpt>
      <trkpt lat="50.40149" lon="1.55592">
        <ele>10.5</ele>
        <time>2014-09-19T15:52:39Z</time>
      </trkpt>
      <trkpt lat="50.40142" lon="1.55589">
        <ele>10.2</ele>
        <time>2014-09-19T15:52:44Z</time>
      </trkpt>
      <trkpt lat="50.40141" lon="1.55588">
        <ele>10.2</ele>
        <time>2014-09-19T15:52:45Z</time>
      </trkpt>
      <trkpt lat="50.40126" lon="1.55582">
        <ele>11.3</ele>
        <time>2014-09-19T15:52:55Z</time>
      </trkpt>
      <trkpt lat="50.40119" lon="1.5558">
        <ele>11</ele>
        <time>2014-09-19T15:53:00Z</time>
      </trkpt>
      <trkpt lat="50.4011" lon="1.55579">
        <ele>10.6</ele>
        <time>2014-09-19T15:53:06Z</time>
      </trkpt>
      <trkpt lat="50.40102" lon="1.55578">
        <ele>10.7</ele>
        <time>2014-09-19T15:53:12Z</time>
      </trkpt>
      <trkpt lat="50.40093" lon="1.55576">
        <ele>10.8</ele>
        <time>2014-09-19T15:53:18Z</time>
      </trkpt>
      <trkpt lat="50.40084" lon="1.55575">
        <ele>10.6</ele>
        <time>2014-09-19T15:53:24Z</time>
      </trkpt>
      <trkpt lat="50.40077" lon="1.55574">
        <ele>10.5</ele>
        <time>2014-09-19T15:53:29Z</time>
      </trkpt>
      <trkpt lat="50.40068" lon="1.55573">
        <ele>10.8</ele>
        <time>2014-09-19T15:53:35Z</time>
      </trkpt>
      <trkpt lat="50.40059" lon="1.55572">
        <ele>11.6</ele>
        <time>2014-09-19T15:53:41Z</time>
      </trkpt>
      <trkpt lat="50.40051" lon="1.55571">
        <ele>10.9</ele>
        <time>2014-09-19T15:53:46Z</time>
      </trkpt>
      <trkpt lat="50.4005" lon="1.55571">
        <ele>10.7</ele>
        <time>2014-09-19T15:53:47Z</time>
      </trkpt>
      <trkpt lat="50.40034" lon="1.55569">
        <ele>9.8</ele>
        <time>2014-09-19T15:53:58Z</time>
      </trkpt>
      <trkpt lat="50.40025" lon="1.55569">
        <ele>10.8</ele>
        <time>2014-09-19T15:54:04Z</time>
      </trkpt>
      <trkpt lat="50.40017" lon="1.5557">
        <ele>10</ele>
        <time>2014-09-19T15:54:10Z</time>
      </trkpt>
      <trkpt lat="50.40008" lon="1.5557">
        <ele>11.1</ele>
        <time>2014-09-19T15:54:16Z</time>
      </trkpt>
      <trkpt lat="50.39999" lon="1.55569">
        <ele>11.1</ele>
        <time>2014-09-19T15:54:22Z</time>
      </trkpt>
      <trkpt lat="50.3999" lon="1.5557">
        <ele>10.7</ele>
        <time>2014-09-19T15:54:28Z</time>
      </trkpt>
      <trkpt lat="50.39981" lon="1.5557">
        <ele>10.4</ele>
        <time>2014-09-19T15:54:34Z</time>
      </trkpt>
      <trkpt lat="50.39973" lon="1.55571">
        <ele>9.9</ele>
        <time>2014-09-19T15:54:40Z</time>
      </trkpt>
      <trkpt lat="50.39964" lon="1.55573">
        <ele>9.8</ele>
        <time>2014-09-19T15:54:46Z</time>
      </trkpt>
      <trkpt lat="50.39955" lon="1.55574">
        <ele>10.2</ele>
        <time>2014-09-19T15:54:52Z</time>
      </trkpt>
      <trkpt lat="50.39954" lon="1.55574">
        <ele>10.5</ele>
        <time>2014-09-19T15:54:53Z</time>
      </trkpt>
      <trkpt lat="50.39939" lon="1.55578">
        <ele>10.9</ele>
        <time>2014-09-19T15:55:03Z</time>
      </trkpt>
      <trkpt lat="50.39931" lon="1.5558">
        <ele>11.2</ele>
        <time>2014-09-19T15:55:09Z</time>
      </trkpt>
      <trkpt lat="50.39922" lon="1.5558">
        <ele>10.4</ele>
        <time>2014-09-19T15:55:15Z</time>
      </trkpt>
      <trkpt lat="50.39914" lon="1.55582">
        <ele>10.2</ele>
        <time>2014-09-19T15:55:21Z</time>
      </trkpt>
      <trkpt lat="50.39906" lon="1.55584">
        <ele>10.8</ele>
        <time>2014-09-19T15:55:27Z</time>
      </trkpt>
      <trkpt lat="50.39898" lon="1.55585">
        <ele>10.5</ele>
        <time>2014-09-19T15:55:33Z</time>
      </trkpt>
      <trkpt lat="50.3989" lon="1.55587">
        <ele>10.3</ele>
        <time>2014-09-19T15:55:39Z</time>
      </trkpt>
      <trkpt lat="50.39881" lon="1.55589">
        <ele>9.6</ele>
        <time>2014-09-19T15:55:45Z</time>
      </trkpt>
      <trkpt lat="50.39873" lon="1.55591">
        <ele>10.2</ele>
        <time>2014-09-19T15:55:51Z</time>
      </trkpt>
      <trkpt lat="50.39865" lon="1.55592">
        <ele>10.3</ele>
        <time>2014-09-19T15:55:57Z</time>
      </trkpt>
      <trkpt lat="50.39863" lon="1.55593">
        <ele>10.3</ele>
        <time>2014-09-19T15:55:58Z</time>
      </trkpt>
      <trkpt lat="50.39848" lon="1.55596">
        <ele>9.6</ele>
        <time>2014-09-19T15:56:09Z</time>
      </trkpt>
      <trkpt lat="50.3984" lon="1.55599">
        <ele>9.9</ele>
        <time>2014-09-19T15:56:15Z</time>
      </trkpt>
      <trkpt lat="50.39831" lon="1.55601">
        <ele>12.3</ele>
        <time>2014-09-19T15:56:21Z</time>
      </trkpt>
      <trkpt lat="50.39823" lon="1.55603">
        <ele>11.9</ele>
        <time>2014-09-19T15:56:27Z</time>
      </trkpt>
      <trkpt lat="50.39815" lon="1.55605">
        <ele>10.5</ele>
        <time>2014-09-19T15:56:32Z</time>
      </trkpt>
      <trkpt lat="50.39806" lon="1.55607">
        <ele>9.1</ele>
        <time>2014-09-19T15:56:38Z</time>
      </trkpt>
      <trkpt lat="50.39798" lon="1.55608">
        <ele>9.8</ele>
        <time>2014-09-19T15:56:44Z</time>
      </trkpt>
      <trkpt lat="50.3979" lon="1.5561">
        <ele>8.7</ele>
        <time>2014-09-19T15:56:49Z</time>
      </trkpt>
      <trkpt lat="50.39783" lon="1.55613">
        <ele>9.4</ele>
        <time>2014-09-19T15:56:54Z</time>
      </trkpt>
      <trkpt lat="50.39776" lon="1.55615">
        <ele>9.5</ele>
        <time>2014-09-19T15:56:59Z</time>
      </trkpt>
      <trkpt lat="50.39774" lon="1.55615">
        <ele>9.5</ele>
        <time>2014-09-19T15:57:00Z</time>
      </trkpt>
      <trkpt lat="50.3976" lon="1.55619">
        <ele>10.1</ele>
        <time>2014-09-19T15:57:10Z</time>
      </trkpt>
      <trkpt lat="50.39751" lon="1.55621">
        <ele>10.5</ele>
        <time>2014-09-19T15:57:16Z</time>
      </trkpt>
      <trkpt lat="50.39743" lon="1.55624">
        <ele>10.6</ele>
        <time>2014-09-19T15:57:22Z</time>
      </trkpt>
      <trkpt lat="50.39735" lon="1.55627">
        <ele>10.3</ele>
        <time>2014-09-19T15:57:28Z</time>
      </trkpt>
      <trkpt lat="50.39727" lon="1.55629">
        <ele>10.6</ele>
        <time>2014-09-19T15:57:34Z</time>
      </trkpt>
      <trkpt lat="50.39719" lon="1.55633">
        <ele>9.9</ele>
        <time>2014-09-19T15:57:40Z</time>
      </trkpt>
      <trkpt lat="50.3971" lon="1.55635">
        <ele>10.6</ele>
        <time>2014-09-19T15:57:47Z</time>
      </trkpt>
      <trkpt lat="50.39702" lon="1.55638">
        <ele>10.8</ele>
        <time>2014-09-19T15:57:55Z</time>
      </trkpt>
      <trkpt lat="50.39695" lon="1.55644">
        <ele>9.8</ele>
        <time>2014-09-19T15:58:02Z</time>
      </trkpt>
      <trkpt lat="50.39694" lon="1.55645">
        <ele>10</ele>
        <time>2014-09-19T15:58:03Z</time>
      </trkpt>
      <trkpt lat="50.39682" lon="1.55662">
        <ele>10.2</ele>
        <time>2014-09-19T15:58:16Z</time>
      </trkpt>
      <trkpt lat="50.39689" lon="1.5567">
        <ele>10</ele>
        <time>2014-09-19T15:58:58Z</time>
      </trkpt>
      <trkpt lat="50.39697" lon="1.55666">
        <ele>10.2</ele>
        <time>2014-09-19T15:59:04Z</time>
      </trkpt>
      <trkpt lat="50.39698" lon="1.55666">
        <ele>10.5</ele>
        <time>2014-09-19T15:59:05Z</time>
      </trkpt>
      <trkpt lat="50.39713" lon="1.55674">
        <ele>11.8</ele>
        <time>2014-09-19T15:59:16Z</time>
      </trkpt>
      <trkpt lat="50.3972" lon="1.5568">
        <ele>11.9</ele>
        <time>2014-09-19T15:59:22Z</time>
      </trkpt>
      <trkpt lat="50.39728" lon="1.55685">
        <ele>12</ele>
        <time>2014-09-19T15:59:28Z</time>
      </trkpt>
      <trkpt lat="50.39736" lon="1.55691">
        <ele>11.8</ele>
        <time>2014-09-19T15:59:34Z</time>
      </trkpt>
      <trkpt lat="50.39744" lon="1.55699">
        <ele>12.9</ele>
        <time>2014-09-19T15:59:40Z</time>
      </trkpt>
      <trkpt lat="50.39751" lon="1.55707">
        <ele>12.1</ele>
        <time>2014-09-19T15:59:46Z</time>
      </trkpt>
      <trkpt lat="50.39758" lon="1.55714">
        <ele>12</ele>
        <time>2014-09-19T15:59:52Z</time>
      </trkpt>
      <trkpt lat="50.39765" lon="1.55722">
        <ele>12.9</ele>
        <time>2014-09-19T15:59:58Z</time>
      </trkpt>
      <trkpt lat="50.39772" lon="1.55729">
        <ele>12.3</ele>
        <time>2014-09-19T16:00:04Z</time>
      </trkpt>
      <trkpt lat="50.39779" lon="1.55735">
        <ele>12.7</ele>
        <time>2014-09-19T16:00:10Z</time>
      </trkpt>
      <trkpt lat="50.3978" lon="1.55736">
        <ele>12.5</ele>
        <time>2014-09-19T16:00:11Z</time>
      </trkpt>
      <trkpt lat="50.39793" lon="1.55749">
        <ele>13.7</ele>
        <time>2014-09-19T16:00:22Z</time>
      </trkpt>
      <trkpt lat="50.39799" lon="1.55756">
        <ele>13</ele>
        <time>2014-09-19T16:00:28Z</time>
      </trkpt>
      <trkpt lat="50.39806" lon="1.55762">
        <ele>14</ele>
        <time>2014-09-19T16:00:34Z</time>
      </trkpt>
      <trkpt lat="50.39812" lon="1.55771">
        <ele>14.2</ele>
        <time>2014-09-19T16:00:40Z</time>
      </trkpt>
      <trkpt lat="50.39817" lon="1.55781">
        <ele>14.2</ele>
        <time>2014-09-19T16:00:46Z</time>
      </trkpt>
      <trkpt lat="50.39821" lon="1.55792">
        <ele>14.6</ele>
        <time>2014-09-19T16:00:52Z</time>
      </trkpt>
      <trkpt lat="50.39824" lon="1.55805">
        <ele>14.3</ele>
        <time>2014-09-19T16:00:58Z</time>
      </trkpt>
      <trkpt lat="50.39825" lon="1.55818">
        <ele>14.5</ele>
        <time>2014-09-19T16:01:10Z</time>
      </trkpt>
      <trkpt lat="50.39827" lon="1.55831">
        <ele>14.5</ele>
        <time>2014-09-19T16:01:16Z</time>
      </trkpt>
      <trkpt lat="50.39827" lon="1.55834">
        <ele>14.3</ele>
        <time>2014-09-19T16:01:17Z</time>
      </trkpt>
      <trkpt lat="50.39826" lon="1.55858">
        <ele>13.8</ele>
        <time>2014-09-19T16:01:28Z</time>
      </trkpt>
      <trkpt lat="50.39824" lon="1.55871">
        <ele>13.9</ele>
        <time>2014-09-19T16:01:34Z</time>
      </trkpt>
      <trkpt lat="50.39821" lon="1.55885">
        <ele>13.7</ele>
        <time>2014-09-19T16:01:40Z</time>
      </trkpt>
      <trkpt lat="50.39819" lon="1.55898">
        <ele>13.4</ele>
        <time>2014-09-19T16:01:46Z</time>
      </trkpt>
      <trkpt lat="50.39817" lon="1.5591">
        <ele>12.2</ele>
        <time>2014-09-19T16:01:54Z</time>
      </trkpt>
      <trkpt lat="50.39816" lon="1.55924">
        <ele>13</ele>
        <time>2014-09-19T16:02:01Z</time>
      </trkpt>
      <trkpt lat="50.39817" lon="1.55937">
        <ele>13.6</ele>
        <time>2014-09-19T16:02:07Z</time>
      </trkpt>
      <trkpt lat="50.39818" lon="1.5595">
        <ele>12</ele>
        <time>2014-09-19T16:02:13Z</time>
      </trkpt>
      <trkpt lat="50.39819" lon="1.55963">
        <ele>11.8</ele>
        <time>2014-09-19T16:02:19Z</time>
      </trkpt>
      <trkpt lat="50.3982" lon="1.55965">
        <ele>12.1</ele>
        <time>2014-09-19T16:02:20Z</time>
      </trkpt>
      <trkpt lat="50.39826" lon="1.55988">
        <ele>11.6</ele>
        <time>2014-09-19T16:03:00Z</time>
      </trkpt>
      <trkpt lat="50.39818" lon="1.55991">
        <ele>11.7</ele>
        <time>2014-09-19T16:03:33Z</time>
      </trkpt>
      <trkpt lat="50.39817" lon="1.55991">
        <ele>11.6</ele>
        <time>2014-09-19T16:03:34Z</time>
      </trkpt>
      <trkpt lat="50.39817" lon="1.5599">
        <ele>13</ele>
        <time>2014-09-19T16:05:00Z</time>
      </trkpt>
      <trkpt lat="50.39818" lon="1.55991">
        <ele>13</ele>
        <time>2014-09-19T16:05:01Z</time>
      </trkpt>
      <trkpt lat="50.39827" lon="1.5601">
        <ele>12.6</ele>
        <time>2014-09-19T16:05:13Z</time>
      </trkpt>
      <trkpt lat="50.39832" lon="1.56021">
        <ele>11.1</ele>
        <time>2014-09-19T16:05:20Z</time>
      </trkpt>
      <trkpt lat="50.39838" lon="1.56029">
        <ele>11.1</ele>
        <time>2014-09-19T16:05:31Z</time>
      </trkpt>
      <trkpt lat="50.39845" lon="1.56035">
        <ele>11.1</ele>
        <time>2014-09-19T16:05:37Z</time>
      </trkpt>
      <trkpt lat="50.39852" lon="1.56042">
        <ele>11.3</ele>
        <time>2014-09-19T16:05:43Z</time>
      </trkpt>
      <trkpt lat="50.3986" lon="1.56047">
        <ele>12.8</ele>
        <time>2014-09-19T16:05:49Z</time>
      </trkpt>
      <trkpt lat="50.39867" lon="1.56052">
        <ele>14.2</ele>
        <time>2014-09-19T16:05:55Z</time>
      </trkpt>
      <trkpt lat="50.39876" lon="1.56057">
        <ele>12.2</ele>
        <time>2014-09-19T16:06:02Z</time>
      </trkpt>
      <trkpt lat="50.39877" lon="1.56058">
        <ele>12.2</ele>
        <time>2014-09-19T16:06:03Z</time>
      </trkpt>
      <trkpt lat="50.3989" lon="1.56067">
        <ele>9.4</ele>
        <time>2014-09-19T16:06:15Z</time>
      </trkpt>
      <trkpt lat="50.39899" lon="1.56072">
        <ele>10.5</ele>
        <time>2014-09-19T16:06:22Z</time>
      </trkpt>
      <trkpt lat="50.39907" lon="1.56076">
        <ele>9.8</ele>
        <time>2014-09-19T16:06:29Z</time>
      </trkpt>
      <trkpt lat="50.39915" lon="1.5608">
        <ele>9.7</ele>
        <time>2014-09-19T16:06:36Z</time>
      </trkpt>
      <trkpt lat="50.39923" lon="1.56085">
        <ele>9.1</ele>
        <time>2014-09-19T16:06:43Z</time>
      </trkpt>
      <trkpt lat="50.39931" lon="1.56089">
        <ele>9</ele>
        <time>2014-09-19T16:06:49Z</time>
      </trkpt>
      <trkpt lat="50.39938" lon="1.56093">
        <ele>11.1</ele>
        <time>2014-09-19T16:06:55Z</time>
      </trkpt>
      <trkpt lat="50.39946" lon="1.56098">
        <ele>11</ele>
        <time>2014-09-19T16:07:02Z</time>
      </trkpt>
      <trkpt lat="50.39954" lon="1.56103">
        <ele>11.3</ele>
        <time>2014-09-19T16:07:09Z</time>
      </trkpt>
      <trkpt lat="50.39955" lon="1.56104">
        <ele>11</ele>
        <time>2014-09-19T16:07:10Z</time>
      </trkpt>
      <trkpt lat="50.3997" lon="1.56113">
        <ele>10.5</ele>
        <time>2014-09-19T16:07:22Z</time>
      </trkpt>
      <trkpt lat="50.39977" lon="1.56117">
        <ele>10.8</ele>
        <time>2014-09-19T16:07:28Z</time>
      </trkpt>
      <trkpt lat="50.39985" lon="1.56123">
        <ele>10.2</ele>
        <time>2014-09-19T16:07:34Z</time>
      </trkpt>
      <trkpt lat="50.39993" lon="1.56128">
        <ele>11.4</ele>
        <time>2014-09-19T16:07:41Z</time>
      </trkpt>
      <trkpt lat="50.4" lon="1.56134">
        <ele>11.2</ele>
        <time>2014-09-19T16:07:48Z</time>
      </trkpt>
      <trkpt lat="50.40006" lon="1.56142">
        <ele>11.6</ele>
        <time>2014-09-19T16:07:54Z</time>
      </trkpt>
      <trkpt lat="50.40012" lon="1.56151">
        <ele>11.2</ele>
        <time>2014-09-19T16:08:00Z</time>
      </trkpt>
      <trkpt lat="50.40017" lon="1.56162">
        <ele>11.3</ele>
        <time>2014-09-19T16:08:07Z</time>
      </trkpt>
      <trkpt lat="50.40023" lon="1.56171">
        <ele>11.3</ele>
        <time>2014-09-19T16:08:15Z</time>
      </trkpt>
      <trkpt lat="50.40024" lon="1.56171">
        <ele>11.1</ele>
        <time>2014-09-19T16:08:16Z</time>
      </trkpt>
      <trkpt lat="50.4004" lon="1.56171">
        <ele>11.2</ele>
        <time>2014-09-19T16:08:27Z</time>
      </trkpt>
      <trkpt lat="50.40048" lon="1.56173">
        <ele>10.7</ele>
        <time>2014-09-19T16:08:31Z</time>
      </trkpt>
      <trkpt lat="50.40056" lon="1.56177">
        <ele>10.7</ele>
        <time>2014-09-19T16:08:36Z</time>
      </trkpt>
      <trkpt lat="50.40065" lon="1.5618">
        <ele>10.2</ele>
        <time>2014-09-19T16:08:42Z</time>
      </trkpt>
      <trkpt lat="50.40073" lon="1.56182">
        <ele>10.4</ele>
        <time>2014-09-19T16:08:52Z</time>
      </trkpt>
      <trkpt lat="50.40081" lon="1.56187">
        <ele>10.6</ele>
        <time>2014-09-19T16:09:00Z</time>
      </trkpt>
      <trkpt lat="50.40085" lon="1.56199">
        <ele>9.1</ele>
        <time>2014-09-19T16:09:09Z</time>
      </trkpt>
      <trkpt lat="50.40087" lon="1.56211">
        <ele>9.9</ele>
        <time>2014-09-19T16:09:16Z</time>
      </trkpt>
      <trkpt lat="50.40087" lon="1.56213">
        <ele>9.8</ele>
        <time>2014-09-19T16:09:17Z</time>
      </trkpt>
      <trkpt lat="50.40084" lon="1.56237">
        <ele>9.5</ele>
        <time>2014-09-19T16:09:28Z</time>
      </trkpt>
      <trkpt lat="50.40082" lon="1.56249">
        <ele>9.7</ele>
        <time>2014-09-19T16:09:34Z</time>
      </trkpt>
      <trkpt lat="50.40079" lon="1.56262">
        <ele>9.9</ele>
        <time>2014-09-19T16:09:41Z</time>
      </trkpt>
      <trkpt lat="50.40077" lon="1.56274">
        <ele>9.7</ele>
        <time>2014-09-19T16:09:47Z</time>
      </trkpt>
      <trkpt lat="50.40075" lon="1.56287">
        <ele>9.7</ele>
        <time>2014-09-19T16:09:54Z</time>
      </trkpt>
      <trkpt lat="50.40072" lon="1.56301">
        <ele>9.9</ele>
        <time>2014-09-19T16:10:01Z</time>
      </trkpt>
      <trkpt lat="50.4007" lon="1.56313">
        <ele>9.9</ele>
        <time>2014-09-19T16:10:09Z</time>
      </trkpt>
      <trkpt lat="50.40069" lon="1.56327">
        <ele>9.5</ele>
        <time>2014-09-19T16:10:20Z</time>
      </trkpt>
      <trkpt lat="50.40069" lon="1.56328">
        <ele>9.7</ele>
        <time>2014-09-19T16:10:21Z</time>
      </trkpt>
      <trkpt lat="50.40069" lon="1.56353">
        <ele>9.3</ele>
        <time>2014-09-19T16:10:37Z</time>
      </trkpt>
      <trkpt lat="50.40069" lon="1.56367">
        <ele>9.2</ele>
        <time>2014-09-19T16:10:44Z</time>
      </trkpt>
      <trkpt lat="50.40068" lon="1.56378">
        <ele>9.4</ele>
        <time>2014-09-19T16:10:48Z</time>
      </trkpt>
      <trkpt lat="50.40068" lon="1.5639">
        <ele>8.2</ele>
        <time>2014-09-19T16:10:52Z</time>
      </trkpt>
      <trkpt lat="50.40066" lon="1.564">
        <ele>9</ele>
        <time>2014-09-19T16:10:56Z</time>
      </trkpt>
      <trkpt lat="50.40061" lon="1.56405">
        <ele>9.7</ele>
        <time>2014-09-19T16:10:58Z</time>
      </trkpt>
      <trkpt lat="50.40055" lon="1.5641">
        <ele>10</ele>
        <time>2014-09-19T16:11:00Z</time>
      </trkpt>
      <trkpt lat="50.40048" lon="1.56416">
        <ele>9.7</ele>
        <time>2014-09-19T16:11:03Z</time>
      </trkpt>
      <trkpt lat="50.40042" lon="1.56423">
        <ele>8.4</ele>
        <time>2014-09-19T16:11:07Z</time>
      </trkpt>
      <trkpt lat="50.40035" lon="1.56431">
        <ele>1.9</ele>
        <time>2014-09-19T16:11:12Z</time>
      </trkpt>
      <trkpt lat="50.40028" lon="1.56437">
        <ele>3.7</ele>
        <time>2014-09-19T16:11:16Z</time>
      </trkpt>
      <trkpt lat="50.40022" lon="1.56446">
        <ele>8.6</ele>
        <time>2014-09-19T16:11:22Z</time>
      </trkpt>
      <trkpt lat="50.40021" lon="1.56448">
        <ele>8.8</ele>
        <time>2014-09-19T16:11:23Z</time>
      </trkpt>
      <trkpt lat="50.40014" lon="1.5647">
        <ele>9.2</ele>
        <time>2014-09-19T16:11:36Z</time>
      </trkpt>
      <trkpt lat="50.4001" lon="1.56481">
        <ele>9.6</ele>
        <time>2014-09-19T16:11:42Z</time>
      </trkpt>
      <trkpt lat="50.40005" lon="1.56493">
        <ele>8.6</ele>
        <time>2014-09-19T16:11:48Z</time>
      </trkpt>
      <trkpt lat="50.4" lon="1.56503">
        <ele>8.2</ele>
        <time>2014-09-19T16:11:53Z</time>
      </trkpt>
      <trkpt lat="50.39995" lon="1.56514">
        <ele>8.8</ele>
        <time>2014-09-19T16:11:59Z</time>
      </trkpt>
      <trkpt lat="50.3999" lon="1.56524">
        <ele>9.2</ele>
        <time>2014-09-19T16:12:05Z</time>
      </trkpt>
      <trkpt lat="50.39986" lon="1.56535">
        <ele>9</ele>
        <time>2014-09-19T16:12:11Z</time>
      </trkpt>
      <trkpt lat="50.39981" lon="1.56547">
        <ele>7.9</ele>
        <time>2014-09-19T16:12:17Z</time>
      </trkpt>
      <trkpt lat="50.39975" lon="1.56555">
        <ele>7.3</ele>
        <time>2014-09-19T16:12:27Z</time>
      </trkpt>
      <trkpt lat="50.39974" lon="1.56556">
        <ele>7.4</ele>
        <time>2014-09-19T16:12:28Z</time>
      </trkpt>
      <trkpt lat="50.39972" lon="1.56578">
        <ele>8.4</ele>
        <time>2014-09-19T16:12:45Z</time>
      </trkpt>
      <trkpt lat="50.39972" lon="1.5659">
        <ele>7.8</ele>
        <time>2014-09-19T16:12:53Z</time>
      </trkpt>
      <trkpt lat="50.39969" lon="1.56602">
        <ele>8.1</ele>
        <time>2014-09-19T16:12:58Z</time>
      </trkpt>
      <trkpt lat="50.39964" lon="1.56611">
        <ele>7.4</ele>
        <time>2014-09-19T16:13:03Z</time>
      </trkpt>
      <trkpt lat="50.39957" lon="1.56621">
        <ele>7.7</ele>
        <time>2014-09-19T16:13:08Z</time>
      </trkpt>
      <trkpt lat="50.39952" lon="1.5663">
        <ele>7.1</ele>
        <time>2014-09-19T16:13:14Z</time>
      </trkpt>
      <trkpt lat="50.39948" lon="1.56642">
        <ele>8.4</ele>
        <time>2014-09-19T16:13:22Z</time>
      </trkpt>
      <trkpt lat="50.39942" lon="1.56651">
        <ele>7.9</ele>
        <time>2014-09-19T16:13:28Z</time>
      </trkpt>
      <trkpt lat="50.39941" lon="1.56653">
        <ele>7.9</ele>
        <time>2014-09-19T16:13:29Z</time>
      </trkpt>
      <trkpt lat="50.39932" lon="1.56671">
        <ele>7.6</ele>
        <time>2014-09-19T16:13:39Z</time>
      </trkpt>
      <trkpt lat="50.39926" lon="1.56681">
        <ele>7.5</ele>
        <time>2014-09-19T16:13:45Z</time>
      </trkpt>
      <trkpt lat="50.3992" lon="1.56691">
        <ele>7.7</ele>
        <time>2014-09-19T16:13:51Z</time>
      </trkpt>
      <trkpt lat="50.39915" lon="1.56701">
        <ele>7.8</ele>
        <time>2014-09-19T16:13:57Z</time>
      </trkpt>
      <trkpt lat="50.3991" lon="1.56712">
        <ele>7.8</ele>
        <time>2014-09-19T16:14:03Z</time>
      </trkpt>
      <trkpt lat="50.39905" lon="1.56723">
        <ele>7.8</ele>
        <time>2014-09-19T16:14:09Z</time>
      </trkpt>
      <trkpt lat="50.399" lon="1.56733">
        <ele>7.8</ele>
        <time>2014-09-19T16:14:14Z</time>
      </trkpt>
      <trkpt lat="50.39896" lon="1.56744">
        <ele>7.8</ele>
        <time>2014-09-19T16:14:20Z</time>
      </trkpt>
      <trkpt lat="50.39891" lon="1.56755">
        <ele>8</ele>
        <time>2014-09-19T16:14:26Z</time>
      </trkpt>
      <trkpt lat="50.39887" lon="1.56765">
        <ele>7.4</ele>
        <time>2014-09-19T16:14:32Z</time>
      </trkpt>
      <trkpt lat="50.39887" lon="1.56767">
        <ele>7.3</ele>
        <time>2014-09-19T16:14:33Z</time>
      </trkpt>
      <trkpt lat="50.3988" lon="1.5679">
        <ele>8.3</ele>
        <time>2014-09-19T16:14:45Z</time>
      </trkpt>
      <trkpt lat="50.39878" lon="1.56803">
        <ele>7.8</ele>
        <time>2014-09-19T16:14:53Z</time>
      </trkpt>
      <trkpt lat="50.39876" lon="1.56816">
        <ele>7.9</ele>
        <time>2014-09-19T16:14:59Z</time>
      </trkpt>
      <trkpt lat="50.39875" lon="1.56829">
        <ele>7.9</ele>
        <time>2014-09-19T16:15:05Z</time>
      </trkpt>
      <trkpt lat="50.39875" lon="1.56841">
        <ele>7.8</ele>
        <time>2014-09-19T16:15:10Z</time>
      </trkpt>
      <trkpt lat="50.39878" lon="1.56853">
        <ele>7.8</ele>
        <time>2014-09-19T16:15:16Z</time>
      </trkpt>
      <trkpt lat="50.39882" lon="1.56866">
        <ele>7.9</ele>
        <time>2014-09-19T16:15:22Z</time>
      </trkpt>
      <trkpt lat="50.39886" lon="1.56876">
        <ele>7.2</ele>
        <time>2014-09-19T16:15:27Z</time>
      </trkpt>
      <trkpt lat="50.3989" lon="1.56885">
        <ele>8</ele>
        <time>2014-09-19T16:15:31Z</time>
      </trkpt>
      <trkpt lat="50.39895" lon="1.56895">
        <ele>8.3</ele>
        <time>2014-09-19T16:15:36Z</time>
      </trkpt>
      <trkpt lat="50.39896" lon="1.56897">
        <ele>8.4</ele>
        <time>2014-09-19T16:15:37Z</time>
      </trkpt>
      <trkpt lat="50.39904" lon="1.56918">
        <ele>7.6</ele>
        <time>2014-09-19T16:15:47Z</time>
      </trkpt>
      <trkpt lat="50.39908" lon="1.5693">
        <ele>7.7</ele>
        <time>2014-09-19T16:15:53Z</time>
      </trkpt>
      <trkpt lat="50.39913" lon="1.5694">
        <ele>7.8</ele>
        <time>2014-09-19T16:16:00Z</time>
      </trkpt>
      <trkpt lat="50.39918" lon="1.5695">
        <ele>7.8</ele>
        <time>2014-09-19T16:16:06Z</time>
      </trkpt>
      <trkpt lat="50.39923" lon="1.56962">
        <ele>8</ele>
        <time>2014-09-19T16:16:12Z</time>
      </trkpt>
      <trkpt lat="50.39928" lon="1.56973">
        <ele>8.3</ele>
        <time>2014-09-19T16:16:18Z</time>
      </trkpt>
      <trkpt lat="50.39932" lon="1.56985">
        <ele>7.9</ele>
        <time>2014-09-19T16:16:24Z</time>
      </trkpt>
      <trkpt lat="50.39936" lon="1.56997">
        <ele>8.5</ele>
        <time>2014-09-19T16:16:30Z</time>
      </trkpt>
      <trkpt lat="50.3994" lon="1.57008">
        <ele>8.1</ele>
        <time>2014-09-19T16:16:36Z</time>
      </trkpt>
      <trkpt lat="50.39945" lon="1.5702">
        <ele>8.5</ele>
        <time>2014-09-19T16:16:41Z</time>
      </trkpt>
      <trkpt lat="50.39945" lon="1.57022">
        <ele>8.5</ele>
        <time>2014-09-19T16:16:42Z</time>
      </trkpt>
      <trkpt lat="50.39953" lon="1.57043">
        <ele>7.9</ele>
        <time>2014-09-19T16:16:53Z</time>
      </trkpt>
      <trkpt lat="50.39957" lon="1.57053">
        <ele>8.9</ele>
        <time>2014-09-19T16:16:58Z</time>
      </trkpt>
      <trkpt lat="50.39961" lon="1.57065">
        <ele>8.5</ele>
        <time>2014-09-19T16:17:05Z</time>
      </trkpt>
      <trkpt lat="50.39965" lon="1.57076">
        <ele>8.4</ele>
        <time>2014-09-19T16:17:10Z</time>
      </trkpt>
      <trkpt lat="50.39969" lon="1.57088">
        <ele>7.9</ele>
        <time>2014-09-19T16:17:16Z</time>
      </trkpt>
      <trkpt lat="50.39974" lon="1.57099">
        <ele>8.7</ele>
        <time>2014-09-19T16:17:22Z</time>
      </trkpt>
      <trkpt lat="50.39978" lon="1.57108">
        <ele>8.2</ele>
        <time>2014-09-19T16:17:27Z</time>
      </trkpt>
      <trkpt lat="50.39984" lon="1.57118">
        <ele>7.8</ele>
        <time>2014-09-19T16:17:33Z</time>
      </trkpt>
      <trkpt lat="50.3999" lon="1.57126">
        <ele>5.2</ele>
        <time>2014-09-19T16:17:38Z</time>
      </trkpt>
      <trkpt lat="50.39996" lon="1.57135">
        <ele>7.6</ele>
        <time>2014-09-19T16:17:43Z</time>
      </trkpt>
      <trkpt lat="50.39997" lon="1.57136">
        <ele>7.9</ele>
        <time>2014-09-19T16:17:44Z</time>
      </trkpt>
      <trkpt lat="50.40007" lon="1.57151">
        <ele>7.7</ele>
        <time>2014-09-19T16:17:53Z</time>
      </trkpt>
      <trkpt lat="50.40013" lon="1.57161">
        <ele>7.1</ele>
        <time>2014-09-19T16:17:59Z</time>
      </trkpt>
      <trkpt lat="50.40019" lon="1.5717">
        <ele>7.6</ele>
        <time>2014-09-19T16:18:05Z</time>
      </trkpt>
      <trkpt lat="50.40025" lon="1.57179">
        <ele>6.8</ele>
        <time>2014-09-19T16:18:11Z</time>
      </trkpt>
      <trkpt lat="50.4003" lon="1.57189">
        <ele>7.2</ele>
        <time>2014-09-19T16:18:17Z</time>
      </trkpt>
      <trkpt lat="50.40036" lon="1.57198">
        <ele>7.4</ele>
        <time>2014-09-19T16:18:23Z</time>
      </trkpt>
      <trkpt lat="50.40042" lon="1.57206">
        <ele>7.7</ele>
        <time>2014-09-19T16:18:28Z</time>
      </trkpt>
      <trkpt lat="50.40048" lon="1.57215">
        <ele>7.2</ele>
        <time>2014-09-19T16:18:34Z</time>
      </trkpt>
      <trkpt lat="50.40053" lon="1.57224">
        <ele>7.5</ele>
        <time>2014-09-19T16:18:39Z</time>
      </trkpt>
      <trkpt lat="50.40056" lon="1.57235">
        <ele>7.3</ele>
        <time>2014-09-19T16:18:44Z</time>
      </trkpt>
      <trkpt lat="50.40056" lon="1.57238">
        <ele>7.2</ele>
        <time>2014-09-19T16:18:45Z</time>
      </trkpt>
      <trkpt lat="50.4006" lon="1.5726">
        <ele>7.5</ele>
        <time>2014-09-19T16:18:55Z</time>
      </trkpt>
      <trkpt lat="50.40063" lon="1.57272">
        <ele>8.1</ele>
        <time>2014-09-19T16:19:01Z</time>
      </trkpt>
      <trkpt lat="50.40067" lon="1.57284">
        <ele>8.2</ele>
        <time>2014-09-19T16:19:08Z</time>
      </trkpt>
      <trkpt lat="50.40071" lon="1.57295">
        <ele>7.7</ele>
        <time>2014-09-19T16:19:13Z</time>
      </trkpt>
      <trkpt lat="50.40074" lon="1.57306">
        <ele>7.1</ele>
        <time>2014-09-19T16:19:19Z</time>
      </trkpt>
      <trkpt lat="50.40077" lon="1.57317">
        <ele>7</ele>
        <time>2014-09-19T16:19:25Z</time>
      </trkpt>
      <trkpt lat="50.40081" lon="1.57328">
        <ele>7</ele>
        <time>2014-09-19T16:19:31Z</time>
      </trkpt>
      <trkpt lat="50.40085" lon="1.5734">
        <ele>6.9</ele>
        <time>2014-09-19T16:19:37Z</time>
      </trkpt>
      <trkpt lat="50.4009" lon="1.57351">
        <ele>7.3</ele>
        <time>2014-09-19T16:19:43Z</time>
      </trkpt>
      <trkpt lat="50.40095" lon="1.57362">
        <ele>6.6</ele>
        <time>2014-09-19T16:19:50Z</time>
      </trkpt>
      <trkpt lat="50.40096" lon="1.57364">
        <ele>6.5</ele>
        <time>2014-09-19T16:19:51Z</time>
      </trkpt>
      <trkpt lat="50.40106" lon="1.57382">
        <ele>7.6</ele>
        <time>2014-09-19T16:20:00Z</time>
      </trkpt>
      <trkpt lat="50.40111" lon="1.57392">
        <ele>7.7</ele>
        <time>2014-09-19T16:20:06Z</time>
      </trkpt>
      <trkpt lat="50.40117" lon="1.57402">
        <ele>-1.6</ele>
        <time>2014-09-19T16:20:12Z</time>
      </trkpt>
      <trkpt lat="50.40122" lon="1.57413">
        <ele>6.3</ele>
        <time>2014-09-19T16:20:18Z</time>
      </trkpt>
      <trkpt lat="50.40126" lon="1.57423">
        <ele>6.6</ele>
        <time>2014-09-19T16:20:24Z</time>
      </trkpt>
      <trkpt lat="50.40131" lon="1.57435">
        <ele>6.7</ele>
        <time>2014-09-19T16:20:30Z</time>
      </trkpt>
      <trkpt lat="50.40135" lon="1.57446">
        <ele>6.9</ele>
        <time>2014-09-19T16:20:36Z</time>
      </trkpt>
      <trkpt lat="50.40139" lon="1.57458">
        <ele>6.2</ele>
        <time>2014-09-19T16:20:43Z</time>
      </trkpt>
      <trkpt lat="50.40141" lon="1.57472">
        <ele>6.3</ele>
        <time>2014-09-19T16:20:49Z</time>
      </trkpt>
      <trkpt lat="50.40144" lon="1.57483">
        <ele>6.7</ele>
        <time>2014-09-19T16:20:55Z</time>
      </trkpt>
      <trkpt lat="50.40144" lon="1.57485">
        <ele>7</ele>
        <time>2014-09-19T16:20:56Z</time>
      </trkpt>
      <trkpt lat="50.40149" lon="1.57508">
        <ele>6.5</ele>
        <time>2014-09-19T16:21:07Z</time>
      </trkpt>
      <trkpt lat="50.40153" lon="1.5752">
        <ele>5.8</ele>
        <time>2014-09-19T16:21:13Z</time>
      </trkpt>
      <trkpt lat="50.40156" lon="1.57531">
        <ele>5.9</ele>
        <time>2014-09-19T16:21:19Z</time>
      </trkpt>
      <trkpt lat="50.4016" lon="1.57543">
        <ele>5.8</ele>
        <time>2014-09-19T16:21:25Z</time>
      </trkpt>
      <trkpt lat="50.40163" lon="1.57555">
        <ele>7.5</ele>
        <time>2014-09-19T16:21:31Z</time>
      </trkpt>
      <trkpt lat="50.40166" lon="1.57568">
        <ele>6.8</ele>
        <time>2014-09-19T16:21:37Z</time>
      </trkpt>
      <trkpt lat="50.40169" lon="1.57579">
        <ele>6.2</ele>
        <time>2014-09-19T16:21:43Z</time>
      </trkpt>
      <trkpt lat="50.40172" lon="1.57591">
        <ele>4.8</ele>
        <time>2014-09-19T16:21:49Z</time>
      </trkpt>
      <trkpt lat="50.40175" lon="1.57603">
        <ele>5.4</ele>
        <time>2014-09-19T16:21:55Z</time>
      </trkpt>
      <trkpt lat="50.40178" lon="1.57614">
        <ele>5.5</ele>
        <time>2014-09-19T16:22:01Z</time>
      </trkpt>
      <trkpt lat="50.40178" lon="1.57616">
        <ele>5.2</ele>
        <time>2014-09-19T16:22:02Z</time>
      </trkpt>
      <trkpt lat="50.40183" lon="1.5764">
        <ele>5.6</ele>
        <time>2014-09-19T16:22:14Z</time>
      </trkpt>
      <trkpt lat="50.40185" lon="1.57654">
        <ele>6</ele>
        <time>2014-09-19T16:22:21Z</time>
      </trkpt>
      <trkpt lat="50.40188" lon="1.57665">
        <ele>5.4</ele>
        <time>2014-09-19T16:22:27Z</time>
      </trkpt>
      <trkpt lat="50.40191" lon="1.57677">
        <ele>5.8</ele>
        <time>2014-09-19T16:22:33Z</time>
      </trkpt>
      <trkpt lat="50.40194" lon="1.5769">
        <ele>5.7</ele>
        <time>2014-09-19T16:22:39Z</time>
      </trkpt>
      <trkpt lat="50.4019" lon="1.577">
        <ele>5.3</ele>
        <time>2014-09-19T16:22:48Z</time>
      </trkpt>
      <trkpt lat="50.40189" lon="1.57714">
        <ele>5.3</ele>
        <time>2014-09-19T16:22:55Z</time>
      </trkpt>
      <trkpt lat="50.40192" lon="1.57727">
        <ele>5</ele>
        <time>2014-09-19T16:23:01Z</time>
      </trkpt>
      <trkpt lat="50.40196" lon="1.57739">
        <ele>5.4</ele>
        <time>2014-09-19T16:23:07Z</time>
      </trkpt>
      <trkpt lat="50.40197" lon="1.57741">
        <ele>5.6</ele>
        <time>2014-09-19T16:23:08Z</time>
      </trkpt>
      <trkpt lat="50.40203" lon="1.57763">
        <ele>5.6</ele>
        <time>2014-09-19T16:23:20Z</time>
      </trkpt>
      <trkpt lat="50.40206" lon="1.57776">
        <ele>5.6</ele>
        <time>2014-09-19T16:23:26Z</time>
      </trkpt>
      <trkpt lat="50.4021" lon="1.57786">
        <ele>6.1</ele>
        <time>2014-09-19T16:23:32Z</time>
      </trkpt>
      <trkpt lat="50.40214" lon="1.57798">
        <ele>4.7</ele>
        <time>2014-09-19T16:23:38Z</time>
      </trkpt>
      <trkpt lat="50.40219" lon="1.57808">
        <ele>4.9</ele>
        <time>2014-09-19T16:23:44Z</time>
      </trkpt>
      <trkpt lat="50.40224" lon="1.57819">
        <ele>4.9</ele>
        <time>2014-09-19T16:23:50Z</time>
      </trkpt>
      <trkpt lat="50.4023" lon="1.57828">
        <ele>5.7</ele>
        <time>2014-09-19T16:23:56Z</time>
      </trkpt>
      <trkpt lat="50.40236" lon="1.57838">
        <ele>5.1</ele>
        <time>2014-09-19T16:24:02Z</time>
      </trkpt>
      <trkpt lat="50.40242" lon="1.57846">
        <ele>6.1</ele>
        <time>2014-09-19T16:24:08Z</time>
      </trkpt>
      <trkpt lat="50.40243" lon="1.57848">
        <ele>5.7</ele>
        <time>2014-09-19T16:24:09Z</time>
      </trkpt>
      <trkpt lat="50.40255" lon="1.57866">
        <ele>5.9</ele>
        <time>2014-09-19T16:24:20Z</time>
      </trkpt>
      <trkpt lat="50.40263" lon="1.57873">
        <ele>5.7</ele>
        <time>2014-09-19T16:24:26Z</time>
      </trkpt>
      <trkpt lat="50.4027" lon="1.57878">
        <ele>5.1</ele>
        <time>2014-09-19T16:24:31Z</time>
      </trkpt>
      <trkpt lat="50.40277" lon="1.57882">
        <ele>5.2</ele>
        <time>2014-09-19T16:24:37Z</time>
      </trkpt>
      <trkpt lat="50.40285" lon="1.5789">
        <ele>5.4</ele>
        <time>2014-09-19T16:24:44Z</time>
      </trkpt>
      <trkpt lat="50.40292" lon="1.57897">
        <ele>5.6</ele>
        <time>2014-09-19T16:24:51Z</time>
      </trkpt>
      <trkpt lat="50.403" lon="1.57902">
        <ele>5.9</ele>
        <time>2014-09-19T16:24:58Z</time>
      </trkpt>
      <trkpt lat="50.40308" lon="1.57906">
        <ele>5.6</ele>
        <time>2014-09-19T16:25:05Z</time>
      </trkpt>
      <trkpt lat="50.40316" lon="1.57908">
        <ele>5.3</ele>
        <time>2014-09-19T16:25:11Z</time>
      </trkpt>
      <trkpt lat="50.40317" lon="1.57908">
        <ele>5.3</ele>
        <time>2014-09-19T16:25:12Z</time>
      </trkpt>
      <trkpt lat="50.40331" lon="1.57915">
        <ele>5.1</ele>
        <time>2014-09-19T16:25:23Z</time>
      </trkpt>
      <trkpt lat="50.40338" lon="1.57922">
        <ele>5.5</ele>
        <time>2014-09-19T16:25:29Z</time>
      </trkpt>
      <trkpt lat="50.40344" lon="1.57931">
        <ele>5.3</ele>
        <time>2014-09-19T16:25:35Z</time>
      </trkpt>
      <trkpt lat="50.4035" lon="1.5794">
        <ele>6.5</ele>
        <time>2014-09-19T16:25:41Z</time>
      </trkpt>
      <trkpt lat="50.40355" lon="1.57952">
        <ele>5.6</ele>
        <time>2014-09-19T16:25:50Z</time>
      </trkpt>
      <trkpt lat="50.40355" lon="1.57966">
        <ele>5.6</ele>
        <time>2014-09-19T16:26:19Z</time>
      </trkpt>
      <trkpt lat="50.40355" lon="1.57967">
        <ele>5.3</ele>
        <time>2014-09-19T16:26:20Z</time>
      </trkpt>
      <trkpt lat="50.40354" lon="1.57992">
        <ele>5.1</ele>
        <time>2014-09-19T16:26:34Z</time>
      </trkpt>
      <trkpt lat="50.40352" lon="1.58005">
        <ele>6.7</ele>
        <time>2014-09-19T16:26:41Z</time>
      </trkpt>
      <trkpt lat="50.40352" lon="1.58018">
        <ele>5.5</ele>
        <time>2014-09-19T16:26:48Z</time>
      </trkpt>
      <trkpt lat="50.40352" lon="1.58032">
        <ele>4.9</ele>
        <time>2014-09-19T16:26:55Z</time>
      </trkpt>
      <trkpt lat="50.40354" lon="1.58045">
        <ele>5.3</ele>
        <time>2014-09-19T16:27:01Z</time>
      </trkpt>
      <trkpt lat="50.40354" lon="1.58058">
        <ele>4.2</ele>
        <time>2014-09-19T16:27:07Z</time>
      </trkpt>
      <trkpt lat="50.40353" lon="1.58071">
        <ele>5.5</ele>
        <time>2014-09-19T16:27:13Z</time>
      </trkpt>
      <trkpt lat="50.40351" lon="1.58084">
        <ele>4.3</ele>
        <time>2014-09-19T16:27:20Z</time>
      </trkpt>
      <trkpt lat="50.40349" lon="1.58097">
        <ele>4.1</ele>
        <time>2014-09-19T16:27:27Z</time>
      </trkpt>
      <trkpt lat="50.40349" lon="1.58099">
        <ele>4</ele>
        <time>2014-09-19T16:27:28Z</time>
      </trkpt>
      <trkpt lat="50.40346" lon="1.58122">
        <ele>5.4</ele>
        <time>2014-09-19T16:27:39Z</time>
      </trkpt>
      <trkpt lat="50.40346" lon="1.58135">
        <ele>6.3</ele>
        <time>2014-09-19T16:27:45Z</time>
      </trkpt>
      <trkpt lat="50.40343" lon="1.58148">
        <ele>5.9</ele>
        <time>2014-09-19T16:27:51Z</time>
      </trkpt>
      <trkpt lat="50.40344" lon="1.58161">
        <ele>5.5</ele>
        <time>2014-09-19T16:27:57Z</time>
      </trkpt>
      <trkpt lat="50.40345" lon="1.58173">
        <ele>6.6</ele>
        <time>2014-09-19T16:28:03Z</time>
      </trkpt>
      <trkpt lat="50.40344" lon="1.58186">
        <ele>5.9</ele>
        <time>2014-09-19T16:28:10Z</time>
      </trkpt>
      <trkpt lat="50.40345" lon="1.582">
        <ele>5.7</ele>
        <time>2014-09-19T16:28:17Z</time>
      </trkpt>
      <trkpt lat="50.40344" lon="1.58213">
        <ele>5.7</ele>
        <time>2014-09-19T16:28:23Z</time>
      </trkpt>
      <trkpt lat="50.40343" lon="1.58226">
        <ele>5.9</ele>
        <time>2014-09-19T16:28:29Z</time>
      </trkpt>
      <trkpt lat="50.40343" lon="1.58228">
        <ele>6</ele>
        <time>2014-09-19T16:28:30Z</time>
      </trkpt>
      <trkpt lat="50.40342" lon="1.5825">
        <ele>6.1</ele>
        <time>2014-09-19T16:28:39Z</time>
      </trkpt>
      <trkpt lat="50.40342" lon="1.58263">
        <ele>6.1</ele>
        <time>2014-09-19T16:28:45Z</time>
      </trkpt>
      <trkpt lat="50.40343" lon="1.58276">
        <ele>6.1</ele>
        <time>2014-09-19T16:28:51Z</time>
      </trkpt>
      <trkpt lat="50.40343" lon="1.5829">
        <ele>6</ele>
        <time>2014-09-19T16:28:57Z</time>
      </trkpt>
      <trkpt lat="50.40344" lon="1.58303">
        <ele>5.8</ele>
        <time>2014-09-19T16:29:03Z</time>
      </trkpt>
      <trkpt lat="50.40343" lon="1.58315">
        <ele>5.5</ele>
        <time>2014-09-19T16:29:08Z</time>
      </trkpt>
      <trkpt lat="50.40343" lon="1.58329">
        <ele>5.2</ele>
        <time>2014-09-19T16:29:14Z</time>
      </trkpt>
      <trkpt lat="50.40343" lon="1.58342">
        <ele>5.5</ele>
        <time>2014-09-19T16:29:20Z</time>
      </trkpt>
      <trkpt lat="50.40343" lon="1.58356">
        <ele>5.4</ele>
        <time>2014-09-19T16:29:26Z</time>
      </trkpt>
      <trkpt lat="50.40344" lon="1.58367">
        <ele>5.5</ele>
        <time>2014-09-19T16:29:31Z</time>
      </trkpt>
      <trkpt lat="50.40345" lon="1.5837">
        <ele>5.6</ele>
        <time>2014-09-19T16:29:32Z</time>
      </trkpt>
      <trkpt lat="50.40347" lon="1.58392">
        <ele>5</ele>
        <time>2014-09-19T16:29:41Z</time>
      </trkpt>
      <trkpt lat="50.40348" lon="1.58405">
        <ele>5.2</ele>
        <time>2014-09-19T16:29:47Z</time>
      </trkpt>
      <trkpt lat="50.40348" lon="1.58418">
        <ele>5.6</ele>
        <time>2014-09-19T16:29:53Z</time>
      </trkpt>
      <trkpt lat="50.40348" lon="1.58431">
        <ele>5.3</ele>
        <time>2014-09-19T16:29:59Z</time>
      </trkpt>
      <trkpt lat="50.40348" lon="1.58445">
        <ele>5.7</ele>
        <time>2014-09-19T16:30:05Z</time>
      </trkpt>
      <trkpt lat="50.40347" lon="1.58458">
        <ele>5</ele>
        <time>2014-09-19T16:30:11Z</time>
      </trkpt>
      <trkpt lat="50.40347" lon="1.5847">
        <ele>6.2</ele>
        <time>2014-09-19T16:30:17Z</time>
      </trkpt>
      <trkpt lat="50.40347" lon="1.58482">
        <ele>6.5</ele>
        <time>2014-09-19T16:30:23Z</time>
      </trkpt>
      <trkpt lat="50.40346" lon="1.58495">
        <ele>6.2</ele>
        <time>2014-09-19T16:30:29Z</time>
      </trkpt>
      <trkpt lat="50.40343" lon="1.58506">
        <ele>6.1</ele>
        <time>2014-09-19T16:30:34Z</time>
      </trkpt>
      <trkpt lat="50.40343" lon="1.58509">
        <ele>6.1</ele>
        <time>2014-09-19T16:30:35Z</time>
      </trkpt>
      <trkpt lat="50.40345" lon="1.58531">
        <ele>5.8</ele>
        <time>2014-09-19T16:30:46Z</time>
      </trkpt>
      <trkpt lat="50.40345" lon="1.58545">
        <ele>6.5</ele>
        <time>2014-09-19T16:30:52Z</time>
      </trkpt>
      <trkpt lat="50.40344" lon="1.58558">
        <ele>5.5</ele>
        <time>2014-09-19T16:30:58Z</time>
      </trkpt>
      <trkpt lat="50.40343" lon="1.58571">
        <ele>6</ele>
        <time>2014-09-19T16:31:04Z</time>
      </trkpt>
      <trkpt lat="50.40343" lon="1.58583">
        <ele>5.7</ele>
        <time>2014-09-19T16:31:10Z</time>
      </trkpt>
      <trkpt lat="50.40342" lon="1.58596">
        <ele>4.9</ele>
        <time>2014-09-19T16:31:16Z</time>
      </trkpt>
      <trkpt lat="50.40341" lon="1.58608">
        <ele>5.5</ele>
        <time>2014-09-19T16:31:22Z</time>
      </trkpt>
      <trkpt lat="50.40341" lon="1.58622">
        <ele>6.8</ele>
        <time>2014-09-19T16:31:28Z</time>
      </trkpt>
      <trkpt lat="50.40341" lon="1.58635">
        <ele>5.3</ele>
        <time>2014-09-19T16:31:34Z</time>
      </trkpt>
      <trkpt lat="50.40341" lon="1.58638">
        <ele>5.3</ele>
        <time>2014-09-19T16:31:35Z</time>
      </trkpt>
      <trkpt lat="50.40341" lon="1.5866">
        <ele>4</ele>
        <time>2014-09-19T16:31:45Z</time>
      </trkpt>
      <trkpt lat="50.4034" lon="1.58673">
        <ele>4.5</ele>
        <time>2014-09-19T16:31:51Z</time>
      </trkpt>
      <trkpt lat="50.40339" lon="1.58686">
        <ele>5</ele>
        <time>2014-09-19T16:31:57Z</time>
      </trkpt>
      <trkpt lat="50.40338" lon="1.58699">
        <ele>5.5</ele>
        <time>2014-09-19T16:32:03Z</time>
      </trkpt>
      <trkpt lat="50.40337" lon="1.58712">
        <ele>5.6</ele>
        <time>2014-09-19T16:32:09Z</time>
      </trkpt>
      <trkpt lat="50.40336" lon="1.58724">
        <ele>4.7</ele>
        <time>2014-09-19T16:32:14Z</time>
      </trkpt>
      <trkpt lat="50.40336" lon="1.58737">
        <ele>4.1</ele>
        <time>2014-09-19T16:32:20Z</time>
      </trkpt>
      <trkpt lat="50.40335" lon="1.5875">
        <ele>4.8</ele>
        <time>2014-09-19T16:32:26Z</time>
      </trkpt>
      <trkpt lat="50.40333" lon="1.58764">
        <ele>5.2</ele>
        <time>2014-09-19T16:32:33Z</time>
      </trkpt>
      <trkpt lat="50.40332" lon="1.58778">
        <ele>4.8</ele>
        <time>2014-09-19T16:32:40Z</time>
      </trkpt>
      <trkpt lat="50.40332" lon="1.5878">
        <ele>4.9</ele>
        <time>2014-09-19T16:32:41Z</time>
      </trkpt>
      <trkpt lat="50.4033" lon="1.58802">
        <ele>5.7</ele>
        <time>2014-09-19T16:32:52Z</time>
      </trkpt>
      <trkpt lat="50.40329" lon="1.58815">
        <ele>4.7</ele>
        <time>2014-09-19T16:32:58Z</time>
      </trkpt>
      <trkpt lat="50.40328" lon="1.58828">
        <ele>4.5</ele>
        <time>2014-09-19T16:33:04Z</time>
      </trkpt>
      <trkpt lat="50.40327" lon="1.58842">
        <ele>5.3</ele>
        <time>2014-09-19T16:33:11Z</time>
      </trkpt>
      <trkpt lat="50.40326" lon="1.58855">
        <ele>5.5</ele>
        <time>2014-09-19T16:33:17Z</time>
      </trkpt>
      <trkpt lat="50.40325" lon="1.58867">
        <ele>5.6</ele>
        <time>2014-09-19T16:33:23Z</time>
      </trkpt>
      <trkpt lat="50.40325" lon="1.5888">
        <ele>5.4</ele>
        <time>2014-09-19T16:33:29Z</time>
      </trkpt>
      <trkpt lat="50.40323" lon="1.58893">
        <ele>4.8</ele>
        <time>2014-09-19T16:33:35Z</time>
      </trkpt>
      <trkpt lat="50.40323" lon="1.58906">
        <ele>5.7</ele>
        <time>2014-09-19T16:33:41Z</time>
      </trkpt>
      <trkpt lat="50.40322" lon="1.58919">
        <ele>5.8</ele>
        <time>2014-09-19T16:33:47Z</time>
      </trkpt>
      <trkpt lat="50.40322" lon="1.58921">
        <ele>5.7</ele>
        <time>2014-09-19T16:33:48Z</time>
      </trkpt>
      <trkpt lat="50.40318" lon="1.58945">
        <ele>5.5</ele>
        <time>2014-09-19T16:34:00Z</time>
      </trkpt>
      <trkpt lat="50.40318" lon="1.58959">
        <ele>5.3</ele>
        <time>2014-09-19T16:34:07Z</time>
      </trkpt>
      <trkpt lat="50.40317" lon="1.58972">
        <ele>5.5</ele>
        <time>2014-09-19T16:34:13Z</time>
      </trkpt>
      <trkpt lat="50.40315" lon="1.58984">
        <ele>5.7</ele>
        <time>2014-09-19T16:34:18Z</time>
      </trkpt>
      <trkpt lat="50.40314" lon="1.58997">
        <ele>5.8</ele>
        <time>2014-09-19T16:34:24Z</time>
      </trkpt>
      <trkpt lat="50.40313" lon="1.5901">
        <ele>5.4</ele>
        <time>2014-09-19T16:34:30Z</time>
      </trkpt>
      <trkpt lat="50.40313" lon="1.59024">
        <ele>5.2</ele>
        <time>2014-09-19T16:34:37Z</time>
      </trkpt>
      <trkpt lat="50.40312" lon="1.59036">
        <ele>5.3</ele>
        <time>2014-09-19T16:34:43Z</time>
      </trkpt>
      <trkpt lat="50.40312" lon="1.59049">
        <ele>5.5</ele>
        <time>2014-09-19T16:34:49Z</time>
      </trkpt>
      <trkpt lat="50.40312" lon="1.59051">
        <ele>5.4</ele>
        <time>2014-09-19T16:34:50Z</time>
      </trkpt>
      <trkpt lat="50.40311" lon="1.59073">
        <ele>5</ele>
        <time>2014-09-19T16:35:01Z</time>
      </trkpt>
      <trkpt lat="50.40311" lon="1.59086">
        <ele>5.6</ele>
        <time>2014-09-19T16:35:07Z</time>
      </trkpt>
      <trkpt lat="50.4031" lon="1.59098">
        <ele>5.5</ele>
        <time>2014-09-19T16:35:13Z</time>
      </trkpt>
      <trkpt lat="50.40309" lon="1.59111">
        <ele>5.8</ele>
        <time>2014-09-19T16:35:19Z</time>
      </trkpt>
      <trkpt lat="50.40308" lon="1.59122">
        <ele>6</ele>
        <time>2014-09-19T16:35:24Z</time>
      </trkpt>
      <trkpt lat="50.40308" lon="1.59136">
        <ele>5.6</ele>
        <time>2014-09-19T16:35:30Z</time>
      </trkpt>
      <trkpt lat="50.40307" lon="1.59149">
        <ele>6</ele>
        <time>2014-09-19T16:35:36Z</time>
      </trkpt>
      <trkpt lat="50.40306" lon="1.59162">
        <ele>5.9</ele>
        <time>2014-09-19T16:35:42Z</time>
      </trkpt>
      <trkpt lat="50.40306" lon="1.59174">
        <ele>5.9</ele>
        <time>2014-09-19T16:35:48Z</time>
      </trkpt>
      <trkpt lat="50.40305" lon="1.59187">
        <ele>5.9</ele>
        <time>2014-09-19T16:35:54Z</time>
      </trkpt>
      <trkpt lat="50.40305" lon="1.59189">
        <ele>5.5</ele>
        <time>2014-09-19T16:35:55Z</time>
      </trkpt>
      <trkpt lat="50.40303" lon="1.59212">
        <ele>6</ele>
        <time>2014-09-19T16:36:06Z</time>
      </trkpt>
      <trkpt lat="50.40302" lon="1.59224">
        <ele>6.3</ele>
        <time>2014-09-19T16:36:12Z</time>
      </trkpt>
      <trkpt lat="50.403" lon="1.59238">
        <ele>6.1</ele>
        <time>2014-09-19T16:36:18Z</time>
      </trkpt>
      <trkpt lat="50.40301" lon="1.59252">
        <ele>6.1</ele>
        <time>2014-09-19T16:36:25Z</time>
      </trkpt>
      <trkpt lat="50.40307" lon="1.5926">
        <ele>6</ele>
        <time>2014-09-19T16:36:32Z</time>
      </trkpt>
      <trkpt lat="50.40315" lon="1.59262">
        <ele>6.1</ele>
        <time>2014-09-19T16:36:38Z</time>
      </trkpt>
      <trkpt lat="50.40323" lon="1.59266">
        <ele>5.7</ele>
        <time>2014-09-19T16:36:44Z</time>
      </trkpt>
      <trkpt lat="50.40326" lon="1.59279">
        <ele>6</ele>
        <time>2014-09-19T16:36:50Z</time>
      </trkpt>
      <trkpt lat="50.40325" lon="1.59292">
        <ele>6.7</ele>
        <time>2014-09-19T16:36:56Z</time>
      </trkpt>
      <trkpt lat="50.40325" lon="1.59294">
        <ele>6.8</ele>
        <time>2014-09-19T16:36:57Z</time>
      </trkpt>
      <trkpt lat="50.40325" lon="1.59317">
        <ele>6.4</ele>
        <time>2014-09-19T16:37:08Z</time>
      </trkpt>
      <trkpt lat="50.40325" lon="1.5933">
        <ele>6.5</ele>
        <time>2014-09-19T16:37:14Z</time>
      </trkpt>
      <trkpt lat="50.40325" lon="1.59343">
        <ele>6.6</ele>
        <time>2014-09-19T16:37:20Z</time>
      </trkpt>
      <trkpt lat="50.40326" lon="1.59355">
        <ele>6.2</ele>
        <time>2014-09-19T16:37:26Z</time>
      </trkpt>
      <trkpt lat="50.40327" lon="1.59369">
        <ele>6.1</ele>
        <time>2014-09-19T16:37:33Z</time>
      </trkpt>
      <trkpt lat="50.40328" lon="1.59382">
        <ele>6</ele>
        <time>2014-09-19T16:37:42Z</time>
      </trkpt>
      <trkpt lat="50.40329" lon="1.59395">
        <ele>6.3</ele>
        <time>2014-09-19T16:37:49Z</time>
      </trkpt>
      <trkpt lat="50.40334" lon="1.59407">
        <ele>6.4</ele>
        <time>2014-09-19T16:37:57Z</time>
      </trkpt>
      <trkpt lat="50.40335" lon="1.59408">
        <ele>6.5</ele>
        <time>2014-09-19T16:37:58Z</time>
      </trkpt>
    </trkseg>
  </trk>
</gpx>